GFSCGP_con_3kmhel_000.txt.gz
Helicity
183 211 184 156 121 97 83 95 72 94 63 5 33 27 97 54 12 24 66 112 137 149 117 129 135 121 98 102 100 114 115 100 38 39 37 22 3 9 20 31 35 43 46 56
201 165 99 138 143 113 105 91 71 56 67 -33 10 14 65 30 5 29 91 117 109 103 146 134 126 127 125 114 123 130 115 93 43 5 6 21 43 74 87 111 137 140 134 136
205 150 80 125 148 101 74 46 48 44 22 -35 -32 -39 44 55 79 83 127 123 96 88 83 84 110 112 114 126 107 89 80 85 79 53 34 69 99 147 167 168 154 140 106 103
217 123 167 183 127 112 51 21 44 75 28 -16 -4 -30 31 44 82 115 122 95 71 63 56 78 86 106 87 57 54 69 78 69 69 66 90 117 97 90 65 56 56 81 89 87
199 90 85 136 81 103 32 12 17 45 14 -17 -11 17 -17 48 84 84 93 81 40 56 56 73 88 72 55 57 57 52 65 86 82 110 91 73 82 48 53 76 89 90 86 79
151 156 147 145 129 84 78 70 89 91 45 -12 -5 71 32 46 122 130 103 78 39 60 64 85 78 68 71 64 72 60 75 86 104 107 103 93 99 91 93 95 77 60 38 27
162 118 161 119 149 154 174 120 79 81 96 44 36 45 59 24 59 106 136 78 44 51 58 67 77 85 76 76 68 71 77 84 64 76 93 91 78 79 81 73 67 62 46 27
222 140 119 134 130 124 109 137 132 97 65 29 58 31 24 45 35 25 114 127 81 57 51 69 82 82 75 91 100 101 92 91 77 71 72 72 82 61 63 66 50 40 36 29
236 212 219 164 148 154 106 106 93 101 82 26 37 50 49 54 59 70 151 182 90 68 67 91 104 91 102 132 133 109 92 84 76 61 58 69 69 69 55 45 33 47 55 64
226 218 232 206 158 186 96 126 150 156 70 47 51 46 50 72 66 60 122 139 119 99 97 121 118 128 156 156 143 139 116 98 82 81 78 73 69 62 64 69 80 80 86 91
196 205 225 173 135 185 240 217 201 138 130 75 69 60 14 40 50 46 55 108 114 98 101 124 150 181 183 184 183 158 142 124 113 97 91 96 95 78 63 67 73 109 102 78
208 138 227 253 196 163 169 149 177 150 132 124 61 33 9 7 17 96 102 113 85 82 123 176 186 224 225 209 208 184 159 142 122 132 139 96 68 69 74 72 92 76 67 74
146 148 251 243 182 231 156 173 180 152 131 71 68 56 49 64 85 82 99 86 100 165 223 238 239 257 230 213 229 198 178 165 161 148 122 103 85 58 46 54 122 100 90 92
151 123 125 140 115 149 127 157 180 176 102 90 89 64 48 72 117 130 150 162 134 182 213 239 274 254 240 247 235 215 207 202 181 158 132 92 62 54 69 77 82 95 93 80
114 115 114 123 112 183 130 151 192 171 138 127 69 100 98 112 131 150 142 137 138 144 194 233 254 259 252 257 251 251 262 227 180 147 102 76 83 89 79 85 92 95 104 113
132 125 153 125 136 116 111 111 140 204 209 200 162 123 131 145 150 178 193 188 125 129 154 209 249 249 267 271 278 271 235 182 119 81 76 86 94 92 85 92 105 115 112 99
109 99 96 100 87 92 93 59 115 167 174 171 164 130 145 185 183 212 203 140 117 98 144 205 237 261 270 276 254 240 191 111 66 81 66 84 98 93 104 111 114 113 111 114
79 108 99 52 107 87 57 74 95 178 162 157 192 213 222 221 218 182 132 136 101 94 145 231 281 299 275 256 238 184 124 96 103 37 36 79 114 120 113 112 109 121 130 137
141 125 107 74 89 71 66 75 105 148 142 226 278 277 265 211 167 150 121 90 52 57 150 231 244 261 282 251 206 184 140 132 65 50 80 125 123 120 111 119 132 135 139 142
176 150 110 97 70 20 58 123 142 147 106 148 185 184 160 157 134 73 82 53 74 129 188 223 259 265 247 228 197 169 155 115 73 114 119 117 110 115 137 131 123 149 151 164
169 176 147 136 83 108 72 112 133 129 64 184 187 160 120 79 51 47 46 55 88 107 157 202 225 224 217 200 199 182 144 108 118 112 115 120 132 133 120 138 153 154 166 176
62 87 71 109 42 -4 160 201 135 116 147 138 110 82 62 33 17 11 7 42 81 119 160 191 221 217 211 220 207 168 132 118 117 119 122 125 126 121 129 141 148 166 180 184
96 120 91 103 95 165 123 125 154 109 80 54 52 32 26 18 19 55 64 71 93 121 167 201 220 233 222 201 183 158 136 132 125 125 126 126 118 128 125 135 146 178 185 207
114 140 135 142 129 154 177 173 120 82 66 53 48 22 10 26 66 71 88 104 132 154 166 205 223 208 198 186 154 145 138 132 132 125 121 122 127 104 138 156 177 201 203 207
102 127 127 146 146 164 126 128 108 116 100 72 68 61 68 69 76 99 103 113 133 150 177 207 214 199 176 164 170 157 142 141 138 132 123 116 123 124 132 156 179 185 196 167
86 100 133 85 81 137 88 122 127 112 95 87 70 72 93 96 89 110 118 130 142 154 189 198 186 182 171 161 146 145 150 145 132 119 105 107 117 134 146 162 173 133 110 80

GFSCGP_con_3kmhel_003.txt.gz
Helicity
119 169 145 142 164 172 119 86 63 91 103 60 35 2 100 58 53 73 59 75 97 114 92 105 136 131 122 142 134 140 121 86 46 59 84 124 137 128 138 136 149 144 127 126
143 142 132 131 149 168 134 105 115 119 83 36 16 9 51 17 13 44 44 69 97 124 135 130 139 137 126 107 114 126 118 96 79 47 34 46 81 126 127 136 152 137 125 111
134 120 125 119 147 132 117 114 101 111 79 6 -34 -21 20 34 65 62 69 102 126 123 99 111 143 133 114 127 110 93 94 92 73 34 39 75 96 120 134 138 116 116 96 86
166 155 143 109 114 123 75 59 41 78 90 41 -10 -7 40 44 33 64 103 118 141 105 86 90 100 101 84 62 62 78 89 85 93 99 132 157 127 115 81 73 67 73 86 81
172 37 160 118 85 104 69 35 60 68 68 6 5 32 30 69 65 69 64 74 82 82 70 76 73 56 50 63 66 58 75 91 108 120 92 70 67 41 48 63 84 83 70 61
4 84 134 116 94 130 77 115 120 66 42 51 18 47 82 17 3 91 81 47 63 71 76 66 57 46 67 63 63 66 92 85 88 90 78 75 70 72 77 86 77 48 10 -12
112 245 164 156 180 212 150 110 140 129 103 49 26 44 56 34 5 48 85 51 57 62 78 64 52 52 67 65 64 84 111 102 84 86 85 76 75 79 75 60 47 45 26 25
182 230 167 88 116 150 162 158 138 107 68 47 28 37 37 30 37 13 63 105 84 76 76 61 56 62 74 70 89 131 122 109 102 97 98 86 75 51 50 50 37 42 49 38
158 231 177 101 126 137 117 145 129 76 53 58 46 44 34 27 41 68 93 148 101 90 96 76 74 87 93 103 131 169 154 137 113 104 93 88 72 63 41 55 65 58 57 65
152 208 170 170 163 235 93 148 151 148 65 71 50 44 49 65 67 60 66 110 109 143 111 103 103 112 129 160 186 219 178 166 139 131 108 100 95 77 67 76 88 90 101 112
120 167 278 174 170 153 196 150 180 126 119 66 62 42 57 112 66 21 29 82 116 110 107 121 134 150 176 223 234 224 200 184 180 164 152 144 107 83 81 78 82 99 100 79
146 135 206 182 173 133 171 155 88 146 125 120 104 73 25 -11 18 23 56 70 81 105 126 144 170 207 224 255 242 232 230 209 195 179 163 135 108 103 98 83 100 103 85 69
142 153 258 199 171 173 130 162 155 143 129 80 82 54 61 94 78 47 60 42 83 141 170 214 258 247 246 277 233 241 249 218 196 183 168 146 122 112 101 91 91 92 80 75
128 128 135 174 122 194 210 188 171 187 141 119 126 104 81 66 66 105 119 124 149 175 216 254 260 252 269 245 245 247 236 212 184 177 158 133 125 85 68 96 101 84 80 81
129 126 105 131 117 195 224 170 171 180 153 154 135 142 93 61 79 156 232 227 199 183 203 210 241 252 252 261 254 237 231 203 179 185 150 139 65 33 105 110 87 87 86 75
107 61 99 126 106 105 139 152 164 147 197 163 154 106 95 140 179 204 189 171 169 165 147 152 197 227 249 260 248 239 225 212 187 149 138 73 35 70 99 91 91 84 78 79
58 83 82 100 101 95 112 80 111 121 161 137 185 123 187 197 188 192 222 239 220 166 113 139 183 231 267 245 239 237 226 191 148 138 112 94 70 90 100 94 91 97 83 68
165 157 135 123 125 108 62 82 90 173 103 194 190 162 194 225 257 251 242 210 194 123 112 155 237 272 256 249 242 230 203 183 152 112 98 75 94 120 108 109 99 88 73 75
144 125 75 130 104 61 52 43 82 125 93 131 190 225 277 296 277 249 216 155 106 92 86 159 211 240 253 248 236 223 210 157 120 122 78 116 127 118 115 106 90 70 76 89
111 124 121 94 83 51 43 48 76 86 67 131 209 243 273 261 209 139 118 103 90 92 128 177 220 249 255 241 229 218 195 151 133 105 115 124 120 110 100 87 75 67 81 94
153 141 122 127 100 75 40 75 82 103 35 182 204 209 187 179 137 125 101 76 88 119 150 180 203 210 217 220 205 213 176 154 128 124 130 120 104 99 83 80 65 77 91 101
146 114 115 128 83 23 143 142 105 92 157 186 180 160 133 108 97 85 67 67 92 117 141 162 196 209 210 212 216 192 161 140 141 127 106 99 104 101 93 69 72 82 90 102
110 124 107 118 93 109 131 146 174 121 99 99 114 90 81 75 54 40 38 55 78 102 126 159 182 206 210 215 208 171 157 142 112 104 111 114 103 97 69 66 78 95 100 116
87 101 125 130 121 129 147 219 165 136 139 116 103 84 78 68 55 60 70 78 89 108 137 171 189 191 194 204 188 169 134 106 108 111 104 102 94 65 69 86 97 109 108 105
87 112 119 132 146 190 190 197 188 197 163 147 132 88 64 58 55 69 82 90 105 134 155 177 191 193 198 179 155 127 114 118 114 102 101 91 76 72 80 91 96 92 86 80
68 69 90 61 76 153 132 193 185 180 144 111 80 77 78 71 62 81 89 110 136 157 193 203 195 188 153 136 131 125 113 106 107 109 97 78 75 86 92 93 103 69 46 28

GFSCGP_con_3kmhel_006.txt.gz
Helicity
84 174 120 106 148 135 89 52 33 44 77 111 83 54 75 86 36 40 47 66 73 90 99 106 110 127 145 169 160 125 109 88 73 91 121 134 148 152 154 141 147 140 129 141
106 82 118 108 92 152 73 84 35 48 64 83 104 38 72 76 32 45 56 72 83 103 129 147 148 159 166 148 130 111 105 105 93 83 113 116 132 154 147 139 145 136 121 108
111 45 124 95 128 93 104 80 61 90 96 86 60 62 42 44 55 91 76 92 98 105 123 147 172 166 146 137 108 101 98 99 91 74 67 73 87 97 102 100 89 98 94 82
86 103 73 109 101 71 91 138 103 94 123 85 101 79 56 49 37 38 77 110 147 143 151 148 153 159 135 101 79 80 77 78 82 79 96 114 104 97 87 83 72 64 74 73
102 97 146 82 78 42 108 83 79 97 121 86 34 52 80 88 44 37 77 127 148 149 146 138 138 124 93 74 73 63 67 88 104 120 115 97 88 63 55 59 72 73 65 62
57 -5 124 82 45 48 63 98 134 106 94 51 47 49 104 90 64 36 69 89 102 113 111 119 120 90 84 82 74 62 77 99 116 121 107 91 78 77 74 78 67 39 11 -1
21 180 148 114 135 182 105 113 163 107 98 80 64 55 62 23 21 -7 27 37 55 69 77 95 100 91 95 89 78 77 87 118 125 121 103 90 90 84 79 67 47 38 40 63
62 164 131 171 98 159 139 115 198 140 111 62 73 83 73 74 73 31 9 57 77 77 69 83 104 97 97 91 89 99 115 142 144 128 118 114 106 85 81 73 50 59 79 89
78 307 74 170 220 150 200 151 152 145 124 120 63 72 40 36 34 42 23 95 105 93 75 100 103 95 109 117 123 131 151 173 165 152 133 135 124 122 98 77 77 86 91 90
-115 232 165 239 204 260 126 138 155 134 88 103 73 83 79 63 74 47 46 82 111 106 106 104 103 112 130 148 156 160 190 217 186 173 163 155 153 135 106 96 106 108 106 111
90 258 294 80 124 142 211 190 177 137 112 85 84 57 83 107 99 65 37 65 117 117 107 106 116 133 157 169 164 191 226 218 204 198 179 179 168 147 123 118 118 114 123 118
143 114 175 208 142 75 59 67 75 115 91 132 160 59 52 66 54 48 69 82 94 103 110 120 143 169 171 181 191 213 230 222 229 214 201 202 165 131 115 117 135 134 134 117
121 146 172 149 145 178 120 87 37 64 121 55 80 66 77 70 74 50 43 57 89 113 143 170 176 185 197 200 209 241 231 238 236 225 222 182 147 126 112 111 114 133 119 98
168 97 76 91 94 105 90 66 52 63 73 68 62 62 52 48 44 41 35 56 95 128 156 176 185 188 208 212 242 253 255 242 238 228 197 156 136 119 105 93 125 110 101 89
106 119 76 103 91 19 49 88 98 75 77 68 23 24 14 66 77 42 58 120 155 165 170 167 174 200 205 243 259 267 260 251 229 191 156 142 115 107 109 120 115 110 100 90
94 124 105 82 84 47 55 73 87 78 47 29 49 27 66 112 88 97 127 185 188 168 147 157 167 177 212 235 251 267 269 234 184 173 158 132 118 94 119 125 114 94 88 85
50 81 101 107 98 93 83 61 61 64 66 63 53 7 92 110 105 115 167 180 173 162 159 145 142 157 204 230 266 265 234 210 195 175 148 120 95 106 120 104 90 96 106 86
33 67 94 106 123 89 83 102 42 57 61 55 43 68 62 87 179 237 245 216 216 207 164 132 133 182 223 280 259 253 237 216 191 157 128 110 109 115 105 108 113 117 111 96
87 117 65 28 64 90 46 36 64 91 34 57 22 103 137 223 279 285 281 265 222 174 137 112 137 186 232 225 242 246 235 209 184 138 112 113 111 120 119 121 127 113 109 99
152 155 119 171 64 58 56 35 37 44 45 44 117 159 220 252 182 213 233 211 180 132 103 113 160 178 196 222 223 223 220 218 191 144 135 123 123 110 114 119 108 101 98 93
133 83 58 63 81 76 34 33 45 70 53 58 111 173 219 206 220 194 152 121 96 101 92 129 137 155 189 207 212 230 236 207 166 133 136 118 107 110 111 100 97 97 93 94
76 81 69 83 83 31 63 108 65 83 78 77 128 178 212 186 155 130 106 92 85 93 115 112 139 180 209 213 213 234 211 181 124 133 120 110 113 113 102 95 92 98 87 85
128 134 98 63 57 83 99 111 109 52 77 120 163 149 131 125 101 85 90 90 94 95 107 132 166 197 209 215 203 205 193 143 130 123 118 115 105 102 96 97 87 84 85 96
96 158 89 118 78 93 98 138 152 138 158 153 146 130 102 93 84 91 95 89 82 95 120 149 177 201 215 209 190 172 147 130 123 118 111 104 100 99 88 89 90 97 87 84
131 120 116 128 110 129 142 172 186 201 196 196 164 131 117 99 81 85 80 75 85 107 139 167 176 179 184 182 170 142 135 124 120 111 97 96 100 89 83 85 95 88 74 73
85 98 114 81 82 128 100 164 183 211 200 177 150 131 121 107 94 82 80 90 100 127 160 166 170 178 187 176 158 139 132 121 101 93 106 106 95 91 91 91 92 79 71 65

GFSCGP_con_3kmhel_009.txt.gz
Helicity
137 265 189 101 76 140 81 89 85 50 -29 23 42 32 49 44 54 40 49 60 76 87 105 119 131 134 154 172 173 143 95 69 66 86 124 143 149 157 177 177 177 172 168 168
153 186 108 57 108 132 194 106 75 94 51 87 54 27 48 59 53 41 41 64 100 117 117 136 148 173 194 193 172 142 118 104 109 112 135 143 156 166 156 151 160 159 159 150
82 63 46 78 101 106 139 114 131 104 70 55 92 53 43 36 58 82 56 86 130 115 136 155 180 195 199 197 156 122 114 111 114 115 123 139 135 131 146 139 120 122 121 114
36 15 109 56 42 129 95 89 82 139 100 65 7 62 5 61 71 70 79 141 159 165 162 184 190 199 194 165 125 110 105 111 113 123 141 152 138 132 102 85 80 76 86 75
19 12 48 27 -16 73 116 4 131 126 108 168 65 90 74 27 61 81 55 125 161 177 180 183 188 187 171 130 109 98 102 104 104 110 110 109 108 77 60 56 61 62 59 43
-22 72 54 14 21 98 215 133 206 151 160 109 100 41 114 29 42 45 70 129 187 183 192 172 170 170 155 117 108 99 98 100 108 124 137 122 91 71 71 78 74 65 43 30
-42 53 97 12 1 117 115 182 311 244 139 119 71 71 50 76 98 61 53 100 118 139 148 135 153 154 130 118 121 114 102 105 115 140 151 123 107 103 99 79 76 66 50 59
72 25 48 -10 118 97 171 222 350 272 165 89 72 66 70 123 98 40 29 66 97 90 89 109 128 134 127 129 130 121 110 115 132 165 168 144 134 121 112 108 98 86 81 97
51 28 -18 120 129 103 181 49 208 277 250 109 52 79 37 67 66 61 46 82 95 77 83 103 129 124 129 137 136 131 130 148 171 198 183 179 173 162 139 129 120 100 98 98
30 58 69 213 220 246 229 141 210 304 191 152 57 67 81 45 51 31 39 76 120 110 109 120 121 127 132 149 155 154 164 189 207 225 212 208 199 176 155 142 124 102 96 124
57 78 190 186 242 145 280 204 253 211 239 160 76 77 121 79 52 30 32 78 112 137 133 113 122 136 143 145 158 182 192 212 237 245 238 227 211 188 175 150 114 99 81 135
72 10 263 337 207 79 57 86 111 145 113 229 215 96 75 81 69 42 42 57 95 125 109 116 141 148 140 149 178 190 207 229 263 260 244 235 216 193 173 139 119 83 116 151
3 61 264 264 201 218 192 109 40 115 146 72 88 71 65 49 41 27 27 37 110 88 119 131 162 157 155 168 187 210 226 254 269 257 243 233 221 198 160 144 109 113 139 147
118 115 141 130 54 99 99 85 68 68 69 84 63 84 49 52 49 53 29 29 64 79 111 140 169 167 160 177 201 225 256 265 264 261 255 254 236 187 152 126 107 113 143 134
98 135 114 147 138 13 9 10 34 27 16 47 41 39 55 26 48 57 46 24 47 97 129 154 167 162 174 191 218 239 268 259 265 278 278 255 200 154 124 107 93 125 129 116
80 112 127 88 92 80 33 14 2 36 24 9 21 37 91 116 131 89 65 64 80 100 162 161 145 159 179 191 219 245 251 272 276 288 258 205 158 127 107 90 108 131 123 103
64 144 109 80 56 83 74 47 40 28 3 25 33 14 71 75 82 67 59 89 102 137 137 127 124 153 182 201 197 211 254 278 280 249 214 176 137 103 96 115 134 120 99 89
69 88 128 106 88 66 93 94 10 27 37 20 22 37 129 69 56 96 158 123 172 185 165 156 164 174 193 202 209 270 274 260 248 225 193 154 101 92 116 123 112 103 104 110
169 91 85 103 92 116 60 30 60 38 -3 -22 -9 13 49 161 246 208 285 282 242 221 198 186 170 164 182 200 241 234 242 242 227 214 186 132 87 118 130 126 119 107 117 117
108 64 70 82 67 76 65 38 67 47 60 47 31 48 171 182 116 137 223 221 220 207 188 164 160 161 160 194 200 208 233 239 228 197 153 103 122 134 130 116 105 104 111 123
173 137 79 70 37 45 25 37 43 84 81 36 53 113 171 107 218 267 197 210 189 169 149 134 131 143 178 182 181 229 234 235 199 148 109 123 128 131 115 107 100 117 129 127
165 198 136 94 96 42 70 63 76 61 43 21 53 76 140 219 217 224 198 160 126 116 116 123 140 165 156 169 192 209 219 188 145 130 144 143 122 104 103 106 124 129 118 112
97 129 138 80 65 65 58 126 99 54 37 63 90 123 167 182 164 145 135 112 96 97 110 118 126 141 152 166 181 209 190 150 149 156 137 111 95 89 108 131 129 130 121 128
53 86 120 81 75 68 49 79 89 78 81 97 106 126 125 138 120 117 101 96 101 102 99 101 117 138 168 177 181 177 175 156 154 130 109 100 102 108 107 124 127 141 139 144
111 105 86 125 83 82 65 93 138 148 150 170 179 163 144 128 124 118 119 116 107 91 96 100 128 158 189 160 178 178 152 138 122 109 109 108 113 111 108 112 127 135 125 146
61 80 101 46 44 90 75 125 141 164 184 196 207 207 194 147 140 128 120 102 91 98 113 130 165 185 183 174 171 151 131 114 110 119 121 116 112 110 114 130 140 99 85 110

GFSCGP_con_3kmhel_012.txt.gz
Helicity
128 184 160 156 128 96 141 147 99 114 97 64 36 36 40 67 74 52 66 73 170 197 121 89 103 127 171 149 138 141 142 120 120 177 235 244 232 225 237 229 207 211 207 185
157 118 70 92 81 78 76 113 142 89 89 16 28 60 28 63 41 66 81 72 208 264 137 118 133 163 183 206 231 244 250 225 231 218 198 181 175 183 174 183 186 169 164 144
159 126 68 94 88 103 82 71 79 122 46 102 105 72 62 52 51 101 72 113 296 281 175 154 191 199 221 235 230 198 186 198 208 215 201 162 134 149 156 133 110 92 89 92
113 74 90 102 107 131 84 24 48 85 77 165 123 89 30 28 33 83 114 130 339 328 215 188 200 235 254 242 205 181 160 136 105 87 75 109 121 127 92 68 44 50 64 67
186 145 89 79 105 136 143 88 42 110 76 185 172 87 37 78 55 133 132 111 359 400 270 257 239 249 246 230 203 181 189 195 173 158 146 136 131 102 68 54 53 39 40 51
58 84 58 56 42 69 112 88 27 -8 114 113 76 77 111 104 157 134 136 210 340 394 328 301 281 277 246 212 184 161 177 180 167 173 173 163 145 110 80 64 54 56 52 53
31 18 54 59 16 20 64 59 13 13 151 110 124 115 81 145 198 96 154 276 373 428 343 310 271 242 216 197 161 149 154 163 150 170 186 189 168 132 120 102 79 70 55 49
-58 -97 -19 13 -33 -25 -13 30 155 207 335 365 89 131 87 113 131 163 195 282 361 333 275 222 221 211 192 165 136 144 150 156 157 172 182 188 177 149 140 124 97 87 79 70
-81 22 -29 -64 -103 -6 -119 -133 -102 105 65 334 299 253 189 159 215 121 167 251 254 215 198 175 184 195 182 159 140 149 164 174 176 179 193 211 208 199 168 159 140 114 106 92
-15 42 -16 41 29 3 -5 -42 10 188 143 124 108 122 100 106 112 131 159 197 204 168 160 152 185 195 183 159 169 168 169 185 198 221 228 241 232 213 198 180 152 132 116 100
-42 59 6 25 -25 4 49 86 231 124 152 247 263 187 95 67 79 51 118 182 200 184 187 202 196 199 206 207 178 194 214 215 228 244 265 269 247 228 210 184 158 135 119 101
36 106 -12 -20 70 114 67 113 313 292 204 245 211 206 159 123 83 60 39 165 218 214 228 221 225 255 244 194 195 201 198 228 249 273 282 273 252 238 221 192 164 145 124 97
79 75 17 96 215 248 145 119 167 316 167 221 269 142 68 84 72 39 40 165 230 248 225 212 255 246 205 190 200 206 223 263 262 283 285 274 265 252 220 191 158 138 116 103
-3 136 29 121 76 159 117 118 137 168 182 213 192 109 61 61 56 46 48 99 199 248 207 203 233 229 201 208 213 230 274 275 283 299 302 292 268 233 203 165 145 123 108 100
75 43 107 102 91 64 19 -16 47 62 70 127 111 76 41 49 36 37 49 107 163 168 179 191 239 219 209 239 249 261 289 283 268 285 295 276 240 217 175 150 125 102 90 97
51 69 266 68 112 66 40 43 66 45 65 51 35 85 64 73 86 87 79 100 119 121 184 227 247 209 227 253 271 299 297 285 273 280 276 254 225 188 155 118 87 77 91 100
22 50 130 72 68 93 106 54 36 38 61 53 31 28 122 165 135 95 85 110 145 156 191 220 227 210 247 263 301 293 285 256 271 277 258 220 197 163 116 80 87 94 92 96
42 39 83 74 65 32 58 58 47 64 72 36 33 60 94 116 231 308 214 224 245 243 242 224 227 255 292 328 304 294 272 253 269 241 212 199 166 148 85 92 86 87 98 110
61 65 66 77 75 108 45 37 49 63 67 45 38 32 158 229 278 265 366 369 341 329 298 262 274 309 347 328 323 295 263 246 212 216 201 184 177 112 93 86 90 101 113 118
135 149 113 103 83 63 74 41 63 86 84 81 37 73 245 276 217 166 262 351 353 349 309 305 300 310 299 280 258 246 207 198 204 185 183 157 101 79 83 96 110 106 112 113
149 153 24 56 66 70 18 -18 48 79 74 80 108 150 249 284 154 225 300 305 263 244 248 236 223 210 198 188 178 214 204 190 178 161 133 93 74 81 90 111 107 104 101 122
140 124 71 90 33 1 56 48 38 29 51 53 93 186 306 274 285 288 247 223 214 200 180 169 193 188 165 154 197 185 178 161 141 123 97 71 91 99 105 98 97 93 114 123
90 110 114 76 23 14 51 50 74 45 30 75 145 170 204 217 211 200 186 171 135 118 116 135 152 162 152 159 154 176 151 137 120 92 99 121 117 104 90 88 96 115 114 129
76 29 105 103 69 69 64 70 61 72 108 146 144 161 161 165 148 155 141 119 105 91 97 125 129 127 145 168 187 155 135 119 105 127 132 119 108 85 95 100 107 119 123 121
107 115 58 102 86 99 82 66 132 201 206 209 209 173 161 164 139 117 100 90 85 91 90 99 97 115 133 129 141 140 127 122 142 137 124 104 96 101 100 105 108 114 106 99
65 63 104 37 68 73 58 120 185 196 201 224 246 242 195 177 167 151 132 109 103 100 83 96 131 182 141 142 149 127 129 135 136 130 100 92 104 104 109 119 123 81 67 62

GFSCGP_con_3kmhel_015.txt.gz
Helicity
144 243 302 165 124 173 135 149 142 108 89 100 95 105 42 26 86 75 109 99 206 239 154 104 113 122 121 122 129 152 227 331 417 425 388 397 325 326 293 260 241 224 187 170
190 181 123 120 96 127 102 107 52 69 94 91 91 79 55 50 52 38 83 102 257 301 201 145 167 179 189 164 166 210 262 301 296 281 252 254 255 255 227 201 193 160 143 119
162 196 79 127 115 117 100 102 64 69 88 69 41 58 37 42 99 91 93 101 285 316 249 222 240 218 226 230 219 223 250 267 241 221 235 252 260 219 181 157 127 107 102 88
111 57 110 107 96 115 105 57 47 48 61 50 87 65 28 29 105 107 98 181 328 353 306 304 301 231 223 242 239 248 246 227 190 172 174 142 117 123 107 99 74 75 81 79
255 143 108 101 79 115 76 72 70 42 24 18 56 54 -5 91 58 104 75 229 310 400 367 353 324 269 267 269 272 253 230 193 150 151 130 129 137 130 123 105 95 85 81 67
139 214 147 115 80 89 102 108 90 43 37 7 -17 73 4 87 58 -12 148 212 349 379 395 406 370 344 314 288 281 275 264 225 200 176 145 144 153 161 163 131 114 73 43 38
248 102 161 142 143 130 129 136 136 40 75 6 -84 17 80 87 52 81 183 238 367 412 477 482 405 363 301 278 265 253 252 242 227 221 199 183 187 196 172 134 100 83 63 51
176 132 143 133 105 147 140 174 237 135 30 -50 -12 12 19 52 -5 150 266 334 460 463 451 396 342 330 281 259 241 232 227 225 213 220 221 217 214 201 176 148 128 115 93 71
-60 -4 80 96 164 135 89 131 32 113 14 15 135 183 160 166 198 238 294 357 378 441 425 345 300 259 229 223 208 203 207 208 198 205 232 238 226 217 194 180 159 131 108 91
-49 -72 -112 -84 86 29 43 85 58 49 -24 -7 100 113 122 219 223 237 292 343 343 394 351 277 231 221 202 190 206 208 195 192 189 217 232 240 237 226 215 202 177 147 119 103
-23 -35 -48 45 15 -16 -49 -53 -50 -27 -25 187 142 202 144 151 173 208 230 268 312 298 274 236 192 176 190 217 217 207 206 216 222 233 246 262 256 248 232 202 168 139 120 110
98 6 158 316 66 12 52 -82 -200 -217 -13 53 146 215 128 134 129 153 148 179 224 269 249 220 192 210 238 228 228 215 227 232 227 240 262 272 267 261 233 198 165 137 124 109
88 98 109 11 -6 -5 -80 -53 -118 -136 101 379 190 229 175 96 57 98 158 179 230 264 251 233 231 238 239 243 240 231 239 244 250 265 283 286 278 254 218 183 153 137 124 114
3 53 74 -9 -24 -7 -34 -32 -107 -71 79 199 111 154 121 69 45 41 117 190 240 247 253 275 261 231 222 228 234 245 253 257 264 281 289 282 257 222 187 169 145 121 105 103
27 66 86 43 34 26 18 31 88 144 155 217 86 51 -15 -9 -9 2 63 165 235 245 273 294 272 246 231 230 246 273 277 261 269 297 278 257 221 195 185 158 122 95 105 110
32 142 186 337 20 -3 29 47 -4 69 75 69 56 75 17 7 89 59 74 119 163 205 242 275 267 237 216 237 275 291 268 248 271 263 249 216 204 202 171 136 91 100 109 99
2 48 131 170 53 29 12 13 -8 -13 56 62 90 114 99 88 47 46 67 98 149 197 249 272 262 233 226 258 295 290 264 249 243 232 211 209 208 173 143 115 100 105 96 92
6 22 82 91 69 45 56 63 24 36 38 53 39 109 117 174 215 174 71 117 135 189 240 265 249 248 290 329 317 298 262 247 230 216 205 191 167 150 143 114 103 99 91 91
-3 2 29 44 52 77 65 66 52 68 60 73 71 70 109 186 390 387 297 218 192 239 281 312 296 316 355 346 322 298 251 223 205 190 181 167 153 145 121 112 102 89 94 105
61 46 -5 32 9 34 63 68 42 52 77 106 127 122 160 156 180 195 296 365 441 456 403 398 380 372 370 295 280 262 217 195 191 169 152 143 137 119 108 100 91 91 99 114
96 56 22 8 25 35 10 45 32 60 47 59 49 63 171 216 103 222 272 341 329 325 353 330 304 276 228 235 238 210 195 178 153 148 142 133 121 104 85 84 86 96 117 124
127 104 82 29 -7 12 30 32 41 13 38 49 75 157 300 245 271 296 288 260 256 257 235 212 216 194 172 183 206 195 180 141 145 139 129 116 102 81 80 84 98 112 113 112
67 98 75 34 19 5 29 48 40 25 25 16 77 107 212 247 239 240 242 226 196 179 165 152 163 178 161 165 167 155 122 134 132 128 129 108 87 81 91 104 106 105 104 118
19 45 35 73 10 37 51 49 60 55 56 73 95 108 148 182 161 181 170 151 128 110 109 121 155 175 174 144 145 147 130 132 138 128 102 90 97 108 108 101 93 96 109 119
52 110 59 62 32 59 60 34 83 132 137 154 132 122 121 148 127 119 108 96 84 93 103 120 129 129 134 149 157 142 136 127 119 103 99 110 110 111 99 89 87 102 93 99
79 94 116 75 65 49 65 88 149 187 148 138 181 187 145 127 120 107 90 70 76 96 92 101 104 122 116 144 150 129 112 105 108 119 118 106 104 98 96 100 104 80 85 76

GFSCGP_con_3kmhel_018.txt.gz
Helicity
247 250 199 148 123 143 145 148 123 185 180 115 146 54 52 33 22 96 82 58 70 111 145 145 141 126 155 159 156 177 277 360 468 486 431 443 339 290 312 266 235 220 186 162
246 211 145 97 101 138 135 132 107 99 72 103 92 42 83 60 9 54 66 81 95 184 187 196 169 155 140 150 167 218 268 350 410 410 376 376 326 273 263 249 254 205 172 150
158 176 84 133 124 150 128 120 111 110 77 58 85 62 44 29 36 21 25 107 172 194 211 206 210 191 178 171 167 200 230 274 329 359 389 393 354 301 275 244 215 178 145 125
153 106 176 116 124 137 133 115 89 91 101 139 177 64 63 76 44 62 31 58 132 234 282 314 285 257 223 200 190 205 220 246 252 255 269 249 242 224 163 159 152 150 137 117
236 161 99 76 94 98 107 91 90 74 91 94 64 134 -50 52 68 78 23 67 137 275 330 339 299 293 276 249 238 237 241 229 198 198 205 198 204 178 165 168 162 146 126 104
205 212 166 161 84 132 142 82 105 116 116 153 40 124 -44 15 71 82 84 87 172 290 385 428 413 393 345 320 288 255 252 220 179 178 168 175 179 178 180 150 143 120 102 86
229 179 319 205 162 120 132 148 206 189 203 216 16 83 86 74 54 77 72 129 216 321 463 457 426 388 356 356 320 277 261 218 187 196 181 166 167 167 170 151 133 117 90 76
183 201 230 192 168 193 135 156 259 199 175 38 91 95 57 -132 -15 56 22 82 336 354 421 483 438 418 395 389 351 303 272 255 233 221 205 198 201 203 194 174 159 133 103 85
118 113 185 120 160 131 115 132 52 161 129 80 57 -13 -13 8 48 -12 30 129 325 522 483 433 419 397 382 358 315 305 281 266 255 245 238 233 230 238 230 210 180 147 128 115
-28 29 39 155 146 106 112 120 176 167 111 69 -62 -102 -43 13 32 -37 85 230 359 400 441 418 388 340 321 315 308 287 245 237 233 246 244 241 249 255 238 211 192 170 148 141
69 72 11 137 78 28 79 59 133 100 71 5 -144 -130 -33 -13 -18 135 99 211 312 354 411 379 309 293 311 301 271 254 243 257 251 252 263 268 263 255 237 219 194 172 155 149
152 8 59 120 123 10 19 -49 -11 -64 -111 -109 -26 -165 31 25 83 161 113 171 246 327 362 313 269 271 262 233 240 233 233 241 233 251 267 271 260 248 241 223 192 163 158 145
171 72 140 83 67 96 -14 -17 -34 -10 -38 -141 -93 -12 -68 78 125 128 217 219 247 286 268 240 236 223 211 208 225 226 227 240 245 261 272 263 252 246 233 210 180 175 166 140
66 41 206 191 7 -9 -49 -6 -43 -50 -171 -131 -82 75 172 135 110 108 142 191 209 210 224 223 207 196 188 201 230 240 250 243 251 258 255 245 234 232 219 204 199 183 148 128
90 67 155 276 168 34 30 26 -17 -92 -176 -174 118 62 22 37 3 33 109 164 177 172 182 196 201 191 208 227 238 256 258 257 252 249 230 219 228 228 225 218 194 161 133 137
127 303 315 124 42 -4 19 18 -53 -148 -339 -208 135 315 42 57 78 63 70 115 121 147 172 190 205 211 194 224 264 278 272 254 227 211 205 217 229 226 212 197 172 152 150 147
107 137 251 105 -5 -69 -45 -23 8 -7 26 16 105 195 48 31 12 16 42 61 90 139 198 222 223 202 206 238 247 246 238 219 212 205 204 211 211 203 194 177 170 157 146 137
82 160 225 197 52 51 47 150 308 229 121 147 187 93 59 53 89 106 82 23 45 116 173 211 235 231 233 250 259 275 245 211 193 194 196 192 191 198 186 173 158 141 133 123
83 60 73 58 65 61 33 16 48 98 59 17 -24 79 108 141 152 136 105 55 102 159 195 227 249 278 286 284 275 278 226 198 193 180 179 191 193 182 162 154 150 136 129 117
-2 26 1 8 17 22 29 44 35 33 24 44 61 67 96 145 148 111 132 144 222 267 264 304 302 303 310 283 290 249 190 189 186 186 191 184 167 157 154 149 153 116 106 87
29 1 0 8 1 52 37 55 30 51 45 70 67 98 132 136 99 200 206 288 298 299 320 315 304 298 284 263 246 227 208 193 184 192 182 164 155 156 151 137 120 98 93 92
46 42 36 10 -14 5 35 38 48 27 31 39 30 48 172 183 272 291 277 289 296 323 319 316 327 273 227 223 237 213 204 183 186 174 167 163 163 156 140 133 106 93 90 96
42 65 27 22 6 -8 41 48 26 17 12 9 19 78 208 258 247 230 229 243 258 264 267 246 254 234 193 185 202 217 167 166 166 168 178 174 160 159 134 112 89 92 103 111
28 47 16 -2 -11 -20 -12 28 59 56 43 36 38 65 130 217 184 212 213 205 200 182 187 174 191 184 183 180 177 170 145 150 163 183 176 170 161 136 108 90 95 100 106 116
46 56 51 -12 -30 24 27 22 47 79 91 112 105 90 123 176 146 134 140 141 129 129 131 143 160 164 160 154 165 155 151 157 178 175 164 149 123 103 102 108 95 107 106 112
64 65 83 68 65 52 55 63 77 94 76 86 129 129 119 119 123 114 114 91 104 125 123 149 147 154 130 152 165 153 146 150 161 154 133 109 103 107 112 111 118 113 106 95

GFSCGP_con_3kmhel_021.txt.gz
Helicity
246 280 302 203 196 160 123 117 117 130 135 110 73 7 27 5 23 81 26 52 32 31 67 79 134 139 139 142 181 219 300 345 427 461 482 427 423 378 361 287 236 218 206 184
295 232 219 205 171 145 128 121 109 73 45 102 94 26 19 29 35 51 59 36 42 32 57 100 145 154 139 141 162 226 297 363 424 442 427 409 400 329 291 243 251 242 210 170
210 233 151 189 162 172 147 133 124 111 92 69 65 -22 21 35 67 63 41 62 57 48 99 150 171 154 163 148 164 205 262 345 409 462 481 490 424 380 284 251 271 245 196 163
172 150 155 154 162 167 114 100 89 96 108 128 139 -47 -18 70 98 104 57 77 83 129 120 203 236 204 181 150 181 207 233 274 309 343 375 309 281 269 219 238 228 212 179 159
237 166 131 152 143 120 139 93 95 101 127 132 142 176 -162 -74 92 91 84 104 85 91 132 193 222 200 190 204 194 204 226 234 241 260 291 314 331 302 273 245 233 205 183 160
202 150 180 182 102 115 156 79 97 121 147 205 129 169 -123 26 64 92 83 107 93 118 107 210 332 300 281 251 240 228 234 233 219 224 239 257 284 271 251 206 200 175 161 154
221 173 249 206 163 115 105 161 251 256 296 323 226 152 143 75 82 79 54 96 112 136 216 304 328 314 282 260 266 265 259 254 220 216 210 231 237 210 189 164 160 157 150 138
235 238 196 239 248 234 178 197 308 317 297 180 73 162 178 -10 -2 43 121 71 94 175 211 284 346 362 326 307 296 295 298 290 247 235 223 217 211 198 185 168 172 175 165 153
181 179 189 114 282 326 239 169 123 282 228 178 152 123 6 27 33 78 74 80 146 144 199 279 403 404 374 349 329 325 335 322 282 267 244 225 222 220 205 210 214 198 183 154
116 102 31 -17 54 88 146 96 146 202 171 152 97 43 29 -16 -1 69 87 80 114 172 210 300 410 451 410 378 372 361 320 295 286 284 253 239 238 234 232 234 225 211 188 172
48 41 37 98 132 144 123 129 234 193 164 149 46 -4 -60 -11 18 81 63 93 155 203 301 366 435 413 421 404 362 361 328 322 306 291 280 272 263 258 252 245 229 213 197 191
61 53 94 169 174 104 142 100 149 199 160 79 -28 -143 -22 -17 -13 30 147 96 27 171 284 377 456 422 381 372 341 338 318 315 285 280 284 274 261 253 254 241 230 219 216 198
143 116 144 143 162 158 116 116 104 19 71 -73 -89 -92 7 -57 50 2 137 123 149 196 258 315 346 330 344 338 325 296 277 282 271 283 284 270 256 245 237 240 236 226 219 195
173 137 312 315 149 87 152 76 1 -16 -64 -32 -90 -84 -98 -1 28 110 -11 124 172 188 222 251 285 289 292 280 273 257 269 261 262 270 264 250 226 224 232 234 239 237 212 202
138 185 289 351 446 238 47 123 52 78 109 46 4 -90 -123 -51 65 128 74 146 186 161 158 195 231 234 250 252 244 245 255 255 252 254 238 220 223 228 234 246 245 226 215 200
256 353 343 349 199 179 64 18 98 81 24 30 -15 -195 -4 278 123 -44 134 93 108 93 124 161 196 211 208 212 221 243 245 233 225 220 219 216 222 227 241 243 227 220 211 190
277 183 217 135 -21 -25 39 79 181 92 16 71 3 71 286 275 82 73 130 80 71 81 124 159 179 192 201 212 243 230 214 219 219 217 207 210 213 225 228 227 231 220 185 153
198 173 165 161 64 22 18 -44 75 100 22 4 -9 70 185 233 158 46 36 36 36 77 109 138 180 203 217 225 226 243 219 210 216 217 208 199 206 219 222 227 215 173 161 162
172 87 91 73 103 53 61 129 78 154 236 169 70 107 217 20 46 23 43 43 68 118 143 171 189 228 223 233 237 260 233 223 215 201 190 186 197 215 220 201 185 178 159 135
46 57 31 36 58 33 11 48 125 128 100 197 143 13 97 -15 -22 27 61 61 111 163 189 225 225 246 264 231 255 266 228 220 199 172 181 200 214 204 194 195 181 136 118 110
40 48 58 17 15 57 27 -30 46 -9 43 27 127 124 106 42 48 92 131 190 192 192 214 224 227 247 243 252 275 264 221 188 174 198 214 214 208 207 194 172 140 129 119 110
27 18 19 17 0 9 34 20 -2 6 16 21 20 81 154 115 166 217 245 227 209 234 240 250 298 284 256 252 277 243 210 186 204 214 225 226 219 194 164 166 138 121 114 112
26 20 14 25 13 12 39 -2 11 8 11 13 -12 22 134 151 168 181 198 214 232 243 257 250 300 301 253 225 213 224 181 205 229 242 229 210 191 176 165 144 129 113 108 92
29 45 62 25 4 29 48 48 30 46 36 32 26 56 112 185 175 203 212 220 243 240 252 248 283 269 231 198 213 220 206 216 226 229 216 195 176 156 141 127 107 94 87 99
20 42 64 80 49 47 22 41 58 77 50 61 74 63 137 229 186 178 194 203 201 203 198 189 200 208 210 218 230 200 192 200 225 205 178 167 152 144 127 106 82 89 88 95
38 47 79 43 17 21 22 30 50 72 55 52 91 122 129 138 144 140 151 124 125 142 141 177 186 204 184 203 210 200 185 177 181 176 158 144 134 121 109 105 107 98 95 103

GFSCGP_con_3kmhel_024.txt.gz
Helicity
173 188 222 173 156 185 167 162 120 133 141 81 102 52 18 0 19 27 25 43 35 96 104 74 54 86 134 137 153 145 226 296 423 473 472 420 382 385 392 354 311 271 188 184
228 154 179 181 184 160 150 147 134 104 85 96 63 10 24 12 29 22 34 32 19 56 54 63 57 93 145 123 138 164 213 299 377 434 467 438 394 394 391 342 299 209 189 204
189 189 131 194 243 203 172 165 144 118 135 106 78 -78 7 31 59 91 96 91 59 53 59 23 76 87 132 108 138 177 217 307 384 455 522 553 460 461 376 290 247 205 211 212
118 121 178 206 209 194 138 159 107 112 132 125 76 -42 -18 79 84 90 112 119 109 107 141 54 69 116 112 125 133 164 229 300 338 404 445 431 367 305 261 252 241 237 223 200
166 143 139 154 158 241 241 146 132 136 165 141 149 189 -66 -74 29 67 105 108 108 121 150 109 111 126 175 161 159 165 232 249 294 361 364 386 373 283 313 284 276 248 230 196
132 157 192 203 132 171 177 167 172 160 145 172 131 185 -110 27 -17 13 91 124 97 99 157 136 162 240 234 182 171 183 214 222 248 285 300 305 333 305 297 263 268 233 207 182
180 144 243 240 226 150 152 251 261 221 310 293 78 62 144 69 28 17 75 120 116 96 158 193 212 223 229 182 183 195 204 213 215 218 244 251 257 276 273 250 223 200 186 164
197 185 144 196 198 185 184 221 290 333 278 187 102 124 97 -25 -9 -9 29 83 127 127 146 159 189 214 223 224 212 210 210 250 209 219 248 266 287 279 236 208 203 200 178 159
138 132 149 136 103 145 221 228 142 206 195 182 198 142 65 6 67 67 74 78 76 97 115 138 195 212 263 266 254 249 264 297 254 255 265 280 287 267 242 237 230 208 186 169
165 134 161 141 112 73 161 189 206 234 208 221 145 117 70 159 114 102 117 144 89 131 141 168 177 268 302 318 369 322 291 300 297 291 290 290 285 280 265 252 233 216 204 193
133 126 120 164 187 245 222 242 186 229 233 216 170 76 19 79 -1 50 77 84 139 163 134 214 269 304 380 397 357 355 345 354 354 317 318 326 315 296 284 265 233 216 207 201
156 153 108 117 173 114 167 188 204 255 288 239 235 14 113 -6 -20 -20 169 134 82 156 184 226 272 331 356 362 327 339 349 375 354 316 323 323 308 292 285 261 236 218 214 207
162 152 78 135 148 232 329 316 200 98 177 61 149 51 -121 -21 -127 -150 -32 110 173 187 209 292 286 315 358 336 345 334 343 384 357 333 323 308 288 277 263 252 235 221 213 211
124 167 234 322 300 356 454 263 294 287 29 35 142 57 8 -97 -198 -30 -69 104 176 147 139 166 222 295 325 304 332 333 359 356 333 314 293 275 255 252 247 230 223 220 213 213
171 192 291 610 662 505 558 427 207 328 415 227 152 76 60 -126 -116 -61 41 144 322 236 138 118 161 213 261 302 311 310 324 322 284 276 260 248 246 241 233 232 228 222 218 206
222 293 316 566 344 181 382 318 282 289 277 281 173 103 -39 -79 -176 14 370 309 329 236 108 84 120 164 217 252 272 299 294 255 229 233 238 228 230 231 235 231 219 217 210 192
171 231 316 294 141 41 34 158 246 245 285 206 179 165 32 -24 -15 456 310 143 154 83 54 37 73 135 185 212 243 234 208 205 222 230 216 212 224 237 227 217 211 206 193 162
177 190 196 267 131 60 87 39 88 147 114 184 185 57 52 291 301 230 181 175 175 100 45 49 111 166 193 216 220 226 205 201 214 215 214 216 219 227 216 209 201 186 164 161
233 146 127 74 112 142 133 150 90 81 132 99 322 375 368 251 235 275 174 114 114 94 80 96 113 164 189 201 210 241 230 230 229 212 199 192 203 203 195 196 184 164 159 137
67 31 45 40 76 53 142 52 86 164 278 382 287 221 201 153 153 153 118 57 75 125 138 143 148 183 214 195 233 257 228 221 203 181 190 193 196 195 191 174 166 142 122 118
13 63 83 41 40 60 68 51 61 81 103 55 102 154 37 71 71 90 61 36 46 95 144 159 161 176 191 216 248 259 225 198 191 215 225 224 204 192 171 159 129 130 131 116
18 16 23 26 7 17 8 6 15 87 73 51 25 8 27 57 22 14 57 75 79 120 160 181 233 233 208 224 268 251 227 207 237 250 237 213 192 174 149 152 137 128 114 99
24 24 13 44 28 12 6 15 46 29 53 32 0 12 46 77 32 74 100 116 106 158 208 199 244 260 236 219 228 262 219 250 246 234 212 191 177 163 149 147 125 104 97 99
15 31 33 22 -2 2 -14 17 -8 20 16 8 -5 30 71 131 133 115 77 136 178 190 207 205 258 264 259 254 266 247 217 220 222 213 187 166 165 163 137 114 104 102 104 108
19 30 40 55 26 -2 46 11 26 27 27 41 57 53 100 163 92 66 125 151 167 187 199 208 239 254 253 256 261 213 186 188 202 189 175 170 145 127 118 103 93 101 89 89
59 45 49 36 -12 19 18 33 46 46 56 69 64 111 108 103 119 125 152 126 129 153 161 223 236 256 239 237 206 175 157 165 179 173 141 126 119 108 109 114 110 101 90 83

GFSCGP_con_3kmhel_027.txt.gz
Helicity
123 108 104 89 115 121 129 106 79 117 126 65 63 22 55 58 47 30 33 44 69 82 145 190 195 173 116 118 105 105 139 147 251 334 424 417 382 370 394 384 360 336 268 224
133 81 77 78 105 86 93 87 85 89 101 103 53 -41 13 58 88 86 57 56 59 65 70 119 150 177 139 109 126 143 129 149 205 282 398 446 456 398 393 407 361 307 188 212
141 104 91 89 127 78 116 121 107 87 100 94 60 -36 -41 -15 62 100 96 71 66 79 89 87 91 129 168 115 120 157 137 162 238 360 521 560 480 462 428 406 364 286 245 217
91 86 131 143 128 121 86 152 123 131 134 110 132 17 42 39 27 75 103 97 82 88 95 100 109 131 139 127 148 138 131 191 253 317 390 434 397 361 311 342 305 221 222 201
107 85 98 76 79 184 163 135 141 146 157 134 113 165 16 60 29 44 50 40 59 88 100 101 105 140 149 170 161 160 146 173 226 263 319 409 371 335 387 377 349 277 255 207
109 145 150 122 112 120 185 189 149 168 173 217 174 158 -11 5 -61 -41 28 54 88 59 99 85 93 129 160 205 171 147 150 179 218 261 293 350 403 385 374 331 281 214 223 205
114 86 181 189 148 159 168 186 236 229 283 326 140 81 187 90 53 33 35 64 92 102 76 95 119 139 159 207 171 163 160 177 207 238 279 309 338 293 274 278 270 247 241 199
87 98 60 94 71 107 200 214 263 235 242 169 174 190 137 -55 -69 4 44 72 82 66 56 78 100 142 142 209 206 176 165 190 190 226 270 306 304 280 293 287 257 229 216 194
113 84 88 83 110 83 220 206 110 172 133 144 220 197 138 57 32 66 84 46 52 62 59 88 75 136 160 196 207 204 213 210 220 235 304 300 278 272 267 274 259 244 226 201
133 110 100 113 142 95 151 191 227 301 265 252 302 241 216 97 31 -36 47 29 108 115 104 87 80 128 164 184 221 230 217 243 245 262 258 274 272 289 308 274 259 239 222 194
86 143 155 190 162 169 211 227 283 272 333 346 282 219 210 51 71 70 98 40 -9 126 145 129 113 152 205 254 251 266 285 291 292 302 316 338 337 329 292 269 245 229 209 181
74 143 118 193 227 240 228 322 293 315 338 442 414 135 162 133 19 -58 -145 -0 -41 21 86 128 151 169 211 277 289 285 325 323 320 334 376 380 373 335 297 261 236 208 205 187
130 150 11 38 104 159 373 480 507 380 321 375 369 158 84 123 38 -114 -140 -129 -61 21 121 135 127 149 213 276 300 309 349 350 357 365 411 387 347 313 275 239 218 208 196 185
127 187 198 221 271 327 472 525 547 382 249 251 371 258 102 53 -49 -91 -158 -153 -17 108 217 164 140 163 204 259 331 348 370 361 356 352 365 333 288 267 239 224 213 197 183 178
190 202 201 392 540 508 403 389 394 531 451 281 296 286 200 128 43 -3 -90 -59 21 292 225 127 99 141 207 257 296 306 325 323 314 339 325 283 267 253 237 221 205 197 195 190
153 158 153 372 387 345 274 151 218 353 326 319 297 362 140 99 45 -28 -59 -15 287 382 213 117 108 139 187 214 247 276 310 318 310 314 287 247 240 228 216 206 203 205 198 175
82 97 147 281 176 159 86 76 123 175 264 246 293 207 18 -15 15 -2 -18 223 612 464 198 87 58 77 126 169 215 246 268 285 294 283 230 217 212 211 205 201 201 192 173 143
109 102 148 241 192 159 154 112 73 139 118 193 212 189 89 54 130 474 554 666 512 221 140 51 34 52 120 171 218 252 251 258 262 233 207 191 200 206 199 197 184 162 136 133
204 174 126 121 153 197 210 203 105 78 179 217 247 225 315 514 484 360 184 208 183 144 71 35 42 85 124 166 204 244 239 229 208 183 175 176 185 194 180 172 151 136 128 121
26 100 102 59 118 77 156 86 161 203 237 206 282 299 270 282 214 156 149 118 103 104 74 73 83 121 158 155 195 230 204 189 177 168 179 181 171 160 150 141 137 123 119 119
-23 21 66 97 84 86 91 88 83 112 128 133 140 154 147 140 135 177 161 97 78 55 54 69 96 112 128 152 197 209 182 184 192 211 200 178 155 151 138 134 125 117 122 115
-18 4 -10 25 47 42 50 44 44 136 139 86 35 22 26 17 27 32 5 -10 28 71 80 93 147 147 128 151 211 217 230 205 215 198 182 162 147 142 137 134 121 127 110 101
13 -0 -3 39 51 34 37 84 94 70 112 85 10 -0 51 35 9 17 40 64 77 86 107 120 192 220 184 172 215 272 196 192 194 188 168 167 159 140 125 131 119 102 97 91
17 34 39 30 5 28 7 7 18 -1 10 13 -16 2 42 60 37 45 76 103 137 164 147 147 207 243 248 234 242 226 176 174 185 186 158 134 137 140 130 110 97 94 82 82
18 32 32 29 22 28 20 28 1 12 7 14 7 19 50 89 79 80 114 143 157 153 148 160 218 243 239 232 229 177 164 174 176 153 137 140 138 121 103 99 86 79 75 83
48 60 62 15 3 4 -12 11 16 24 23 40 46 98 110 95 97 116 130 117 128 138 135 200 229 250 222 225 197 156 132 139 147 148 132 117 106 101 100 93 90 100 113 106

GFSCGP_con_3kmhel_030.txt.gz
Helicity
66 64 53 21 27 38 69 63 40 43 48 35 8 -0 23 30 28 43 47 51 60 69 96 136 251 228 198 180 159 122 105 96 126 160 159 208 304 315 352 371 286 294 240 260
55 33 18 37 36 29 31 38 43 50 45 49 37 -24 24 22 22 38 49 56 43 46 62 82 113 212 222 231 177 159 128 117 122 163 170 200 320 417 444 460 313 308 318 226
38 64 34 6 20 23 24 39 45 32 71 76 45 21 3 67 69 36 13 39 60 63 62 75 95 116 181 229 235 174 152 137 143 144 239 335 436 484 519 427 392 351 312 258
26 36 84 67 51 44 47 86 50 73 96 90 110 81 106 118 87 48 28 45 65 78 61 54 70 102 129 177 212 192 162 157 162 202 185 226 370 489 382 340 349 337 285 253
75 47 38 36 7 56 91 82 86 101 104 121 108 175 104 97 82 91 48 3 13 40 42 79 76 78 117 140 163 190 158 160 165 136 146 196 302 425 379 362 369 357 249 183
70 111 96 63 51 59 146 98 60 77 115 168 86 157 93 72 67 -33 48 202 165 129 96 70 77 100 103 144 155 163 161 163 151 134 140 191 316 413 326 358 416 343 237 204
75 33 99 123 115 104 88 130 111 97 146 184 184 126 208 165 144 70 66 38 40 45 75 122 95 80 106 157 152 162 149 162 142 135 144 188 261 258 229 319 342 281 219 180
82 73 42 67 36 96 76 98 184 137 118 127 233 128 150 43 60 49 69 41 54 55 83 52 108 83 90 119 121 145 137 147 137 142 165 196 256 239 287 331 303 250 207 183
56 54 72 49 59 71 158 174 73 126 92 153 205 123 58 51 27 12 23 78 82 45 59 90 64 73 86 96 119 126 118 128 142 151 208 234 329 312 396 320 289 271 244 215
86 66 59 103 92 93 139 208 221 292 288 211 167 78 117 76 80 85 79 92 65 40 20 112 89 89 74 80 112 127 117 132 159 194 201 235 285 349 318 323 292 240 226 211
73 78 87 126 56 38 157 228 299 256 375 367 190 139 157 42 -17 87 90 83 39 62 7 42 123 105 94 105 125 139 141 157 175 187 225 256 333 321 297 297 288 240 224 198
82 59 -2 79 65 77 73 132 195 317 332 505 357 277 131 112 105 106 92 35 -44 -99 -70 -24 137 113 113 116 123 146 173 181 193 216 258 335 333 317 315 276 255 222 217 194
115 -0 -26 28 48 62 135 144 247 399 294 382 346 176 155 100 51 49 40 36 -10 -58 -115 -51 95 118 92 101 112 155 172 198 218 261 349 356 368 304 276 267 243 222 204 191
38 26 63 68 47 45 117 180 266 315 355 425 459 402 103 106 68 15 28 -0 -76 -120 -99 -20 103 124 114 95 117 179 221 222 296 344 358 366 275 277 286 260 231 209 190 184
26 5 41 139 145 131 197 242 249 232 372 233 222 128 153 48 12 26 18 -31 -14 -55 -36 21 134 108 77 116 177 209 253 299 333 370 335 291 293 279 277 246 223 202 190 184
40 29 10 132 124 116 192 171 89 94 144 176 143 99 87 48 28 23 -7 -12 10 7 34 68 127 70 65 107 181 236 299 312 330 352 339 291 304 283 261 223 203 190 179 171
47 41 8 104 88 111 66 53 29 54 87 54 104 116 36 15 11 18 8 -24 34 33 85 89 115 133 125 139 192 261 309 313 304 256 249 283 259 253 219 195 182 172 164 148
23 22 64 137 123 82 150 125 48 37 115 58 101 57 51 23 17 68 78 88 154 117 101 76 82 90 115 138 191 266 261 250 229 242 242 232 226 211 187 172 168 159 144 138
81 29 69 88 103 190 149 140 115 101 92 2 135 118 149 248 241 257 130 176 165 108 97 89 88 136 131 154 170 210 194 190 223 218 211 194 178 170 158 154 145 140 128 119
41 117 125 49 48 71 126 167 163 94 86 65 89 132 188 175 169 138 174 122 92 74 45 29 33 52 67 79 108 151 180 190 201 190 186 166 150 147 144 138 130 122 123 119
2 -1 105 86 24 47 66 71 76 29 64 88 88 52 71 116 128 97 20 21 50 38 39 37 34 50 68 84 117 168 168 178 170 169 167 160 148 143 131 127 126 118 116 108
-4 -5 -0 49 55 16 44 52 46 72 70 36 42 15 -8 9 70 120 100 76 45 37 22 17 46 67 65 91 140 163 163 145 161 162 159 150 136 131 126 125 120 116 118 112
16 4 13 27 32 32 36 76 82 94 101 26 -38 -21 36 30 -36 -9 -29 2 22 29 28 26 76 89 76 75 95 175 145 147 158 151 142 134 131 129 122 121 121 115 105 91
3 28 22 4 16 27 20 -1 16 1 28 -27 -8 11 43 41 32 32 22 25 36 48 82 95 118 124 125 106 132 186 148 129 131 135 127 124 127 127 121 120 112 95 90 88
37 34 34 27 61 24 -11 -16 -0 4 4 -19 -14 9 42 70 61 62 66 58 61 82 104 119 140 164 170 152 158 136 111 111 132 133 123 123 125 125 117 104 92 89 95 91
35 33 51 32 8 -6 11 -6 15 14 25 34 64 50 50 59 57 59 76 71 80 110 129 184 179 184 167 156 150 125 105 101 119 138 137 129 117 106 100 96 91 91 86 87

GFSCGP_con_3kmhel_033.txt.gz
Helicity
114 122 63 26 28 65 103 109 92 86 81 39 39 12 26 35 33 34 57 61 56 62 53 66 100 201 204 173 169 125 137 138 154 157 151 154 257 354 317 336 317 230 249 248
111 62 20 45 62 44 43 50 48 42 43 48 28 19 24 22 32 36 39 51 56 53 47 53 67 82 148 202 213 247 195 184 171 186 166 182 360 417 408 414 338 367 329 288
39 53 60 21 25 27 22 35 46 51 81 53 26 26 -28 50 74 66 48 41 36 51 68 57 61 79 103 133 207 249 237 214 207 200 210 344 520 558 527 478 464 434 350 307
41 30 27 21 20 23 34 45 50 42 34 4 44 14 60 131 90 68 71 79 67 79 79 62 72 94 88 107 169 220 252 266 237 234 292 312 449 423 360 450 528 480 359 361
46 36 17 23 10 45 51 96 55 50 60 85 68 97 33 42 38 85 56 86 81 77 98 102 85 92 99 115 153 184 248 262 264 252 264 302 247 231 300 472 521 439 370 305
59 46 60 24 46 35 120 67 41 52 79 76 4 27 78 43 45 65 138 73 187 147 177 170 117 118 122 124 183 230 200 231 274 265 245 205 224 300 414 518 509 430 369 293
32 33 50 52 62 85 102 106 99 22 72 124 167 114 186 66 46 141 83 101 105 38 62 86 92 87 82 131 144 259 197 213 259 226 172 163 246 255 327 405 426 412 352 307
44 44 12 83 54 96 51 75 75 88 52 89 193 202 184 96 92 92 85 104 114 68 77 64 93 66 78 97 121 189 172 207 217 191 170 186 282 273 330 366 365 350 323 262
61 78 84 66 67 50 96 74 52 67 59 127 214 138 106 73 54 51 69 22 37 67 76 82 64 84 61 75 87 136 153 192 200 178 181 272 227 237 325 312 315 325 312 278
94 68 58 99 85 73 70 132 134 163 147 100 133 152 224 75 47 71 81 132 56 63 85 99 52 36 68 68 87 92 121 176 178 166 246 235 226 369 377 339 394 387 338 246
43 69 72 95 38 51 110 138 175 198 235 205 104 259 148 205 169 155 86 70 72 53 60 44 35 -44 81 75 93 106 144 162 170 211 213 240 237 303 358 386 422 318 245 263
39 50 47 33 35 54 77 73 46 175 166 261 249 288 148 92 58 126 146 67 53 31 2 -32 -5 -65 45 90 114 115 202 143 173 234 198 199 251 347 350 389 282 239 274 235
91 33 48 36 1 15 71 57 93 189 152 227 194 332 259 121 95 34 64 86 50 -8 -22 9 8 -79 49 103 131 162 169 175 216 230 212 220 296 366 360 377 301 250 265 255
68 40 4 -4 26 63 71 142 148 177 206 146 314 256 179 24 15 -5 77 81 23 48 -6 -11 -23 -63 40 97 129 156 185 187 203 221 225 290 325 359 374 343 296 283 262 193
22 10 -12 7 32 30 53 55 58 71 159 211 148 48 103 -53 -68 -26 -22 -20 57 64 5 -9 -51 -21 72 112 128 173 165 182 193 237 262 309 366 363 351 364 276 251 218 188
28 17 22 38 81 21 66 25 22 46 51 121 156 151 129 38 6 -36 -29 -30 -42 21 28 -3 -13 14 84 139 179 152 158 208 237 287 356 386 393 326 247 256 226 212 198 186
25 22 3 29 25 80 -7 47 74 57 36 138 161 60 -16 -6 -20 -61 -71 -72 -31 -4 41 2 -25 29 80 116 150 161 194 275 384 450 459 417 313 219 240 207 187 199 207 166
28 12 21 54 42 -2 29 27 58 87 63 95 96 35 33 -20 -48 -68 -109 -56 -11 -17 23 -13 -16 54 100 124 166 206 270 360 443 464 408 259 213 234 218 205 189 185 167 143
-3 9 19 11 34 103 31 21 96 83 96 126 107 62 68 86 45 24 5 70 61 26 -10 -0 58 100 143 172 200 280 338 363 360 324 217 132 168 229 210 174 167 165 145 141
-5 18 19 19 14 14 17 42 76 74 55 41 26 21 45 142 106 59 53 41 34 30 50 82 104 153 162 170 202 261 283 277 248 122 109 129 151 162 162 172 170 150 136 125
13 29 99 78 30 56 47 45 75 31 44 -26 8 20 20 47 86 106 45 38 37 64 83 90 98 99 88 112 136 139 116 87 91 93 159 163 152 181 177 155 137 129 133 125
1 2 7 -0 -26 -36 19 17 26 39 24 -13 21 31 92 46 28 5 -31 -37 -34 -23 -4 19 30 35 27 21 68 116 124 120 163 190 178 179 169 147 143 144 137 129 117 110
24 1 26 9 9 7 -1 35 41 63 66 20 10 65 48 18 -5 -7 -2 -8 -9 -10 4 24 57 78 82 95 107 163 137 136 149 166 157 143 139 134 128 124 118 119 104 93
7 10 25 19 16 5 30 -12 15 7 32 13 18 21 25 7 6 29 33 39 41 24 32 41 90 121 118 108 134 125 113 124 144 152 135 129 135 129 120 115 106 92 90 89
57 31 28 7 47 4 14 10 5 1 -0 11 33 81 68 73 64 54 60 56 66 86 91 90 118 125 125 138 161 145 140 138 142 134 131 126 115 121 113 105 91 87 106 106
24 20 28 27 31 7 13 21 14 12 26 39 51 63 74 78 88 83 78 76 84 103 108 137 152 163 160 170 176 153 129 122 129 134 121 117 111 99 90 83 85 87 95 96

GFSCGP_con_3kmhel_036.txt.gz
Helicity
91 148 134 62 52 49 179 213 184 198 203 106 53 45 46 43 60 58 92 98 94 71 80 99 120 127 175 135 159 195 248 276 274 246 234 257 216 328 326 301 315 508 386 291
162 121 53 39 60 86 126 99 85 59 68 88 45 52 43 58 78 96 92 116 119 109 108 72 94 133 109 183 211 193 222 305 263 238 265 281 425 420 498 463 532 542 459 431
76 72 23 60 80 76 87 82 79 76 47 12 31 45 17 65 2 6 42 55 78 113 103 89 83 107 144 128 106 217 245 262 275 263 288 512 634 611 650 637 618 557 490 448
64 58 46 65 49 46 69 83 83 58 57 43 111 33 50 33 42 76 68 85 81 66 88 83 59 93 129 155 141 111 241 280 311 346 403 475 517 551 544 631 666 627 463 452
54 56 44 41 39 53 62 100 117 76 68 52 17 54 14 -15 36 16 56 91 87 64 77 118 144 142 87 153 153 157 123 225 286 340 443 536 603 607 572 618 630 561 456 419
57 66 63 53 59 95 116 91 28 20 32 46 -12 13 22 21 76 162 150 64 73 232 300 266 206 142 94 116 109 214 166 203 260 348 468 568 563 601 520 507 531 524 478 462
47 31 35 75 62 77 88 86 41 12 50 48 15 22 148 102 29 27 51 197 234 217 238 133 170 142 98 102 114 152 214 250 312 378 497 508 458 475 416 435 482 483 483 455
42 32 47 57 58 75 59 93 81 95 58 88 162 174 154 93 51 130 102 117 96 178 195 132 122 81 91 62 111 133 185 301 339 438 453 404 433 413 387 347 398 428 461 444
39 58 48 53 42 44 101 45 101 149 102 141 181 220 136 39 -15 12 59 125 219 215 224 213 131 114 112 100 98 136 172 311 367 446 392 371 431 395 322 358 390 417 457 435
104 54 56 61 54 40 69 104 159 173 118 97 106 121 142 71 92 167 195 223 251 335 242 199 118 74 58 57 65 149 170 231 364 394 358 454 430 400 325 355 370 389 410 348
61 83 92 113 37 79 109 96 150 211 222 157 126 135 271 249 131 122 147 176 296 258 159 85 28 19 -4 18 52 143 193 228 299 340 438 523 467 379 358 362 353 382 426 405
61 64 55 57 38 27 71 100 108 179 134 209 267 206 167 40 66 135 104 164 126 78 83 53 8 -13 -18 5 34 176 178 204 385 542 570 493 481 397 375 376 399 436 417 378
79 47 55 84 76 17 66 60 108 165 152 280 314 470 433 182 84 68 170 81 56 185 114 100 18 -5 -37 22 63 157 198 361 489 510 477 381 329 352 327 383 425 405 373 363
71 57 47 76 81 68 42 86 96 161 286 305 585 424 356 145 40 16 91 41 50 85 86 120 42 18 -47 33 115 297 413 475 481 394 327 288 326 345 366 374 372 360 373 257
82 54 47 14 -30 -53 -37 0 45 133 201 293 261 204 207 126 71 48 32 74 60 43 107 108 37 -44 -7 92 202 355 428 460 394 270 234 273 311 331 383 419 382 425 321 318
52 8 15 -19 44 50 95 100 85 78 86 141 174 273 138 134 54 76 126 196 194 251 104 149 -3 -8 36 162 294 383 421 356 244 219 256 313 354 412 435 418 463 397 201 226
11 3 10 8 17 22 -12 36 67 105 107 128 172 163 119 123 143 186 217 -7 -81 -34 69 83 44 73 182 215 249 307 294 241 230 275 313 380 429 409 405 421 255 242 182 192
15 22 28 27 62 2 25 95 164 148 103 83 147 176 146 103 112 133 75 64 2 -59 -42 -31 -10 160 188 176 175 244 286 293 327 385 435 452 492 465 285 175 173 146 134 133
37 31 30 12 12 42 -13 25 56 125 81 31 108 83 76 78 64 70 56 117 69 47 -16 37 120 191 194 175 214 295 339 364 378 389 428 404 332 227 135 99 92 141 162 165
-14 18 10 22 13 5 10 28 79 105 63 58 78 83 47 63 81 66 41 76 79 167 150 161 200 152 165 168 195 252 237 232 240 213 246 147 93 77 76 104 151 149 164 148
13 11 21 22 22 25 49 36 95 38 83 26 64 107 23 43 40 52 57 19 38 73 93 86 99 146 136 150 191 237 181 155 152 118 66 32 112 98 139 159 163 138 110 124
19 5 11 9 16 -2 -11 -30 2 84 80 83 61 87 62 55 36 26 27 11 -1 30 56 35 18 43 31 32 79 99 98 46 31 56 104 93 125 142 125 136 126 129 130 123
12 1 15 -6 -11 -5 -10 -24 23 76 67 64 23 19 71 38 18 24 42 33 24 27 4 4 -48 -66 -74 -57 22 66 30 30 87 135 147 156 129 101 109 117 118 112 104 101
19 1 22 19 -23 -9 12 31 -9 18 20 37 6 14 51 57 50 49 76 52 29 32 36 28 56 84 86 63 61 69 67 87 124 127 112 102 124 121 109 101 98 94 96 102
38 52 14 12 11 23 53 16 -11 21 23 20 34 55 77 95 89 74 92 98 75 63 70 63 77 86 66 56 78 77 85 105 132 129 114 100 90 90 99 93 80 90 99 103
11 29 63 50 52 1 16 25 9 40 40 37 74 77 99 96 115 112 96 117 135 141 124 124 123 136 105 111 106 83 86 107 110 96 81 82 86 84 78 79 81 82 89 93

GFSCGP_con_3kmhel_039.txt.gz
Helicity
116 164 168 87 84 92 104 164 159 121 196 113 110 69 57 60 50 -6 -8 39 32 34 10 65 79 103 135 128 111 132 196 267 353 381 328 240 300 247 279 310 283 339 389 361
165 148 73 43 47 85 123 102 66 36 105 52 52 12 13 62 116 103 46 59 33 22 22 -4 34 62 93 114 133 143 141 203 311 350 367 368 350 354 320 336 395 409 467 455
149 120 81 74 102 65 78 56 55 51 9 19 19 10 51 59 29 7 -22 13 49 63 81 76 70 70 70 82 111 121 158 130 223 367 556 629 603 500 487 422 480 471 550 528
120 141 127 97 80 73 72 81 86 85 60 63 48 36 65 47 38 27 33 29 35 49 100 141 132 98 79 81 110 107 102 134 148 253 475 540 473 518 460 538 575 598 558 581
74 95 86 79 56 74 61 86 77 71 63 30 40 88 11 -9 41 31 77 26 39 37 43 15 52 101 144 149 130 149 94 120 147 192 325 433 547 568 572 614 695 658 624 578
77 95 79 37 72 104 83 78 53 60 53 81 60 98 31 1 -2 -27 -17 76 12 60 113 149 152 163 169 183 152 142 123 123 120 171 341 424 608 645 655 631 659 640 627 568
95 55 56 73 69 93 97 92 87 79 86 54 109 88 120 -1 -24 10 -2 26 50 100 168 227 266 249 232 179 178 163 142 135 121 185 311 503 555 600 577 560 596 608 605 568
67 55 80 54 75 41 83 61 75 58 68 52 145 59 -5 -38 -47 -4 44 56 64 87 156 194 234 231 165 139 90 80 115 149 200 230 396 450 560 626 568 545 557 533 505 521
58 57 47 35 79 101 66 64 103 113 95 121 96 146 94 33 109 140 168 115 88 140 282 313 260 208 185 142 89 104 96 119 169 363 439 518 559 550 466 459 409 422 433 499
80 47 49 57 42 24 62 78 117 118 68 54 70 93 83 65 84 127 115 107 120 166 244 283 227 162 121 130 115 120 99 136 214 331 519 577 568 488 444 406 373 366 409 424
90 72 67 64 51 62 89 74 89 108 119 85 59 52 159 144 125 44 121 136 120 101 175 184 160 86 127 70 62 53 48 131 259 388 492 519 473 421 401 349 305 340 376 437
84 52 59 26 18 65 94 86 139 121 62 148 114 154 117 45 80 206 161 59 56 160 141 154 207 116 36 62 51 26 36 191 344 362 390 459 432 385 367 293 296 336 415 417
77 55 71 79 90 71 69 62 97 89 170 166 179 222 211 165 36 51 62 97 79 63 68 190 173 107 45 12 72 21 169 373 340 394 446 414 458 361 306 317 346 366 390 432
72 45 38 29 66 104 67 36 84 165 148 165 409 365 360 248 138 76 111 94 129 58 107 186 189 130 44 40 44 119 241 317 360 404 442 414 392 332 311 330 350 371 402 386
77 50 39 -18 -29 -20 -33 -7 11 72 131 206 304 202 211 146 123 93 107 165 168 150 129 170 170 107 109 47 94 173 301 373 410 433 379 368 327 311 322 367 407 462 549 528
72 28 34 13 19 -3 -4 35 38 66 122 180 256 287 165 146 123 101 185 151 138 141 134 129 129 158 125 102 142 254 285 329 346 351 348 290 291 343 433 474 496 490 424 475
52 28 13 31 47 -4 -5 -3 36 81 136 148 155 171 125 122 101 123 89 71 73 -25 -36 57 69 113 88 118 224 222 225 260 292 280 270 310 362 461 460 460 438 393 253 238
25 32 16 28 40 13 12 8 41 143 145 145 181 138 101 125 100 136 103 59 66 71 -64 -44 94 166 182 227 249 201 190 235 244 290 340 391 469 469 517 337 312 206 237 171
75 30 12 14 11 3 21 7 0 124 84 57 109 111 90 76 89 127 40 46 33 27 15 73 102 113 86 210 221 220 238 277 318 349 407 372 287 287 203 184 181 108 106 60
43 44 28 28 27 20 -8 -18 39 105 32 107 89 105 125 32 11 62 60 42 38 82 75 129 95 96 193 166 179 211 202 205 208 165 156 173 188 165 85 43 54 2 66 79
18 34 25 11 16 19 29 3 78 14 62 112 105 76 36 38 72 67 72 48 51 66 82 91 112 82 72 100 113 145 154 124 76 86 74 49 85 41 7 30 55 95 85 101
24 28 34 7 9 14 -28 -2 37 78 101 95 64 65 76 69 54 36 49 35 15 17 43 22 34 29 22 56 88 77 121 26 -11 39 54 29 60 43 51 46 69 98 90 98
27 16 6 -5 -15 -11 -9 10 35 30 43 52 60 63 95 82 58 38 31 25 32 4 -35 -36 -25 8 57 27 -20 12 17 10 9 20 -5 22 6 30 54 92 96 109 118 108
17 47 27 21 25 43 5 43 12 2 8 32 55 82 94 105 103 89 78 48 12 -1 -1 -20 -19 -13 -35 -47 -11 29 -11 -29 3 14 1 44 97 98 93 94 85 91 95 105
12 34 23 28 21 19 35 14 -9 23 11 28 53 75 110 133 137 119 96 101 73 54 20 8 7 -9 -7 -9 9 7 6 20 48 69 83 98 94 99 103 98 88 92 79 81
69 24 24 12 18 14 -40 -48 -10 36 24 37 72 96 91 127 150 160 150 127 114 88 71 46 22 30 11 32 27 10 19 61 90 105 103 95 88 78 78 79 78 82 90 104

GFSCGP_con_3kmhel_045.txt.gz
Helicity
123 169 141 99 94 113 127 131 132 132 107 87 44 30 44 26 43 38 28 20 5 11 -6 -0 59 83 46 118 158 182 214 178 263 359 357 294 262 245 239 212 176 202 219 220
126 92 103 137 134 143 134 140 142 114 70 64 49 7 18 14 44 67 76 68 68 73 55 48 62 67 83 105 168 211 214 179 199 295 306 370 344 279 244 263 224 231 256 274
116 85 3 62 108 112 97 79 79 60 60 14 21 -18 53 44 53 78 74 56 55 43 35 39 38 44 68 100 107 136 177 203 189 205 268 411 450 454 389 324 253 246 307 303
121 83 8 50 58 55 73 65 50 49 53 45 64 4 25 61 78 44 43 36 63 64 69 78 94 125 134 117 106 113 131 150 183 197 292 324 394 404 391 316 290 303 355 346
130 112 99 101 103 93 90 73 63 39 36 42 66 71 27 73 96 73 79 108 103 100 85 109 122 90 92 81 92 148 149 138 133 151 203 275 292 315 352 399 349 390 421 374
102 122 116 86 134 100 80 108 86 54 34 94 52 93 49 30 69 102 92 140 85 98 108 98 43 41 57 78 81 91 108 137 160 160 153 182 206 309 379 407 398 407 429 411
154 151 131 117 161 161 111 113 115 125 123 63 28 53 13 11 62 46 43 77 114 95 87 92 95 63 67 78 84 77 84 87 83 81 127 167 162 259 301 353 382 413 469 478
98 104 73 76 71 51 102 75 86 92 83 59 31 26 -4 17 57 21 43 28 85 135 144 130 102 93 74 78 82 81 71 66 66 49 37 73 123 215 247 337 382 363 396 391
107 107 90 63 81 74 56 74 63 30 6 25 39 34 -13 68 144 104 101 87 72 47 48 74 140 168 175 121 102 84 86 77 74 67 55 40 95 176 217 249 347 371 409 495
67 97 66 85 85 105 49 49 72 99 40 35 45 24 12 27 28 48 37 -8 -33 -51 -33 10 52 67 119 159 129 109 103 66 48 30 5 22 108 180 229 296 354 422 444 446
73 65 73 63 41 64 97 91 87 75 64 33 49 3 -7 34 15 17 -50 -22 -23 -18 -6 -16 2 67 88 156 168 113 118 71 49 31 28 38 99 207 283 318 392 421 411 449
65 35 62 64 52 43 58 42 77 74 53 82 42 7 -5 -30 11 -49 -17 -8 4 17 25 29 58 79 116 172 205 246 143 81 37 2 48 82 150 219 269 304 340 361 389 325
31 56 70 77 45 60 46 62 84 83 60 48 61 1 12 19 -9 29 23 19 24 33 16 38 65 124 121 122 186 116 39 16 8 -3 37 100 169 228 245 248 270 316 345 337
46 29 26 23 21 33 59 56 101 121 78 65 119 96 145 91 80 76 22 72 52 45 45 50 47 72 93 109 120 4 19 -20 -16 -7 53 129 203 231 234 250 276 302 331 362
56 11 13 20 12 21 11 17 52 120 101 53 98 99 179 65 37 14 82 46 46 61 47 18 15 25 48 41 22 28 3 -11 5 21 94 162 184 225 252 275 276 298 318 351
77 33 28 30 20 17 8 -14 10 32 10 115 184 225 131 50 -12 42 61 46 32 43 30 15 -7 5 -24 -4 45 42 25 20 77 134 182 250 277 311 306 301 313 316 295 347
59 37 24 23 47 36 26 32 51 45 57 70 123 186 106 30 -27 21 71 39 30 30 18 -4 3 16 17 13 32 55 55 92 152 195 204 215 262 303 325 334 325 321 350 372
54 65 34 16 39 22 26 46 33 45 62 129 107 86 76 -2 -2 114 77 57 32 22 4 -5 27 27 41 70 72 74 81 61 74 88 86 116 156 181 167 252 249 224 197 228
48 55 28 28 22 25 8 26 17 4 55 -19 82 63 69 63 61 53 38 42 55 34 39 37 20 26 51 43 35 62 30 34 36 29 78 63 60 84 81 135 116 87 170 167
77 61 38 35 26 27 33 50 10 19 24 -8 84 62 45 27 40 60 30 32 66 46 31 47 46 35 34 44 58 63 26 58 27 71 127 88 73 93 141 117 169 132 182 153
30 13 10 17 23 44 18 38 10 28 24 30 35 65 49 52 54 83 72 46 46 27 26 37 46 39 43 59 72 70 95 75 62 108 132 110 108 111 105 109 76 71 61 36
8 13 30 31 26 39 51 42 12 5 6 17 33 64 63 49 60 59 66 54 18 10 26 33 55 44 47 23 45 46 40 1 4 28 -2 -15 3 1 5 14 -6 10 28 39
26 20 14 18 41 69 101 39 26 -4 -21 5 35 47 61 65 65 67 66 62 40 9 -20 -29 -19 3 -9 20 11 4 -31 -40 -25 -4 -5 -11 -10 -10 1 22 29 32 32 43
19 20 26 39 56 36 68 44 14 21 -2 -12 25 47 76 71 81 83 87 72 57 34 -4 -10 -26 -21 -31 -48 -40 -32 -26 -19 -8 -5 -9 -0 13 23 21 23 24 38 45 57
22 41 27 10 11 37 22 26 5 1 4 3 9 36 57 76 68 88 99 91 74 55 21 -4 -16 -15 -23 -15 -20 -22 -21 -8 9 14 14 18 20 31 43 46 37 47 47 51
43 46 34 32 20 5 4 13 -10 -1 -4 -16 12 27 52 73 79 105 101 117 89 69 35 29 7 14 3 5 6 -11 -16 10 33 29 13 16 32 35 38 43 57 76 86 92

GFSCGP_con_3kmhel_048.txt.gz
Helicity
126 157 125 92 136 127 113 130 131 125 115 72 44 4 17 34 23 40 46 37 35 33 31 53 99 120 129 162 193 216 226 217 245 266 249 270 216 215 240 232 227 216 199 208
203 167 151 110 104 134 133 134 129 124 96 69 49 -1 12 34 39 54 62 72 66 55 37 32 55 96 119 127 147 164 191 192 227 284 284 325 258 233 245 268 240 232 251 237
41 75 60 160 129 117 154 135 112 87 87 27 20 -28 68 58 51 47 54 57 66 79 107 113 112 112 94 94 122 159 170 148 162 229 309 438 409 377 283 294 250 253 282 284
100 76 21 7 71 113 155 67 73 99 75 55 72 -10 54 77 131 109 126 158 139 128 137 127 156 152 128 112 106 117 162 188 188 190 255 277 291 305 295 295 278 305 336 342
118 54 49 77 85 48 93 85 63 44 40 35 69 39 71 95 142 201 235 262 215 141 137 165 167 162 162 125 84 79 104 155 211 186 201 246 246 275 308 272 276 313 341 341
151 158 87 62 105 86 52 103 72 56 44 67 62 59 76 99 161 215 167 160 159 125 114 93 93 113 127 134 147 136 109 98 109 153 171 204 187 202 266 273 297 349 361 364
122 133 102 101 158 149 93 104 88 96 114 67 54 65 37 89 76 61 40 57 86 78 92 105 131 166 208 216 178 145 145 124 88 91 106 120 127 172 206 231 247 279 295 343
104 97 88 87 72 48 109 82 78 120 107 94 58 74 52 47 24 16 38 59 30 33 36 77 89 97 115 122 132 146 144 143 101 65 52 54 52 98 139 166 217 258 270 263
84 100 107 76 74 80 66 99 75 46 48 101 59 42 35 58 47 36 83 29 -4 -12 -33 -26 -4 26 55 84 112 144 152 150 147 120 81 71 62 67 99 131 188 199 227 276
71 93 68 83 84 126 68 47 88 93 97 115 75 61 45 53 126 115 88 -10 13 -11 -13 -33 -36 -43 -5 71 115 147 159 157 160 159 144 102 67 42 56 122 167 217 254 303
63 66 91 74 56 48 94 81 85 62 66 57 85 44 14 25 69 45 -27 -5 -13 -9 -26 -17 10 21 59 106 124 208 271 235 196 175 149 103 94 62 93 124 182 223 247 268
77 53 64 67 38 49 57 34 58 53 47 65 42 34 53 -2 -8 -41 -4 -15 -11 -27 -10 4 19 24 93 100 108 159 209 263 229 156 140 70 76 51 81 128 146 195 215 220
37 56 70 65 33 48 31 52 71 71 62 25 38 24 41 4 -7 17 0 -6 0 -24 -15 10 24 72 75 100 125 157 183 176 242 157 99 42 39 35 75 109 130 155 168 169
43 34 28 23 21 26 44 63 90 89 67 65 58 41 79 63 31 44 39 41 15 11 21 1 11 50 59 52 72 50 97 117 61 -2 -23 18 30 95 126 172 199 204 218 271
35 21 14 25 18 29 22 23 57 92 100 60 52 74 104 97 77 46 19 27 15 8 4 -9 29 53 80 52 15 -34 -24 -10 -2 40 56 107 128 168 183 224 233 272 316 304
82 13 13 27 19 7 24 6 20 16 26 63 70 102 100 63 -9 -9 20 0 8 8 4 -7 29 64 85 57 19 -3 -19 1 34 56 85 111 163 196 221 228 244 272 285 280
59 29 24 23 31 28 22 12 90 97 68 60 70 129 75 42 9 -2 -1 10 -9 6 15 -1 22 61 79 48 11 26 23 16 44 46 62 98 142 206 223 225 217 205 210 220
58 49 21 19 35 25 21 43 79 85 53 99 87 106 84 40 24 78 70 8 -18 6 26 23 33 52 42 24 20 43 43 -26 35 46 33 58 94 110 97 202 207 256 241 258
45 40 28 31 22 24 40 32 43 20 35 6 19 45 26 1 25 63 47 36 22 22 18 23 26 24 22 30 40 48 45 29 48 31 45 116 125 169 150 177 212 190 242 267
79 57 44 26 30 35 53 63 44 38 36 19 4 30 15 -9 31 28 61 60 43 21 32 37 30 29 27 18 32 57 54 47 40 22 104 63 77 87 131 131 119 103 84 87
48 42 35 21 23 57 26 40 61 34 28 36 18 28 8 39 63 71 71 53 61 26 50 63 54 19 22 18 27 56 72 27 20 39 44 88 126 109 55 60 40 46 41 36
22 25 27 38 36 49 40 83 59 29 26 10 17 3 -4 44 93 85 67 45 38 37 22 22 19 20 21 8 32 24 26 -1 -11 -2 7 0 -8 -19 -3 10 3 -3 -15 10
28 16 17 13 25 39 112 90 94 20 -11 -12 -11 -5 -7 38 93 99 76 70 32 40 32 14 -13 -22 -17 6 -11 -14 -24 -39 -30 -6 -6 -4 -3 -11 -14 -1 8 14 15 26
18 24 36 31 41 21 17 68 4 -25 -18 -16 -24 -21 11 43 91 115 105 96 61 36 39 35 1 -18 -14 -11 -13 -19 -19 -12 -12 -2 -4 -1 12 11 5 7 8 20 22 29
29 47 27 16 0 -3 21 36 28 -6 -21 -9 -5 19 25 46 79 120 115 105 104 53 53 48 29 -1 -2 5 -1 -20 -22 -3 16 19 12 14 16 21 29 31 22 25 21 28
40 22 31 34 14 -20 -6 -1 -22 -10 3 8 14 20 40 62 89 140 139 119 105 93 66 52 58 28 11 3 -2 -9 0 19 38 33 18 16 22 24 29 34 39 57 57 65

GFSCGP_con_3kmhel_051.txt.gz
Helicity
94 176 108 112 186 140 119 131 126 123 112 91 63 31 44 51 38 42 53 65 74 78 59 68 119 143 147 157 138 138 171 188 204 231 235 219 203 172 183 168 149 156 180 185
146 86 87 119 143 145 144 153 146 159 122 69 69 35 52 50 46 50 56 64 57 55 68 91 100 109 116 132 154 161 174 181 222 277 273 278 249 220 184 161 163 169 180 232
202 164 90 104 136 162 176 139 134 132 113 46 16 -3 47 67 78 129 150 99 116 147 164 198 197 152 162 192 182 164 150 173 191 197 254 331 326 301 239 236 203 196 226 271
212 129 169 121 65 110 151 142 131 117 112 107 85 80 103 122 133 213 233 275 275 222 192 208 220 216 193 213 192 156 142 140 128 153 189 206 252 274 296 297 250 186 205 255
98 -14 -22 94 159 136 119 77 104 135 109 100 108 59 115 145 215 211 234 281 289 226 171 164 165 182 190 199 201 174 169 172 174 192 191 182 181 186 213 247 216 197 218 229
95 88 60 94 112 122 62 142 140 116 99 102 101 79 127 120 177 191 218 240 216 173 164 139 107 110 159 167 180 187 198 196 168 145 156 175 178 179 206 194 188 202 226 254
202 171 99 62 98 84 93 88 134 157 155 99 102 87 92 98 87 87 184 185 135 73 75 83 96 116 137 156 153 152 174 216 224 206 174 136 117 135 151 150 164 139 175 217
96 141 125 108 82 41 73 84 84 118 96 93 78 92 83 80 97 69 125 42 -17 -26 -9 10 24 48 70 109 126 136 155 171 194 207 220 198 173 146 108 98 140 177 199 187
79 104 101 91 89 100 78 85 78 78 91 114 84 83 46 55 66 77 96 18 24 17 0 -17 -17 7 45 66 83 101 129 158 166 186 193 203 188 160 130 103 105 127 117 159
76 82 85 62 86 128 69 74 84 92 80 111 99 83 63 49 57 93 45 -9 -10 -21 -11 -8 0 9 35 43 66 104 123 155 210 219 209 209 191 152 115 104 90 80 100 136
50 55 87 56 61 47 82 78 86 79 77 121 161 95 41 20 49 39 3 -9 -21 -43 -43 -60 -32 -4 18 45 83 114 130 150 193 252 320 283 243 212 165 142 126 98 108 126
59 37 56 64 47 53 54 45 56 56 48 54 50 64 51 45 33 -26 4 -9 -14 -23 -51 -34 14 25 34 77 89 101 103 114 134 157 207 286 278 224 170 114 105 81 128 142
47 62 69 64 38 58 43 52 61 60 53 30 51 48 52 33 -4 23 -13 -13 8 -1 -4 34 27 33 53 81 102 97 104 112 80 67 53 60 107 200 155 95 102 109 134 144
63 41 35 25 32 37 46 58 74 60 45 46 38 40 -7 41 39 37 8 10 12 5 5 8 11 30 56 92 91 79 76 35 23 56 51 81 79 55 131 116 140 156 158 179
56 24 30 33 33 43 44 34 53 61 71 37 48 34 79 80 43 29 21 19 18 9 14 15 26 51 86 66 67 44 16 30 40 90 95 107 106 123 156 167 204 227 238 246
77 27 21 36 32 23 38 25 19 22 31 46 46 85 77 42 22 -8 1 12 1 -1 2 22 29 61 88 69 56 37 59 49 42 60 65 67 71 77 97 136 172 221 237 234
90 19 25 33 35 30 31 25 47 66 49 36 51 73 74 60 29 13 23 12 11 -3 21 32 29 50 58 42 17 37 51 37 49 72 31 30 48 79 85 112 165 183 179 175
64 63 41 40 41 34 23 37 48 98 72 69 77 86 72 40 25 44 22 29 22 24 12 23 17 34 34 26 29 13 31 36 5 13 8 36 97 83 99 129 191 176 196 228
44 49 35 37 33 32 36 44 63 32 43 40 28 45 39 1 3 10 19 25 34 53 48 16 33 36 41 45 9 19 48 48 18 9 6 62 48 55 73 94 154 123 168 218
74 52 39 24 35 27 52 78 47 39 49 24 13 14 15 2 -9 13 21 35 35 53 56 45 48 44 37 33 28 32 59 53 39 29 26 39 46 22 50 81 108 62 87 88
58 55 46 30 24 34 27 65 60 61 39 47 15 4 -5 -9 -21 31 43 47 33 24 50 62 45 37 32 14 33 36 32 56 47 57 56 48 30 37 20 24 11 14 24 33
39 38 44 49 36 43 46 88 65 60 59 41 18 -14 -15 -23 20 72 71 74 39 3 28 37 41 40 32 15 9 -11 -21 -54 -31 -26 -18 -16 -20 -17 -13 -2 -3 -6 4 10
43 40 37 31 31 30 73 85 97 64 52 38 20 -27 -34 -46 28 101 90 87 63 7 16 26 20 21 13 16 5 -1 -22 -25 -20 -12 2 2 -6 -12 -13 3 3 6 9 12
34 32 39 53 43 19 17 23 26 51 38 30 -1 -15 -37 -47 18 74 114 111 93 42 21 32 34 50 41 21 14 5 -8 -12 -4 12 5 6 15 10 8 6 8 14 14 17
28 52 31 39 -10 -8 22 88 58 62 22 6 7 -10 -16 7 42 74 112 111 107 89 65 28 33 32 35 22 14 0 -5 12 25 21 12 18 18 21 26 25 16 19 16 23
61 48 59 36 42 22 8 14 -39 -16 -7 17 10 17 11 37 52 86 111 117 144 101 109 70 40 41 42 23 19 7 7 22 40 36 21 24 29 29 32 33 28 47 53 61

GFSCGP_con_3kmhel_054.txt.gz
Helicity
91 109 116 81 80 235 97 78 106 112 90 87 45 33 43 56 50 48 59 73 79 86 101 130 145 166 160 164 155 152 158 143 138 178 195 185 185 176 173 152 113 107 90 90
169 60 90 76 92 133 35 81 101 132 98 106 59 46 39 55 60 68 68 72 80 92 93 114 140 152 151 150 180 187 182 182 182 191 202 203 188 177 152 146 153 150 115 100
85 49 70 68 80 107 120 77 100 140 120 96 77 28 37 103 124 96 99 99 127 150 177 183 183 209 211 194 177 185 210 208 204 204 219 233 234 258 230 189 176 155 159 170
137 170 43 48 69 81 118 161 160 147 132 123 113 98 92 84 126 136 147 199 222 220 223 223 217 219 235 232 215 216 212 186 160 162 192 184 208 210 200 186 173 180 185 201
126 175 66 53 32 71 155 117 144 155 157 141 93 127 106 81 135 182 206 219 245 243 229 211 196 188 187 183 176 166 174 183 178 164 175 203 195 175 155 143 117 111 122 128
139 150 312 225 201 122 76 158 189 163 153 150 136 156 103 105 140 210 224 211 192 189 181 165 134 127 141 143 144 140 157 152 160 164 150 153 173 179 173 157 146 132 131 131
133 108 77 145 247 256 116 138 220 199 168 176 147 137 177 140 151 234 234 197 153 112 105 97 94 100 111 125 134 139 148 175 180 187 187 169 154 162 181 194 187 168 174 183
121 127 70 80 99 96 123 181 243 243 197 164 132 138 142 117 97 136 178 136 93 72 50 47 52 54 70 108 134 141 156 162 170 175 175 163 160 170 172 146 146 157 169 161
121 128 104 79 51 67 87 86 111 128 152 169 128 116 93 106 101 114 120 62 33 16 15 20 22 27 51 91 128 141 152 175 183 192 200 203 190 181 174 168 147 127 99 100
51 76 99 74 92 111 74 68 84 111 114 147 90 110 102 68 81 116 99 39 11 1 12 7 3 25 35 54 81 107 130 147 177 205 236 267 256 236 218 210 205 188 157 138
46 61 76 63 76 55 83 77 102 109 114 132 144 106 79 25 53 85 71 37 20 12 1 -8 -4 25 29 45 77 100 116 126 134 144 163 191 241 274 243 196 187 186 181 163
56 48 73 82 56 63 61 66 71 106 78 65 138 110 62 54 53 11 31 -10 5 8 -0 -10 -2 31 57 84 93 95 95 92 98 101 95 110 123 150 170 176 180 170 139 106
33 42 51 46 36 43 41 34 51 53 54 50 81 73 73 76 32 17 -0 -7 7 14 7 6 20 38 59 67 89 94 84 69 54 49 50 60 79 99 85 64 110 139 154 128
64 56 69 75 62 56 44 26 32 48 32 40 69 82 55 9 29 36 23 10 8 15 20 31 38 28 63 67 73 58 81 49 44 46 66 77 75 63 57 65 101 80 111 142
63 48 54 53 52 57 74 49 25 55 69 48 73 50 58 57 41 18 11 11 24 38 27 21 39 28 65 66 65 71 58 47 55 54 78 84 91 99 92 119 128 111 122 162
88 41 38 38 36 28 54 37 23 23 6 9 33 95 90 45 12 21 24 29 35 28 18 19 30 25 55 65 63 43 41 50 52 66 67 54 61 65 74 84 81 92 113 124
71 43 36 33 37 34 32 34 30 39 46 47 23 52 32 46 39 35 27 20 20 18 6 10 35 42 49 51 36 51 45 40 44 12 -5 18 -3 93 92 94 139 157 160 164
56 58 55 39 37 36 42 38 26 11 23 16 43 57 58 52 40 24 13 -1 -1 9 10 33 30 32 36 38 57 60 44 36 43 23 18 50 78 48 19 103 119 165 155 142
50 54 64 54 43 52 32 34 56 44 48 16 13 51 44 37 27 6 -10 -13 -8 15 38 45 45 36 36 42 56 53 55 50 51 44 36 28 32 34 39 53 83 92 98 130
68 54 44 45 54 44 62 82 57 71 77 68 24 31 32 20 16 15 8 -0 -0 8 39 67 68 18 17 37 34 53 58 54 65 41 44 45 50 37 45 37 48 39 51 74
50 50 32 35 43 45 33 83 72 71 79 67 49 41 27 19 13 32 35 23 12 17 29 49 64 61 35 23 25 38 35 19 23 30 28 24 15 8 -8 -9 -4 7 17 17
31 42 45 42 40 41 58 88 78 91 88 65 67 51 31 23 7 7 46 50 40 34 7 34 27 16 2 2 -3 1 -6 -30 -27 -28 -16 -10 -14 -9 -5 6 -3 -0 7 15
47 55 51 31 43 52 68 100 101 75 84 87 58 38 33 16 -15 -22 69 83 70 44 17 16 30 24 22 10 -3 1 -8 5 -2 3 4 2 2 -3 -3 4 8 9 11 13
37 41 46 50 35 7 35 29 60 77 75 76 41 22 8 8 -12 -15 64 85 83 63 42 30 37 45 43 37 25 20 10 14 13 15 12 6 13 9 7 7 8 15 17 20
51 51 29 25 1 28 29 55 62 68 29 35 22 11 2 1 -12 -4 57 84 88 96 78 65 28 47 55 38 33 21 12 11 20 32 28 22 18 20 29 30 23 28 27 28
69 47 64 46 45 46 45 62 39 24 24 19 13 29 16 3 6 20 51 86 118 116 101 85 78 41 54 42 35 27 17 18 36 48 37 31 31 31 37 40 46 57 58 63

GFSCGP_con_3kmhel_060.txt.gz
Helicity
122 200 119 90 128 132 86 94 150 94 119 95 74 11 80 75 65 88 84 94 93 85 72 80 156 179 204 239 242 235 221 197 167 166 197 257 210 200 179 166 82 125 164 215
207 99 111 113 112 116 142 98 107 122 122 121 65 28 78 82 85 57 65 80 83 100 121 182 181 158 136 146 191 190 174 179 171 178 162 187 243 238 218 195 154 113 157 210
219 160 116 90 103 111 126 153 160 213 205 204 133 36 57 110 117 112 101 97 125 143 154 162 122 116 156 206 191 174 170 184 206 234 220 209 233 297 275 217 153 115 125 153
160 122 127 147 114 119 132 154 166 171 149 110 113 108 18 78 106 80 49 60 103 179 228 223 156 132 114 131 155 176 156 141 143 143 155 173 185 279 237 186 136 119 107 119
149 42 95 195 141 110 130 136 213 154 130 201 87 137 45 134 89 87 120 176 203 214 164 146 138 127 106 123 139 144 152 145 114 120 116 113 122 138 159 203 197 174 179 184
192 194 92 93 86 150 146 229 222 191 176 153 85 90 63 90 63 117 136 128 136 160 162 147 139 142 126 121 120 117 113 111 107 70 78 85 84 88 93 116 161 164 162 155
144 140 155 170 72 124 148 208 219 185 184 147 183 115 82 49 116 154 116 103 127 118 137 132 131 125 105 96 92 100 117 115 122 123 115 116 101 104 113 117 118 144 161 146
44 61 115 116 260 261 201 143 209 181 161 159 223 152 118 226 248 259 206 168 137 118 105 104 87 79 68 56 58 81 106 125 158 184 191 183 193 186 194 208 199 180 168 173
121 121 129 141 252 237 182 155 127 223 182 152 169 210 275 255 278 183 111 99 105 120 86 77 57 50 45 45 57 82 117 143 154 184 203 219 234 231 201 200 209 220 227 227
82 132 166 232 267 282 238 144 157 196 137 113 105 127 169 182 168 134 130 114 114 90 65 68 50 50 39 47 63 96 121 132 139 158 165 160 184 199 211 211 220 208 187 201
20 78 126 200 182 119 279 188 208 187 159 155 69 111 129 128 213 137 176 164 108 66 78 64 54 45 36 52 66 100 132 133 141 148 147 142 156 162 159 159 155 150 133 165
73 51 96 89 70 40 233 101 132 108 118 150 158 129 121 99 155 183 134 78 65 77 63 44 39 36 60 71 79 100 121 123 116 106 113 116 128 132 132 122 96 92 125 150
13 39 61 71 41 27 70 99 123 102 85 91 127 87 88 129 139 60 34 35 40 58 69 42 39 39 93 97 84 84 95 98 88 86 88 84 87 103 108 122 98 90 112 154
58 54 69 75 65 51 50 52 80 114 92 70 103 100 112 110 67 39 26 29 64 72 49 46 40 56 98 90 77 84 88 86 84 74 70 71 77 77 102 101 78 98 101 116
65 78 74 79 48 50 52 46 72 99 65 116 184 68 64 52 56 70 68 69 58 46 43 49 43 51 64 76 87 88 86 79 77 66 65 64 52 56 67 82 82 61 86 120
60 61 59 53 35 30 46 36 32 28 12 11 136 167 152 102 63 45 37 71 36 34 38 50 33 44 70 77 79 79 73 73 83 86 69 62 59 59 50 65 114 86 111 146
39 55 65 62 48 46 56 38 57 78 57 53 48 60 123 92 66 38 52 48 44 46 44 44 39 54 78 83 77 86 73 79 81 76 71 66 66 72 64 65 86 100 125 113
38 45 70 48 43 65 25 52 47 65 45 44 62 79 142 71 48 45 58 55 60 48 35 36 50 69 67 76 91 77 76 78 84 87 81 58 50 57 51 57 67 65 75 66
54 41 55 54 37 43 45 28 39 61 40 50 47 76 74 63 58 37 80 98 85 69 61 68 98 86 70 76 66 79 64 65 87 91 66 50 51 61 48 29 18 7 13 5
73 96 72 58 70 53 40 26 28 41 53 75 86 59 75 76 80 76 94 64 59 54 46 36 43 46 35 44 78 78 65 63 64 53 55 39 26 30 2 12 4 -11 -10 -13
70 68 45 43 58 65 13 35 39 67 63 136 111 111 94 79 52 46 62 61 45 38 41 50 38 38 37 54 101 81 41 32 31 25 12 6 16 14 9 8 -6 -13 -30 -25
41 50 54 53 45 40 51 48 64 56 78 91 116 103 86 72 59 41 38 57 46 42 49 36 46 49 49 70 69 45 36 23 18 15 16 19 9 3 -1 3 -22 -15 -6 3
46 48 43 30 33 36 35 65 82 71 73 84 72 75 64 74 64 37 42 78 57 57 51 54 64 65 43 46 44 41 34 22 14 22 22 16 13 8 3 7 4 7 15 26
37 53 62 70 55 57 33 46 57 68 60 74 78 76 70 65 75 51 36 78 75 76 58 57 112 52 35 42 50 41 38 22 16 25 26 38 37 29 25 23 23 29 37 34
70 69 49 52 39 54 42 62 80 79 68 84 85 69 72 68 49 40 29 56 105 99 72 81 92 81 33 45 56 46 35 27 12 42 51 55 45 49 58 60 47 45 43 49
49 77 78 56 86 75 108 163 134 80 69 74 71 76 71 46 36 30 22 13 119 131 121 115 94 115 92 69 61 53 44 20 48 69 59 55 54 49 51 54 62 74 65 65

GFSCGP_con_3kmhel_063.txt.gz
Helicity
148 220 91 -28 111 170 147 199 149 113 146 143 87 76 89 96 95 106 88 73 104 117 110 124 172 203 213 266 272 234 233 281 226 208 171 158 133 147 112 97 99 132 177 168
265 58 68 111 127 152 114 115 102 110 64 104 98 63 72 49 83 78 69 73 93 128 116 185 215 235 237 205 211 217 215 205 221 223 231 227 214 194 174 160 143 129 137 169
180 60 70 92 122 82 95 142 151 130 212 234 168 137 105 94 67 123 122 97 107 109 123 165 202 193 182 168 160 175 190 171 148 168 191 210 220 229 235 221 180 138 115 113
289 101 117 86 70 100 106 116 144 206 241 179 145 85 72 73 119 140 131 97 86 102 147 157 145 118 72 97 146 175 195 186 152 121 124 137 131 158 152 151 169 154 123 94
119 121 134 107 125 165 110 115 141 210 192 179 163 104 60 97 144 110 92 83 88 131 148 154 122 81 113 138 149 160 170 175 168 160 147 130 117 106 121 141 146 128 116 96
239 225 197 134 96 178 230 266 292 234 218 151 118 117 59 129 109 170 165 161 170 175 159 144 159 141 126 134 136 138 145 144 143 133 132 129 125 126 122 124 116 116 145 155
242 252 179 109 151 253 285 261 288 212 200 113 156 109 77 87 96 192 172 153 148 147 135 126 135 130 115 104 95 94 112 127 134 135 140 144 145 130 138 156 167 192 183 196
85 110 122 163 127 209 158 171 168 162 187 162 182 110 95 85 135 157 132 114 123 131 108 95 84 88 87 72 65 73 96 117 134 149 163 168 188 179 170 168 171 177 185 197
66 52 106 85 137 259 133 143 157 149 149 170 178 158 157 265 263 231 187 152 116 110 91 84 78 70 62 49 42 54 86 106 132 160 176 188 200 205 201 205 179 165 167 171
74 39 72 91 87 210 218 196 171 189 141 145 157 138 96 193 226 223 173 135 106 91 96 95 81 64 52 41 45 77 95 106 136 164 154 132 141 146 146 141 157 166 169 167
54 68 114 104 114 205 214 188 127 125 130 115 91 89 106 115 164 215 133 122 92 101 101 97 77 61 59 78 89 96 110 124 142 140 125 122 123 121 123 129 127 127 121 117
33 46 124 163 96 101 212 151 145 128 108 111 98 85 80 79 197 194 156 129 103 104 83 68 58 64 83 106 113 101 99 112 113 105 100 100 97 102 116 118 124 109 90 81
21 57 86 131 172 137 116 179 154 162 109 70 51 74 73 116 187 174 135 85 84 99 84 67 73 73 103 117 106 106 97 94 90 86 82 84 89 96 107 111 108 100 78 86
31 37 52 46 48 87 69 94 167 89 113 94 43 50 97 110 129 99 48 44 78 82 64 63 74 83 105 96 88 98 95 93 75 73 78 76 76 82 90 88 105 115 98 111
47 62 51 67 67 80 69 69 95 82 89 80 54 68 53 86 44 34 46 82 95 76 61 51 51 73 96 107 99 94 85 81 70 78 73 63 70 95 99 91 100 154 147 115
63 74 73 96 43 42 49 41 54 73 74 101 136 125 74 75 122 102 73 90 79 57 54 56 44 69 106 104 97 95 84 91 93 82 78 67 75 97 91 91 95 111 110 115
51 64 82 85 61 61 65 43 63 73 87 87 85 102 129 133 94 69 64 76 69 68 56 57 51 79 92 80 96 97 85 90 94 80 73 72 77 82 84 73 67 76 86 106
49 54 70 67 86 83 42 51 43 120 81 66 70 76 100 127 103 63 61 83 85 69 50 51 69 92 94 101 102 93 88 92 87 100 83 87 74 68 60 49 50 46 55 62
65 63 58 57 60 45 41 38 53 65 42 41 44 65 129 123 94 68 89 101 93 72 62 67 83 86 95 93 87 80 73 69 78 87 84 74 58 63 35 23 5 7 18 6
83 68 70 62 61 52 49 54 38 67 42 39 98 69 93 81 68 53 74 96 87 71 58 58 58 59 64 58 73 71 63 67 76 72 65 62 54 29 3 3 -5 -3 9 -6
81 77 59 44 47 44 29 19 50 54 39 57 109 89 82 80 60 52 59 66 57 50 55 59 52 42 33 64 90 72 50 33 47 54 44 32 15 8 8 -3 -12 -16 -4 -4
68 53 58 53 44 39 29 48 46 24 57 67 111 96 93 74 58 51 46 52 61 63 55 55 68 57 61 73 92 84 28 17 31 47 38 25 15 10 4 2 -7 -2 7 17
63 49 35 40 25 16 15 30 43 40 51 68 76 75 64 58 53 46 48 48 45 53 53 68 83 78 68 61 72 55 26 22 37 34 27 19 6 9 4 10 10 11 14 29
46 56 57 61 44 48 58 44 49 64 68 79 82 69 56 57 53 61 72 72 63 64 67 87 118 95 71 50 55 47 32 26 32 30 25 18 22 17 16 33 40 44 49 47
42 75 60 58 50 56 36 55 68 84 77 80 78 78 70 70 62 55 56 71 80 73 79 105 111 107 83 57 55 57 32 30 19 30 36 39 31 48 59 60 50 56 42 44
58 70 105 53 51 47 41 92 116 102 75 68 69 75 82 78 67 65 59 49 68 92 92 110 118 121 101 100 90 55 42 36 37 29 49 55 54 53 61 69 79 63 57 61

GFSCGP_con_3kmhel_066.txt.gz
Helicity
116 262 72 48 127 156 186 204 178 220 202 194 92 77 104 105 120 129 93 87 67 73 107 123 168 209 217 245 244 252 237 225 161 168 151 144 131 113 114 118 111 141 158 170
194 70 121 167 136 157 104 136 119 142 135 116 85 56 68 98 84 88 104 99 85 102 120 169 200 227 228 216 226 229 208 220 237 224 206 191 164 128 111 110 120 132 144 165
76 73 108 126 142 136 122 66 128 131 153 139 104 107 90 89 79 71 108 89 94 87 102 147 162 166 185 203 197 190 193 166 140 181 222 233 220 202 183 150 112 110 127 136
157 91 106 98 99 123 146 89 92 91 142 126 133 85 90 87 66 109 102 118 114 128 160 153 159 171 159 150 155 167 179 199 190 160 147 165 182 185 169 162 154 143 135 127
187 96 114 82 78 102 134 99 113 132 163 139 154 103 75 148 92 78 135 121 155 145 151 145 132 133 139 131 134 162 182 191 207 185 157 145 148 127 117 120 140 159 165 154
312 229 192 127 141 120 124 168 212 190 197 142 122 105 23 101 120 86 171 172 167 186 176 163 128 119 131 150 169 170 175 170 169 165 167 155 146 143 154 157 147 140 161 217
246 228 202 177 163 138 123 230 221 160 148 126 168 125 70 70 75 79 221 211 204 207 207 152 113 116 133 152 152 141 145 157 150 142 150 151 143 138 147 149 149 166 170 184
149 131 159 154 128 159 172 194 161 101 167 142 191 82 84 31 22 117 169 183 196 178 143 107 110 123 121 109 102 100 101 117 133 140 149 152 161 142 143 152 148 157 165 170
157 145 167 151 138 170 184 147 169 128 138 109 133 129 88 49 101 175 176 193 167 131 102 101 103 97 81 70 65 58 66 84 108 115 125 149 156 164 155 156 141 135 144 146
72 151 138 96 149 137 170 196 177 197 115 99 64 102 103 85 127 201 232 196 159 112 109 97 91 79 67 60 58 64 67 74 90 116 133 135 142 143 135 128 135 131 129 130
53 89 114 109 89 110 258 217 182 177 161 109 90 39 50 62 90 165 175 140 89 76 84 91 79 69 64 77 78 72 77 84 105 125 133 140 138 131 120 118 120 120 110 106
54 73 125 110 75 71 176 175 200 158 171 126 65 32 33 5 126 195 165 103 85 79 85 85 65 57 71 81 81 75 80 92 101 112 120 119 111 107 111 114 116 113 110 87
26 49 141 122 128 166 122 177 210 200 179 93 88 51 64 33 91 130 147 127 105 99 97 82 68 64 84 93 88 82 84 90 97 98 95 94 88 83 92 104 115 118 106 99
38 54 32 42 63 147 140 111 151 223 71 123 89 42 39 33 96 141 143 103 98 109 93 70 66 66 89 93 86 81 93 92 84 82 80 75 68 70 82 102 112 131 130 107
45 46 59 73 58 80 81 97 171 159 55 -11 -8 -16 -22 25 85 102 93 93 99 87 80 66 59 61 94 112 106 97 93 87 78 79 72 62 58 72 92 104 104 124 150 146
65 56 67 70 58 62 65 68 59 71 121 102 112 12 62 49 91 87 61 74 92 93 78 66 61 63 98 112 100 96 91 87 81 73 67 64 70 79 89 98 115 129 147 153
61 68 95 72 78 69 45 2 64 81 110 97 64 100 98 133 75 82 79 88 95 97 76 63 54 68 94 106 106 94 96 88 72 60 58 66 73 83 89 94 114 131 133 121
60 73 85 84 113 83 55 62 69 99 81 130 122 74 75 112 114 110 78 82 79 87 76 63 72 90 102 116 117 112 89 83 93 90 72 74 80 85 85 102 113 102 74 59
66 86 70 68 74 58 50 65 66 67 56 106 83 46 123 145 196 132 103 78 84 90 79 67 75 95 103 115 112 109 88 85 76 71 75 76 61 67 73 78 59 44 28 20
98 95 90 69 67 59 59 69 57 53 53 48 82 63 124 191 124 65 95 112 121 111 91 88 92 100 111 90 103 105 93 79 70 65 65 58 57 56 47 40 42 24 17 18
87 89 69 71 41 39 42 43 42 79 49 50 62 90 117 100 56 47 87 82 85 80 75 80 78 72 68 94 100 88 78 67 57 50 42 38 32 26 35 34 16 9 11 21
75 75 72 65 56 44 42 73 53 28 47 35 81 112 100 83 74 61 57 64 69 74 81 84 79 57 62 95 109 79 67 65 63 52 26 24 33 34 33 25 12 17 28 39
54 53 53 53 33 23 12 41 36 37 47 42 68 77 72 76 63 59 62 68 61 54 74 81 91 83 58 66 86 88 67 65 66 50 32 28 36 44 26 20 17 22 26 36
42 43 48 58 38 31 28 36 32 33 41 66 79 63 42 38 49 73 89 71 67 60 64 98 112 98 72 63 63 72 62 52 67 54 48 33 35 31 17 21 28 37 43 46
44 71 53 61 54 48 38 21 41 67 76 74 86 84 77 74 71 64 65 59 72 83 86 114 113 107 96 96 72 69 52 54 63 63 54 43 38 35 35 36 46 47 43 53
77 86 99 61 25 32 29 42 99 89 70 63 62 63 73 79 80 80 75 68 60 76 103 115 107 113 105 119 101 81 70 59 64 68 58 50 52 52 56 69 84 59 50 54

GFSCGP_con_3kmhel_072.txt.gz
Helicity
71 95 122 119 194 212 204 201 147 165 66 43 -10 69 108 -40 203 563 379 179 144 76 92 93 102 101 113 132 123 121 110 138 132 140 133 124 124 128 119 111 99 96 101 99
65 -34 78 126 186 138 130 133 128 126 61 78 59 115 97 69 79 179 391 140 111 64 84 96 108 136 143 144 153 160 158 153 147 140 143 141 129 126 120 116 107 99 106 118
89 28 83 109 144 150 159 121 129 92 121 145 76 109 125 53 56 105 103 40 27 36 71 102 111 135 182 200 196 184 177 173 171 162 153 162 160 161 155 149 146 163 155 136
153 92 78 89 140 141 151 107 105 96 138 77 66 72 101 80 73 66 42 52 55 60 103 131 114 133 158 175 181 176 181 175 167 161 150 141 135 136 147 156 164 177 193 190
114 -33 148 148 161 139 133 95 123 124 136 83 83 29 60 83 97 39 -5 -18 41 84 100 104 127 171 186 181 173 158 157 166 164 159 148 137 144 148 155 161 166 169 177 196
138 69 135 118 189 148 92 159 175 131 105 23 31 56 58 41 67 60 47 35 40 96 125 157 185 193 219 209 178 150 141 151 153 150 161 152 143 140 148 158 162 166 159 173
85 168 209 201 182 175 143 187 212 159 95 6 59 28 65 44 38 45 64 64 67 146 205 197 203 196 186 181 177 162 154 162 157 154 165 168 165 159 152 148 146 157 154 153
240 257 253 211 131 122 166 165 135 106 76 31 85 -2 17 16 33 31 56 101 79 142 217 215 191 183 170 151 138 135 147 159 162 149 142 137 143 132 135 140 128 129 125 129
400 320 201 198 181 161 160 137 128 117 113 65 36 35 13 12 50 63 55 40 96 88 167 208 208 183 153 132 116 112 119 119 118 113 110 123 126 132 128 135 126 123 132 134
124 166 188 148 134 154 129 140 135 144 51 35 40 2 29 25 51 27 76 78 70 127 168 189 163 127 109 108 118 115 96 83 77 82 87 95 106 114 119 125 135 137 138 143
95 94 140 146 114 127 175 144 135 90 67 36 17 25 23 10 3 64 26 65 98 102 90 119 127 110 106 112 99 92 81 69 71 75 80 93 105 118 128 134 141 142 136 141
88 70 127 113 119 120 119 106 167 129 107 112 105 53 7 -29 24 -13 25 82 78 70 77 102 104 108 111 99 84 68 65 63 62 72 85 97 107 120 128 135 141 142 141 132
35 53 89 104 65 129 124 125 146 149 130 76 101 76 55 21 -24 2 35 16 40 66 87 105 102 88 93 89 77 67 61 61 61 69 79 94 108 119 120 122 127 124 120 121
59 30 20 48 23 91 158 133 128 155 137 162 102 72 37 -5 -11 -60 -42 15 79 85 95 92 93 79 85 82 73 73 75 73 73 80 85 90 87 90 97 95 105 112 118 124
65 45 67 54 63 90 100 135 148 124 139 166 83 107 56 6 -3 10 13 41 123 118 104 94 97 87 82 89 87 88 82 74 77 87 94 90 89 84 76 74 76 94 115 127
77 60 58 80 49 29 58 64 61 -4 88 -21 32 26 51 80 90 54 40 94 76 83 104 103 98 95 82 83 90 98 89 84 86 81 86 87 85 76 71 71 78 97 113 129
70 55 61 23 59 43 25 19 117 96 112 138 98 243 130 72 67 26 79 92 85 75 88 96 91 94 85 84 105 98 98 116 112 97 82 76 72 79 81 81 87 102 118 122
54 75 67 18 49 34 26 31 25 70 84 124 74 102 70 34 37 72 96 104 44 65 84 74 97 97 81 95 115 133 134 116 106 87 75 72 70 82 87 94 96 105 97 114
64 86 67 48 46 10 -2 34 44 39 26 10 31 41 75 77 95 58 73 76 43 56 68 75 107 123 111 108 119 132 121 108 102 87 74 65 72 83 84 92 88 78 92 80
112 100 96 78 58 37 13 32 27 33 45 36 23 30 69 131 96 48 79 108 101 91 96 112 134 131 119 100 124 133 109 103 93 85 80 81 86 89 82 71 67 61 52 51
70 77 94 90 71 42 28 31 44 56 37 77 42 34 43 93 63 65 78 111 105 102 109 142 130 103 79 100 112 100 94 76 70 84 90 85 81 79 75 77 59 54 58 55
35 48 45 87 76 22 62 72 51 40 42 28 22 8 31 63 86 92 88 80 83 94 105 98 100 81 73 85 95 76 65 62 81 83 78 69 76 63 47 60 60 55 49 55
49 63 47 59 46 31 31 32 28 36 39 39 29 40 39 77 85 77 74 73 66 59 71 79 73 70 72 76 79 73 46 85 85 82 76 73 64 60 67 67 67 72 56 53
50 70 75 75 36 38 34 41 45 33 27 28 35 33 46 61 58 61 62 57 44 51 63 84 98 94 69 65 68 63 91 96 93 83 77 78 76 74 76 64 68 74 65 61
46 74 65 79 60 61 42 58 65 66 63 53 62 61 56 57 45 38 39 32 5 10 65 84 104 81 66 84 77 85 98 115 94 87 87 84 79 73 76 52 65 68 55 74
81 79 120 80 34 57 30 52 57 76 64 54 74 84 92 86 78 72 72 66 67 62 49 53 56 61 66 81 98 109 117 114 117 108 102 92 93 99 93 64 52 36 42 47

GFSCGP_con_3kmhel_075.txt.gz
Helicity
112 70 104 162 183 141 230 188 122 143 74 81 31 97 67 29 62 91 183 223 216 321 175 113 114 104 100 90 74 61 61 74 77 94 94 85 83 78 72 76 71 74 78 76
94 87 60 110 163 137 164 174 162 137 84 54 53 24 13 42 60 -36 150 282 233 266 175 95 101 100 98 96 96 104 100 98 94 107 115 117 102 98 105 98 88 87 88 91
81 -3 28 114 180 161 171 142 150 112 94 74 35 52 37 56 62 35 80 160 185 263 208 117 80 93 107 112 122 133 143 145 143 128 133 136 134 125 120 129 140 161 163 161
105 16 36 97 148 126 125 100 124 110 137 100 57 31 17 41 56 82 39 68 213 317 137 85 94 107 123 153 182 200 206 187 178 157 140 130 125 120 132 141 152 164 182 191
90 111 10 157 125 116 114 92 115 129 135 80 88 38 31 81 59 47 -13 51 193 225 150 80 84 128 161 179 195 207 209 207 190 168 150 133 129 132 135 150 170 193 200 213
107 105 78 122 131 115 86 201 215 180 129 32 55 37 63 49 63 44 52 91 108 83 105 99 123 148 170 178 174 179 185 195 187 179 182 172 160 149 147 164 169 173 170 179
72 114 66 186 165 140 138 187 186 118 74 18 65 38 58 63 60 79 80 81 42 62 88 149 142 161 156 155 161 163 156 170 168 162 165 167 166 169 167 164 163 166 164 160
119 74 43 106 228 159 171 150 140 89 62 13 66 -13 11 -0 16 15 -7 65 89 86 100 182 214 251 223 183 166 158 133 126 129 142 155 157 157 151 153 159 150 151 150 152
90 83 182 125 108 148 157 169 150 122 97 35 33 43 18 4 20 37 67 52 66 101 104 176 277 293 263 209 164 135 130 136 138 135 135 141 134 130 123 125 123 122 129 127
183 202 214 200 167 172 128 109 143 158 44 23 12 31 22 80 53 46 54 58 78 90 128 169 224 227 210 188 166 148 135 130 130 128 118 111 107 109 111 115 122 119 120 128
228 177 169 125 122 121 154 151 150 107 84 7 -18 17 20 120 38 52 55 51 70 110 114 151 169 173 166 161 129 118 113 107 100 94 96 98 103 108 114 123 127 131 133 136
76 162 161 122 113 92 102 85 142 110 72 77 22 32 19 8 10 1 23 23 44 80 108 109 118 134 124 111 103 90 89 81 72 71 78 91 98 109 122 131 134 132 135 142
32 77 114 107 67 87 82 112 137 166 115 68 61 28 19 138 70 -24 -45 -13 -4 33 66 87 89 76 82 94 95 90 78 74 76 76 79 91 101 113 123 129 135 137 132 136
60 60 80 64 55 78 113 142 185 169 146 116 78 144 78 52 52 -27 -60 -29 11 36 63 75 83 75 73 82 85 79 80 78 76 78 77 84 85 91 95 100 105 115 116 113
67 56 62 51 48 64 64 93 137 162 171 164 59 71 80 44 8 29 -13 16 68 76 95 79 80 71 79 84 86 87 91 88 85 86 79 77 82 85 88 86 78 77 89 106
53 39 42 47 41 48 53 44 63 70 72 66 59 55 22 68 93 62 57 78 50 126 91 71 79 91 92 86 89 98 100 94 92 85 80 82 81 87 87 78 73 77 90 110
55 48 49 55 69 60 23 31 102 136 135 112 113 122 94 40 52 90 80 76 86 136 78 76 73 85 93 84 107 101 103 122 96 90 78 76 76 79 83 81 81 81 96 108
53 65 62 27 54 40 24 38 23 36 44 91 105 129 143 94 53 66 79 67 53 45 58 84 88 85 93 114 119 138 138 118 111 95 84 75 72 82 89 83 84 94 108 115
67 69 60 44 47 26 3 36 36 47 36 30 60 59 55 62 51 12 44 27 67 69 68 89 97 116 134 123 128 143 133 122 108 89 89 80 66 78 84 87 89 106 113 107
100 94 89 70 48 29 20 24 17 29 47 48 42 34 37 34 48 67 74 71 96 82 83 90 116 134 133 122 132 133 116 107 85 85 82 90 81 96 88 89 87 83 83 83
73 73 78 70 64 39 35 37 59 65 40 60 32 25 33 56 61 77 102 112 117 130 116 127 126 114 119 118 117 108 110 84 87 98 96 96 97 96 81 92 89 68 52 47
60 58 52 79 58 13 46 76 49 35 40 23 28 19 5 17 70 94 102 108 111 105 106 107 118 117 121 104 99 90 67 66 86 93 93 86 89 78 75 67 49 32 34 37
67 75 61 68 45 20 25 17 29 44 24 26 23 20 26 41 51 66 75 64 63 60 78 84 90 89 85 75 73 78 53 80 92 92 77 77 80 76 57 51 43 44 34 45
46 67 73 77 26 -1 -27 13 53 48 42 26 17 13 28 35 33 48 53 48 40 33 35 49 66 69 70 69 68 60 79 87 93 78 74 83 90 82 64 58 53 57 53 46
64 86 73 80 47 52 30 52 38 47 63 58 47 49 50 37 33 38 43 42 49 51 3 35 63 76 78 75 85 78 88 104 94 77 88 94 90 85 81 68 67 60 51 59
113 110 131 69 32 59 38 67 51 58 63 63 58 70 90 82 80 79 76 75 65 43 39 42 40 40 37 61 55 77 106 120 117 107 103 101 100 110 101 92 67 29 26 38

GFSCGP_con_3kmhel_078.txt.gz
Helicity
113 176 147 114 130 192 82 130 93 87 107 80 61 51 43 76 59 16 97 146 160 143 170 152 149 103 81 64 56 48 53 46 58 67 66 62 58 65 71 77 77 81 83 83
140 166 147 93 129 135 123 90 52 62 60 69 45 52 36 26 33 109 68 162 130 143 190 185 204 111 93 81 81 70 48 48 46 58 67 82 85 83 85 96 94 93 88 90
104 20 100 105 112 97 96 65 71 42 47 31 65 54 39 38 19 91 182 51 88 145 201 223 225 126 89 89 95 100 95 84 83 86 101 102 104 97 97 101 121 147 146 151
105 68 50 146 127 82 95 99 53 69 39 62 44 69 8 5 3 10 113 32 85 108 164 229 249 166 107 97 101 107 114 125 141 137 122 108 106 104 129 135 136 138 157 161
91 34 7 49 111 122 147 60 58 55 56 79 57 75 56 50 -16 -29 82 52 100 190 178 224 210 205 111 113 111 119 140 155 167 162 147 129 122 131 128 126 123 141 154 184
86 30 61 83 108 115 64 93 129 114 102 35 45 45 44 27 17 51 38 29 -4 213 203 161 137 141 132 130 142 158 159 171 165 151 143 130 118 116 113 125 132 144 154 170
66 12 104 144 116 77 104 90 164 86 44 -3 63 24 10 7 24 94 74 62 52 133 155 146 107 134 134 137 138 147 147 150 142 141 146 145 147 150 150 154 160 156 157 159
58 39 44 98 69 95 71 105 150 78 14 -3 53 -33 4 34 21 38 44 82 69 97 117 144 95 113 124 146 136 142 143 142 137 136 136 144 159 168 178 182 173 171 170 163
103 57 44 110 132 132 122 131 155 104 84 56 26 42 31 10 22 16 41 39 76 71 41 -19 52 79 141 192 175 171 167 171 158 147 143 152 160 158 152 151 149 149 149 152
92 43 47 72 164 135 129 89 113 129 35 49 8 42 61 110 99 50 29 34 50 63 71 49 50 110 186 221 229 209 177 141 134 128 138 143 142 142 137 135 138 138 138 141
113 102 102 78 84 58 102 96 117 110 131 110 43 57 75 135 121 85 68 30 60 78 84 91 100 155 225 232 214 187 155 129 125 128 124 117 119 117 115 117 120 123 123 130
114 102 131 106 111 98 80 93 65 65 38 91 104 76 23 39 44 18 53 83 67 55 98 82 115 163 174 165 155 138 134 129 126 115 99 97 94 93 98 107 120 123 121 128
68 111 159 102 41 57 63 39 87 99 106 57 55 41 64 75 142 123 68 19 23 66 36 63 96 105 118 111 105 100 110 107 101 90 81 77 81 90 104 113 120 126 123 126
34 57 71 39 59 89 83 54 61 100 99 64 25 59 55 18 -1 26 32 -28 -36 33 57 40 50 60 76 83 80 81 80 84 86 82 77 72 69 76 85 92 102 115 117 117
61 55 70 83 69 64 55 37 47 124 64 70 41 13 20 18 25 36 -6 25 5 48 66 73 57 55 66 76 86 86 87 85 83 83 82 79 76 80 83 83 84 92 96 99
55 61 64 69 62 58 60 49 48 26 24 37 7 40 6 35 13 20 63 55 50 75 66 86 72 70 69 70 81 92 88 90 95 87 87 93 87 87 87 86 85 80 85 90
45 50 54 63 64 56 40 6 50 85 63 56 69 32 49 44 59 79 103 83 63 68 77 88 77 70 74 82 82 77 88 103 99 98 89 91 96 99 89 89 85 81 80 90
49 54 55 56 39 38 70 70 69 16 27 28 26 34 52 55 83 79 49 67 86 73 62 61 54 63 83 83 83 96 116 109 110 110 100 90 92 96 89 83 88 88 92 98
60 62 57 47 45 44 30 46 40 26 43 44 9 22 32 46 56 49 36 48 78 93 43 41 59 60 98 102 114 127 118 115 117 112 109 91 88 88 85 87 89 105 106 120
82 73 61 65 44 39 52 43 29 20 41 48 36 50 52 45 40 50 103 80 44 54 71 110 121 108 96 120 121 127 120 113 100 97 94 91 85 86 96 112 111 113 101 100
64 65 44 45 47 36 49 65 51 37 77 49 26 20 20 31 33 51 74 101 116 124 148 143 118 106 113 117 122 117 112 83 83 98 99 93 85 81 97 118 116 112 102 80
65 68 66 69 72 25 58 82 49 72 49 29 29 31 21 13 36 62 87 100 108 131 158 152 135 130 127 118 109 107 84 84 87 90 89 85 87 94 96 97 106 91 66 35
68 88 82 60 52 60 26 13 26 38 28 29 18 17 15 21 39 56 70 87 98 93 93 93 97 101 100 98 96 94 89 84 81 78 78 72 79 81 82 89 71 55 33 36
44 57 65 58 20 1 16 15 17 40 16 20 21 19 10 21 33 43 53 63 77 73 64 67 69 85 81 64 73 94 109 81 75 68 66 75 75 79 77 69 54 56 64 60
76 68 65 61 41 41 20 27 30 34 36 46 60 55 42 34 40 34 46 50 58 64 54 41 5 50 58 59 64 87 117 92 83 69 75 79 81 81 74 63 71 61 54 59
141 102 100 44 42 60 51 59 59 49 46 52 69 69 83 87 79 65 55 60 55 63 63 39 36 50 48 59 63 78 107 111 78 71 78 82 106 99 79 68 71 42 44 45

GFSCGP_con_3kmhel_081.txt.gz
Helicity
144 163 207 68 124 110 108 145 37 52 80 53 72 77 59 -22 71 70 86 191 104 84 61 70 117 152 122 111 76 58 46 48 53 65 60 50 64 64 69 77 83 92 92 93
85 143 192 138 75 138 107 141 191 158 70 59 41 50 28 32 7 19 86 141 145 87 43 62 78 134 140 102 86 66 51 60 72 79 75 69 73 72 81 86 97 88 97 107
134 98 115 177 197 136 119 83 77 53 51 45 117 50 33 16 25 25 3 99 91 140 73 62 84 167 139 143 131 138 110 94 94 77 107 132 128 132 110 118 119 185 159 170
89 145 89 106 148 153 132 63 47 72 55 96 13 86 -22 -0 1 1 15 43 116 96 144 80 107 152 156 155 144 136 113 105 106 106 95 87 92 96 158 192 171 125 140 147
29 108 139 94 85 138 83 149 99 69 49 107 10 103 101 69 28 16 32 37 62 191 102 94 123 136 159 166 159 122 109 128 111 107 118 128 139 168 150 126 118 122 123 150
21 83 124 169 113 127 75 115 124 91 92 54 58 43 73 47 54 54 30 35 38 101 198 147 97 123 143 145 154 154 127 129 130 138 149 152 148 124 108 110 107 115 125 136
75 73 57 144 118 118 66 72 153 113 102 85 117 57 44 60 10 17 63 80 47 60 51 188 193 223 146 132 140 143 130 131 136 148 159 160 157 139 130 118 117 116 118 127
117 124 88 86 88 129 141 74 141 115 62 37 61 45 40 70 68 34 45 79 124 97 39 143 196 158 183 156 124 140 135 149 145 166 168 155 142 133 143 147 149 153 160 154
7 43 101 114 106 139 126 106 107 206 176 125 18 29 20 43 43 29 16 29 65 91 111 165 157 112 159 160 129 151 180 177 140 139 127 126 135 140 139 144 153 156 151 153
63 54 43 40 102 106 142 78 101 153 30 44 -8 30 72 72 84 88 48 33 46 60 85 77 184 150 89 107 114 144 154 152 156 142 154 152 155 162 160 156 154 151 146 143
82 24 45 41 62 42 84 90 136 172 159 153 76 29 124 123 105 88 71 64 37 39 61 82 92 114 105 69 93 126 161 177 180 177 163 157 156 159 158 156 149 150 139 143
48 46 36 23 64 94 108 53 36 88 53 96 162 124 39 86 99 81 69 47 55 26 43 70 92 105 124 153 172 227 191 186 172 150 138 137 126 117 117 121 128 128 131 133
82 55 68 38 18 14 35 25 68 62 105 74 74 67 69 79 34 46 92 80 32 15 18 67 77 97 113 117 155 177 158 164 156 142 122 107 94 87 95 105 113 119 118 122
82 54 85 72 82 54 48 30 26 80 117 65 55 51 59 32 23 32 24 34 12 -35 12 52 69 53 73 95 129 134 134 133 129 107 95 83 77 80 87 96 102 111 115 113
45 73 76 102 73 63 49 35 18 67 41 52 27 18 23 20 22 18 83 31 7 -22 22 62 72 69 70 82 95 104 113 115 107 101 95 89 88 90 92 91 102 109 109 123
24 42 44 56 43 36 42 37 23 10 -12 -2 -14 14 5 17 31 48 44 52 64 54 53 65 88 75 83 88 95 106 115 111 106 96 88 91 84 88 93 94 92 101 115 117
48 47 52 62 62 51 19 16 -7 3 26 22 19 -12 22 35 37 49 63 61 97 110 91 111 77 74 84 81 99 105 114 117 106 95 96 102 93 100 110 98 78 84 96 124
39 39 58 52 50 59 86 60 89 86 34 27 40 18 29 41 48 52 37 42 81 109 111 91 70 84 93 99 103 117 115 110 92 90 95 91 97 108 115 98 86 92 98 104
59 52 59 63 41 40 33 59 66 74 74 51 63 68 68 67 49 40 41 35 28 49 90 92 84 86 100 118 127 129 120 113 102 98 100 100 102 107 100 94 101 124 124 122
74 70 70 75 75 54 92 45 42 47 65 86 57 65 77 75 45 70 92 77 95 113 106 81 93 131 139 124 135 131 112 102 100 100 96 110 110 98 93 85 114 138 134 127
63 58 52 49 72 56 72 90 68 52 116 76 47 50 49 38 46 59 56 67 68 105 105 107 115 116 134 141 131 125 111 100 104 116 109 105 104 93 93 103 142 155 150 124
79 84 70 68 105 59 98 97 62 112 71 59 48 43 41 39 37 45 51 61 75 96 116 144 147 170 160 129 133 137 127 139 146 129 112 103 99 132 141 142 146 132 128 97
69 83 133 111 108 104 40 17 24 46 47 40 36 32 36 29 37 50 66 68 72 81 99 124 136 133 126 117 113 118 138 140 139 114 103 92 90 106 108 132 132 118 96 68
53 52 102 87 43 49 40 34 36 27 28 26 26 28 37 26 35 40 52 66 75 84 92 93 97 103 101 93 107 128 132 131 122 110 96 95 87 93 115 123 114 105 76 51
70 137 74 62 25 32 34 39 41 36 54 48 40 44 45 49 46 49 53 60 66 80 86 84 89 88 88 72 70 74 80 89 98 92 101 88 87 99 119 109 109 92 61 56
85 63 67 52 45 66 49 74 48 48 47 39 39 58 73 70 73 64 70 65 52 41 42 64 64 58 55 68 67 77 94 103 112 93 106 124 98 88 112 121 100 51 45 43

GFSCGP_con_3kmhel_084.txt.gz
Helicity
95 94 125 65 76 157 127 190 145 141 89 51 96 98 96 91 113 129 185 209 236 113 42 68 97 142 146 156 146 109 93 66 89 88 102 100 94 78 54 72 82 128 112 104
95 109 222 183 143 92 115 67 98 223 130 52 57 86 67 62 64 57 75 67 132 185 113 34 31 87 138 143 127 106 83 78 96 115 90 84 91 76 71 78 123 160 167 187
72 182 187 129 155 68 86 145 70 128 51 98 50 47 58 68 68 101 59 42 51 111 157 92 49 50 106 146 139 149 121 104 120 111 154 194 190 166 163 159 177 180 185 166
110 172 139 74 137 127 172 114 74 58 80 88 62 65 52 62 72 70 81 72 61 124 172 175 83 91 103 144 210 231 221 195 190 210 159 137 139 143 163 194 197 175 179 172
137 151 262 118 105 118 295 187 174 83 50 114 90 118 137 64 78 94 68 70 59 38 165 168 225 95 117 193 199 204 202 202 179 153 150 150 170 181 179 189 187 164 149 159
62 92 171 315 204 133 60 128 241 194 140 149 95 106 202 93 36 37 98 87 83 81 99 188 266 199 224 202 186 195 205 212 176 175 191 175 167 164 172 164 156 146 137 124
112 141 159 163 228 242 171 133 224 213 194 165 97 77 82 123 60 72 83 113 79 105 90 171 276 305 264 209 183 183 196 221 200 192 196 202 205 188 177 168 167 158 146 154
79 91 75 93 184 148 135 152 142 125 114 87 120 77 63 66 120 70 95 80 108 195 124 141 237 317 206 200 216 200 177 194 189 208 211 208 218 214 219 216 187 184 198 172
44 47 97 100 176 183 94 106 136 176 151 107 61 46 86 37 40 49 26 39 48 82 179 133 182 220 233 213 211 245 247 213 209 206 216 212 205 188 160 164 178 168 164 155
43 52 90 71 142 127 153 118 122 160 163 131 52 44 39 85 70 81 52 44 28 57 91 175 178 241 274 213 182 189 226 213 219 217 231 217 181 152 148 145 155 168 161 154
72 30 53 29 49 83 80 120 163 151 165 140 82 58 133 184 78 67 82 65 45 38 71 105 124 216 282 211 222 186 182 177 184 215 188 159 160 134 131 143 144 150 142 143
56 22 37 12 28 56 73 67 86 78 94 102 146 120 76 95 78 65 45 48 45 36 35 64 114 205 247 254 231 291 167 71 85 104 116 127 105 133 172 177 163 150 138 124
120 51 41 38 15 29 17 19 54 71 90 83 105 116 96 52 48 44 57 3 8 57 65 49 78 147 175 197 184 240 328 364 410 378 325 206 147 125 147 151 144 141 135 128
94 74 63 53 40 38 41 40 45 91 103 107 108 71 106 69 15 16 25 61 77 1 -20 20 71 108 143 151 154 182 188 228 275 273 238 177 145 147 145 145 139 135 138 132
39 73 74 85 84 76 70 46 41 91 96 123 98 57 28 51 39 36 29 52 46 57 -7 3 67 115 102 114 119 147 173 216 198 182 171 146 122 117 121 104 102 105 117 137
29 57 72 70 38 57 53 49 45 41 27 80 53 16 -23 -2 18 6 39 94 71 20 27 33 97 111 116 140 147 144 163 167 152 140 125 125 124 127 116 119 116 123 116 116
36 43 44 45 69 50 56 32 54 75 88 80 87 56 54 63 58 83 102 110 96 86 82 93 152 143 151 158 172 169 193 185 163 146 129 136 123 130 134 127 119 106 94 108
35 49 67 50 47 59 28 51 78 96 72 63 72 50 58 41 56 49 59 68 63 73 86 99 122 146 158 172 190 214 209 192 167 147 147 154 143 148 152 139 118 118 112 107
61 81 69 67 45 26 25 87 59 60 64 56 57 94 119 114 89 75 131 121 87 55 47 67 85 95 166 193 236 249 234 199 161 143 153 151 151 161 157 131 114 120 121 118
70 89 110 104 70 53 63 31 28 30 58 113 95 82 82 85 76 64 80 52 61 82 124 110 84 75 212 281 321 289 235 210 155 139 140 156 162 163 148 135 123 112 125 138
-2 29 35 84 80 67 74 73 41 72 66 78 61 58 56 53 45 41 64 58 59 75 109 141 151 165 271 320 284 243 204 156 137 146 153 165 171 156 150 145 136 123 147 155
15 22 41 64 85 52 95 96 59 54 49 46 43 47 46 42 43 47 54 59 65 79 111 152 184 238 257 229 202 174 151 149 173 173 170 165 155 141 156 155 139 130 133 119
35 56 69 122 141 128 79 55 51 47 38 51 52 40 44 38 27 49 46 44 55 55 63 106 131 163 162 157 146 152 142 174 176 170 158 155 156 133 129 123 128 134 110 106
56 28 72 65 67 98 76 71 69 71 47 43 50 45 44 45 41 50 47 43 48 53 65 60 79 104 114 110 120 102 114 134 148 145 144 145 145 132 121 100 114 120 112 96
53 36 76 84 61 49 77 129 100 131 139 100 60 50 51 51 50 67 74 72 67 54 54 64 73 84 81 79 78 93 99 117 129 122 128 134 126 100 99 98 112 107 94 92
65 127 114 102 97 91 22 35 51 50 35 37 42 54 72 71 66 92 82 75 69 59 63 54 53 68 54 60 67 96 97 82 91 100 118 143 117 96 114 106 88 45 55 51

GFSCGP_con_3kmhel_090.txt.gz
Helicity
59 52 106 51 227 319 180 193 180 98 30 115 -58 46 50 183 222 206 167 129 70 80 103 91 70 74 89 74 86 126 135 168 183 199 211 125 146 142 129 106 111 91 103 79
77 102 -3 82 318 305 213 140 164 56 13 58 98 137 160 168 218 201 139 132 80 103 76 69 87 111 124 81 71 97 92 121 145 142 164 174 149 153 132 129 119 103 122 89
81 78 2 125 351 229 251 161 227 183 95 160 51 165 231 113 65 118 66 54 77 70 81 92 93 104 122 118 120 92 95 113 118 117 158 204 192 153 139 131 127 145 171 163
88 155 74 63 253 183 212 167 108 134 52 86 90 177 157 39 21 9 -4 29 43 51 87 93 94 96 75 67 118 136 144 113 123 156 173 188 185 164 137 161 178 175 159 177
119 59 47 127 168 188 137 81 111 90 109 59 124 82 30 54 7 1 0 -17 17 35 51 59 93 108 95 89 83 132 152 167 149 152 154 188 173 192 225 278 341 254 240 223
216 166 114 124 142 142 72 128 148 123 172 86 62 36 75 47 23 11 23 5 22 34 44 55 49 83 120 179 160 165 200 210 221 203 178 174 197 240 283 300 300 259 225 206
193 176 251 184 130 185 127 172 130 79 69 94 103 57 50 104 48 47 79 80 57 73 76 86 87 111 138 171 199 214 190 200 203 234 204 212 226 265 246 236 253 252 233 205
114 172 191 185 105 136 226 76 104 115 160 105 93 115 73 62 115 111 78 73 46 41 49 53 94 124 152 202 224 225 197 178 168 171 196 214 235 193 219 193 169 180 185 180
66 84 142 145 131 149 250 185 119 123 142 116 80 72 54 60 88 79 75 89 78 74 85 76 68 108 147 205 217 217 219 198 198 205 209 257 314 301 250 222 219 204 198 182
36 -5 87 136 127 91 105 119 154 187 135 122 101 94 80 65 44 76 81 75 66 71 65 60 43 85 114 156 207 206 210 208 231 262 268 276 288 307 325 249 227 205 170 145
17 -1 38 104 118 112 123 111 108 83 106 121 110 108 44 18 71 68 52 34 53 54 47 43 44 48 93 134 156 168 171 195 212 236 251 248 243 274 229 139 120 113 107 74
26 -14 55 37 40 49 62 101 105 92 118 113 97 130 113 63 39 30 19 47 80 66 36 26 21 22 69 97 126 143 173 207 219 217 222 238 355 271 246 291 240 172 150 147
31 6 20 47 36 31 52 70 77 68 67 76 95 116 76 79 42 18 25 45 40 23 32 26 24 25 42 79 111 128 157 198 218 244 244 236 184 244 259 330 251 171 154 139
37 34 39 33 -2 23 30 24 42 67 51 38 40 63 72 51 55 95 68 56 51 36 33 31 32 32 24 47 90 131 141 169 196 219 241 247 269 279 253 221 220 222 169 146
54 56 55 44 14 27 17 29 13 25 44 34 24 25 50 40 46 65 59 18 19 23 23 16 12 21 36 59 82 135 175 206 209 194 201 215 239 197 172 201 219 201 155 142
0 8 44 49 70 44 27 22 30 29 38 25 59 68 61 66 42 2 -64 -60 -20 12 21 36 37 38 44 64 96 145 173 187 201 191 160 164 173 159 143 141 145 132 127 127
-1 6 -19 -11 54 56 51 60 55 50 52 51 26 52 36 38 50 59 60 66 47 53 65 60 53 59 95 107 139 141 180 178 169 157 156 142 139 134 119 127 142 138 121 122
-2 -7 -7 -16 -24 -55 18 14 22 25 52 51 47 46 47 32 46 67 64 52 51 45 55 64 60 44 64 126 170 177 200 174 161 148 152 151 149 144 141 142 130 128 123 108
-17 8 10 5 -4 -13 46 65 46 50 56 37 24 54 50 43 44 48 17 22 29 35 44 46 45 49 56 100 160 195 196 168 171 148 145 148 161 168 163 141 126 118 109 108
-2 6 31 43 40 31 19 35 27 47 64 22 39 47 55 62 67 59 25 40 40 34 36 44 50 55 72 79 160 199 185 191 149 157 161 161 169 165 154 139 132 121 116 96
54 42 99 104 86 29 33 23 45 43 56 55 49 46 41 49 49 37 50 55 41 38 40 47 49 57 67 85 146 166 223 183 171 206 192 175 168 160 146 148 144 117 120 105
65 93 75 81 97 46 46 52 77 79 62 79 41 61 62 68 61 66 55 51 43 36 30 36 46 66 83 82 126 172 202 202 213 178 172 157 152 156 164 156 129 118 111 94
38 31 47 76 78 104 98 89 112 120 84 76 85 115 138 121 102 74 61 52 48 37 33 32 30 56 95 100 112 172 183 165 181 164 140 140 156 158 165 163 147 136 104 97
4 18 52 58 111 102 77 100 90 78 89 105 94 90 94 100 68 80 101 98 95 67 48 42 32 43 79 109 119 115 119 120 121 122 136 144 156 158 159 153 150 145 119 90
34 37 98 80 50 -24 60 8 -23 -31 30 61 92 103 78 42 64 60 25 104 135 93 71 49 36 34 45 71 108 106 117 123 131 133 145 152 154 153 151 144 150 131 81 79
72 105 114 104 76 91 98 53 28 37 4 20 55 69 34 66 58 46 69 68 123 111 96 75 55 47 49 61 67 85 98 105 121 127 135 135 147 150 137 132 98 59 60 21

GFSCGP_con_3kmhel_093.txt.gz
Helicity
30 60 18 57 172 181 121 122 78 135 3 -29 15 144 452 383 392 387 312 261 250 166 132 93 82 113 139 140 146 98 90 103 102 82 84 111 66 155 213 220 126 99 92 102
6 20 115 94 129 219 116 86 69 47 -43 34 87 64 485 393 264 302 270 273 233 177 139 106 82 94 83 107 97 126 127 148 150 133 149 157 171 168 147 147 135 115 113 117
10 -4 25 18 177 215 136 62 110 85 67 57 -9 99 291 346 205 216 168 141 146 140 80 93 103 76 77 61 83 92 96 124 142 139 198 224 212 202 190 224 187 162 138 126
25 25 -114 139 253 118 144 121 127 121 109 -6 55 42 129 120 125 119 106 95 106 118 102 105 104 101 77 57 72 60 93 118 94 124 140 159 198 238 193 177 184 168 162 160
91 49 20 195 213 148 188 116 47 107 186 54 57 101 166 163 65 -17 11 27 36 90 75 82 81 69 74 77 80 95 76 100 118 141 126 151 179 164 191 199 187 208 242 288
121 119 128 237 266 134 235 256 298 198 94 -44 32 126 83 94 99 91 27 39 48 35 40 40 53 57 78 101 105 107 79 81 120 132 154 154 137 175 211 229 245 237 213 246
125 172 159 186 190 156 137 185 178 124 82 -22 5 74 114 70 99 57 98 65 48 45 48 57 49 45 48 67 104 129 151 136 126 125 153 164 135 148 187 215 236 222 213 165
72 83 97 145 101 65 105 111 176 158 88 113 96 56 94 90 114 105 78 109 80 53 48 35 42 58 75 62 93 117 143 151 148 144 129 144 180 229 224 220 247 176 137 127
77 57 129 90 106 116 82 164 92 110 125 131 43 134 60 74 106 94 79 89 108 105 89 85 81 37 65 84 90 129 175 172 136 131 131 122 158 225 302 278 229 269 172 176
47 49 94 103 53 160 146 66 96 95 103 122 70 70 120 78 65 82 76 99 99 79 70 69 66 52 55 77 107 153 149 145 140 136 148 157 161 191 248 334 302 284 265 152
17 7 39 52 71 60 173 104 96 72 64 49 43 74 61 67 60 54 64 65 54 63 61 52 53 51 55 74 90 122 129 132 136 151 177 180 192 190 188 203 221 274 350 250
15 25 71 26 56 46 53 57 57 75 85 97 85 91 77 83 75 81 76 111 143 135 120 108 103 78 55 50 70 93 111 116 127 140 168 180 205 230 227 177 192 176 243 236
21 20 38 24 25 32 32 52 64 75 79 56 78 102 68 100 114 91 80 89 87 79 78 81 74 63 50 41 42 66 88 107 139 169 180 180 199 250 221 234 254 217 208 191
8 -2 14 41 3 11 19 27 40 66 66 64 70 76 73 48 51 60 61 59 72 46 28 32 34 18 20 26 31 48 74 119 157 184 193 189 187 225 182 176 223 231 174 140
-20 5 10 43 39 25 19 19 24 37 37 14 32 37 74 66 45 35 37 48 26 18 22 19 24 22 30 41 43 51 69 111 154 180 178 177 196 219 228 250 245 189 189 179
-10 -1 -10 -13 -32 -20 -17 28 28 38 48 14 20 2 55 63 51 79 91 65 30 6 2 11 43 48 41 49 57 72 87 118 149 156 156 168 209 236 226 216 179 169 156 120
-14 -7 -9 -5 -12 -21 -26 8 47 44 49 52 32 23 51 41 49 62 65 51 46 59 65 57 51 61 64 61 76 94 124 157 151 167 160 175 186 186 172 168 167 135 115 115
-9 -10 -6 -7 -22 20 19 -14 -2 30 62 50 55 46 41 31 49 63 78 94 92 79 73 71 66 59 57 55 61 98 154 171 167 159 158 172 176 167 170 161 142 129 120 93
-21 2 14 32 25 -3 10 25 17 -3 -4 -13 39 57 62 55 51 40 15 35 41 54 47 44 51 53 49 46 54 87 152 182 192 167 144 158 171 168 162 152 143 127 113 99
-13 -4 24 39 27 44 17 23 5 -15 -8 9 -26 -3 75 76 71 54 31 35 34 28 34 32 28 30 40 45 62 106 135 185 165 156 146 170 171 171 159 148 138 133 122 104
10 0 53 62 23 6 23 13 6 55 68 6 0 -24 -76 -52 29 21 28 25 32 32 38 31 36 37 39 55 72 91 150 150 122 205 205 182 178 171 161 167 162 139 130 112
31 54 50 69 74 46 29 32 66 47 21 -1 -21 -20 26 46 46 49 51 48 28 12 35 26 31 32 38 49 60 85 123 113 187 211 194 186 181 188 190 175 166 144 129 109
35 38 48 64 52 45 72 80 82 27 18 0 -21 -27 -34 22 20 18 17 49 34 38 44 38 35 34 38 47 50 70 95 129 179 185 182 189 203 212 211 199 168 165 126 118
14 12 43 58 67 80 70 76 54 19 11 2 8 -9 15 19 105 66 41 18 18 14 85 109 64 51 47 54 59 62 87 115 177 217 203 196 203 201 183 175 172 160 146 139
36 46 78 74 86 69 104 85 16 -1 1 -27 -32 -35 -21 26 72 78 54 38 10 32 51 123 94 65 48 53 66 71 75 112 152 167 159 175 189 158 153 145 145 145 148 139
76 101 133 99 84 79 65 47 17 -2 -48 -52 -53 -49 35 52 42 43 40 31 -3 38 106 120 116 90 72 66 71 73 76 97 118 125 127 139 146 131 130 141 153 108 95 72

GFSCGP_con_3kmhel_096.txt.gz
Helicity
-3 11 -23 31 16 114 161 110 23 20 -29 -143 -148 -193 211 454 441 374 326 292 243 197 140 117 142 141 157 191 129 156 127 22 33 -57 95 115 151 54 97 59 97 121 149 134
15 38 16 15 96 79 91 62 5 -27 -31 59 -47 -20 60 556 505 356 344 288 257 230 218 181 143 176 152 93 118 148 128 62 107 113 36 58 124 80 77 109 65 105 176 134
-2 -9 -7 15 65 88 98 45 55 24 112 31 -12 84 32 230 380 342 300 295 261 251 229 225 96 62 84 96 91 95 75 61 69 64 123 146 181 150 114 161 113 143 145 154
71 12 33 3 95 47 54 68 61 23 105 79 -1 59 33 138 298 232 235 266 294 256 201 209 190 95 56 49 79 81 81 60 83 97 108 113 124 31 103 98 193 227 266 250
9 -98 -48 45 64 20 67 60 106 89 23 -22 -40 64 103 93 364 232 132 136 170 165 155 160 164 143 112 90 72 57 63 74 73 92 101 108 156 123 155 251 299 279 289 266
67 21 63 144 95 41 119 183 212 165 108 -5 -72 106 174 85 153 147 84 49 93 93 92 108 167 143 107 82 80 71 78 82 82 97 89 104 103 128 127 174 249 249 249 245
139 247 226 207 175 166 176 150 108 85 68 -76 -20 51 65 70 136 105 132 76 14 21 43 69 100 112 99 92 85 75 74 71 84 98 94 94 97 108 137 165 202 266 242 204
51 108 145 221 98 75 180 104 61 40 65 36 65 17 64 54 61 61 43 93 72 66 69 66 59 55 44 55 63 68 96 104 106 110 111 113 101 121 163 185 183 209 240 217
41 40 97 89 92 63 146 160 86 89 104 105 58 58 45 66 109 114 87 105 131 117 95 79 94 89 65 60 72 77 92 107 97 100 109 104 105 116 143 170 205 228 235 216
49 31 79 71 80 51 69 87 97 134 112 115 65 127 93 134 136 95 115 108 113 102 97 91 89 98 90 77 74 70 83 101 127 135 116 113 110 112 132 179 201 208 218 203
30 30 44 52 49 92 86 72 72 67 99 106 144 84 72 97 69 90 92 86 90 115 112 122 110 84 64 73 82 92 92 115 116 116 119 113 114 125 141 146 159 144 137 121
36 40 37 45 56 65 56 43 59 53 70 42 29 52 58 82 61 58 80 128 126 111 120 105 90 78 72 52 58 75 89 90 96 103 112 120 136 160 188 212 220 211 206 208
40 25 36 30 36 34 19 40 31 42 57 51 50 58 70 99 103 95 84 98 100 122 106 69 51 31 20 12 4 17 47 65 82 106 126 136 146 168 187 199 217 212 178 172
17 19 37 55 44 -7 -11 1 15 30 32 26 32 65 96 116 111 105 93 54 70 76 60 64 68 53 38 26 16 10 17 39 67 96 116 124 132 156 183 196 217 256 188 137
-9 27 26 22 13 7 2 9 9 11 6 2 23 27 61 63 63 54 47 44 38 33 25 15 7 20 37 47 43 39 42 44 63 79 99 107 132 159 200 237 223 200 166 159
-9 14 -5 -3 -8 -21 -7 -1 16 21 25 13 12 0 25 52 84 94 82 76 60 55 43 47 52 60 59 48 38 47 54 55 76 76 100 146 170 198 211 242 239 225 223 185
4 11 -1 0 -13 -18 -15 -15 -27 -38 -14 38 23 16 45 72 79 70 78 76 71 68 67 63 43 26 34 42 47 47 57 83 101 117 133 161 199 207 213 231 239 222 195 168
11 3 3 20 -8 13 14 -4 1 19 9 -26 -48 -25 68 64 91 110 93 97 105 102 111 107 76 57 50 43 50 45 49 65 113 139 146 165 196 215 224 212 199 197 169 138
-8 6 11 18 22 18 45 28 25 17 40 19 32 28 98 56 -58 -10 135 123 112 104 116 97 69 59 48 44 46 33 41 64 112 140 164 176 206 221 209 196 177 169 157 140
-12 -16 -14 -8 -9 27 26 31 26 8 10 101 68 46 29 44 -5 3 52 52 60 61 27 14 17 21 39 57 19 27 42 74 114 132 162 208 211 200 183 183 178 173 161 152
-15 -24 24 15 -2 -20 -2 15 28 33 -3 39 49 31 11 14 35 18 43 15 28 31 37 38 25 29 43 47 35 35 48 69 82 127 187 201 190 187 184 194 214 194 185 164
18 43 35 42 48 36 2 25 32 38 55 36 24 23 13 22 37 39 33 56 49 29 26 35 50 51 57 42 45 42 43 69 98 150 185 185 200 211 213 214 218 206 189 158
24 37 42 61 42 20 35 76 98 78 44 26 8 10 17 2 28 53 45 87 52 11 55 25 43 82 64 63 57 36 56 56 112 148 169 195 210 201 210 228 222 214 186 175
20 32 45 53 52 70 75 121 107 74 55 35 37 29 14 -3 -12 -37 -20 79 103 95 65 43 53 72 78 95 80 53 48 53 102 139 178 216 239 238 217 226 241 247 212 187
53 69 79 69 69 82 122 133 63 51 51 49 65 57 26 24 14 66 96 74 67 76 51 27 46 55 44 82 80 66 59 66 96 146 192 230 247 231 227 206 230 194 186 145
97 112 145 89 98 120 95 99 76 61 31 21 6 2 34 50 82 81 72 80 86 76 74 53 36 51 49 54 91 80 77 83 101 128 156 187 210 160 195 250 212 138 86 64

GFSCGP_con_3kmhel_099.txt.gz
Helicity
45 73 60 70 7 45 69 83 61 112 50 30 -17 2 -147 51 250 259 205 156 184 198 177 24 86 93 196 131 80 105 134 -51 -87 -15 48 83 87 81 58 52 52 53 58 45
24 64 21 27 8 16 55 71 76 61 11 5 -87 -89 -44 -59 111 273 282 190 224 186 210 73 -47 50 39 73 -42 114 -8 -27 -58 -20 -7 51 126 110 73 105 58 76 76 104
84 4 41 10 52 -1 134 76 59 6 28 -1 -161 -142 -12 -19 162 415 270 203 206 182 185 162 69 76 105 138 118 -14 33 -24 -51 0 104 97 94 84 60 45 64 95 93 109
103 36 15 28 25 92 30 65 33 -33 30 40 76 -19 38 78 240 294 272 204 227 207 184 151 150 155 84 127 118 96 76 68 9 103 57 97 80 46 24 -4 -9 98 144 165
-20 20 47 51 46 41 43 14 27 59 63 30 40 75 114 94 135 270 282 298 214 172 132 122 127 120 115 117 94 74 100 111 85 89 99 -7 141 206 73 52 65 71 165 191
-28 -31 78 57 39 40 35 61 92 52 114 46 -20 -4 102 80 67 172 319 276 207 131 110 121 143 137 146 132 82 70 44 28 44 62 72 85 114 126 176 163 190 199 262 329
79 128 137 78 34 50 57 37 93 102 41 -31 -15 -40 49 27 99 278 286 225 139 92 63 135 155 151 154 131 110 97 79 74 68 61 63 76 82 92 99 135 190 226 262 273
89 95 97 138 78 50 29 44 66 68 34 -32 -18 14 -4 -10 104 132 172 153 71 66 122 147 158 117 116 131 122 98 88 90 98 90 73 83 79 100 105 129 164 159 200 210
72 77 71 91 117 94 92 49 51 49 76 69 64 27 1 19 52 46 74 71 142 166 128 106 99 93 106 105 95 92 91 105 121 154 146 126 114 96 96 110 136 175 199 196
49 35 93 109 78 159 83 55 73 95 103 91 96 68 32 109 112 82 82 100 114 144 148 139 116 102 97 101 103 89 90 86 95 109 126 140 129 128 130 131 157 171 185 173
53 39 69 29 80 110 69 115 101 93 104 64 73 60 50 42 41 66 77 85 97 101 97 99 112 104 85 71 91 97 96 95 99 116 127 122 127 131 130 119 123 141 166 162
62 42 56 59 82 70 45 83 89 72 149 128 69 76 67 33 25 27 77 88 109 135 158 153 141 125 120 102 71 70 89 88 83 90 110 114 116 118 123 136 160 197 223 210
41 34 47 72 49 13 8 32 31 27 32 77 52 5 23 62 77 101 103 76 75 84 90 86 87 86 77 69 60 49 54 73 78 84 90 95 89 98 118 142 168 189 215 213
24 29 52 58 61 47 10 10 10 18 43 26 69 48 64 114 102 95 86 82 73 68 55 54 52 49 49 43 50 53 48 44 46 64 88 100 110 112 122 143 170 185 194 200
10 37 34 31 36 40 34 23 11 0 -16 -1 13 22 34 26 38 62 69 78 76 85 92 75 62 69 73 76 76 76 74 71 70 78 84 83 92 117 153 178 200 219 201 201
14 32 27 25 26 14 20 14 8 6 9 9 13 35 48 48 42 88 98 96 116 155 162 158 151 150 144 126 112 98 96 96 107 99 93 119 133 149 154 180 207 225 231 205
12 22 15 19 16 7 -20 -13 -15 -22 -17 -21 -26 -37 40 83 135 152 177 165 147 146 135 152 144 112 103 99 86 87 77 68 81 100 102 118 138 166 194 213 233 240 234 227
22 21 15 37 11 16 31 3 -4 -2 -13 -16 -20 -38 -63 -52 -15 49 50 84 106 111 114 117 93 94 79 64 60 55 69 66 68 82 116 146 171 180 223 249 244 245 242 222
-10 3 -5 3 4 3 -5 5 10 17 6 17 26 2 -20 -23 27 38 56 20 38 42 59 49 39 37 33 49 42 17 30 50 59 77 97 135 175 210 234 228 227 242 231 216
-13 -22 -23 -23 -5 28 -6 14 5 9 6 53 44 32 18 12 -78 -15 -12 -12 -4 19 30 45 40 31 36 56 26 23 39 38 47 76 99 130 184 202 207 208 235 230 196 202
-14 -18 7 12 3 -22 -6 13 37 0 -13 43 46 36 30 -8 33 49 64 48 50 47 21 60 72 56 69 95 88 63 58 50 53 49 74 120 165 187 187 232 234 239 243 207
30 42 33 20 34 27 16 25 4 29 56 53 52 31 22 28 29 23 25 17 26 17 54 99 14 13 66 86 89 97 78 91 53 46 78 117 155 213 241 230 249 247 225 192
32 38 44 43 39 13 27 44 97 81 60 50 33 24 4 -6 -19 -32 -43 -14 15 59 102 102 125 80 80 103 108 56 77 92 50 41 82 114 161 215 230 244 249 248 209 195
19 40 54 50 41 59 87 107 102 74 62 54 29 11 7 10 6 7 6 21 72 88 80 80 71 123 97 39 72 103 66 73 50 53 78 134 171 212 219 238 251 251 225 214
51 79 86 74 69 102 102 142 126 84 71 47 32 45 50 46 29 9 15 81 101 83 84 92 94 76 58 71 80 83 58 51 69 76 101 142 176 216 282 243 226 200 197 201
110 128 156 92 84 135 117 140 122 101 81 55 46 39 36 24 35 44 65 82 93 91 80 81 89 78 62 62 37 23 35 42 76 93 111 140 186 223 241 266 253 167 191 171

GFSCGP_con_3kmhel_102.txt.gz
Helicity
8 61 91 51 31 13 53 27 48 75 15 33 37 35 19 -20 -31 111 169 68 105 62 11 140 280 190 114 105 119 143 125 115 37 110 123 88 81 99 90 77 52 48 43 37
86 46 45 18 28 1 4 65 105 49 1 57 6 -17 -15 -36 14 211 134 88 138 103 73 210 188 -158 170 234 171 151 114 140 127 109 59 77 88 73 69 67 59 43 39 44
202 64 4 27 -14 -3 56 86 69 57 51 82 -71 -57 -26 -69 -119 224 60 96 170 137 97 97 38 -170 -20 112 125 109 112 115 138 214 89 75 69 95 107 78 78 45 48 60
92 74 25 12 13 51 11 42 75 -3 -6 32 8 17 70 77 46 108 124 106 126 125 154 95 -7 -58 -42 -115 30 32 -31 44 -21 45 97 70 103 125 121 116 106 90 48 45
50 40 63 79 99 96 51 62 64 -6 13 49 155 60 141 171 78 110 268 116 114 96 38 29 50 66 40 -29 -31 -27 -11 -56 -66 28 -10 13 -9 3 49 116 103 30 29 69
39 29 56 60 46 137 28 38 59 73 91 105 220 2 234 221 149 166 304 174 99 66 57 46 55 34 22 70 83 55 5 -10 36 66 81 -5 22 2 3 34 76 144 97 107
95 69 85 47 74 58 55 86 116 132 107 91 49 -6 90 215 112 157 355 375 169 85 28 48 82 74 63 64 62 53 60 42 55 50 18 49 54 14 82 75 92 194 232 220
27 38 48 68 23 22 12 96 140 94 36 -18 7 56 166 138 128 58 321 245 117 100 80 116 113 104 102 93 89 70 67 65 62 64 67 65 64 97 77 90 108 131 146 202
75 18 112 78 98 54 44 73 77 56 72 8 47 5 71 42 87 119 106 47 113 117 119 139 119 106 89 82 91 84 85 79 79 88 97 88 101 93 94 94 103 120 141 183
42 111 48 84 101 54 57 73 76 63 21 57 15 22 41 51 70 56 101 154 165 139 135 127 118 121 113 102 106 115 109 108 112 117 132 146 144 137 122 117 129 134 144 172
74 54 71 56 73 134 106 110 70 39 46 -11 -27 -32 24 25 27 37 53 72 92 112 114 115 110 103 102 89 86 90 95 97 110 110 117 131 138 147 142 130 126 135 151 180
58 51 50 69 98 132 112 124 120 67 49 44 -11 -33 24 22 43 77 76 78 102 133 154 147 140 121 113 120 101 87 82 85 94 100 101 114 132 137 137 139 143 151 168 191
58 40 65 37 26 26 70 91 100 67 19 25 -36 -80 48 75 88 117 103 89 98 112 112 115 127 138 139 123 118 114 93 89 83 76 81 91 104 117 123 130 140 157 191 201
48 41 41 64 46 38 50 61 79 59 20 32 60 54 57 84 85 90 95 95 102 101 93 83 77 62 67 76 80 74 79 75 71 66 72 77 85 94 106 118 133 146 157 172
33 22 39 39 75 62 45 45 49 28 52 49 55 68 80 96 99 98 87 105 131 155 160 150 133 130 114 101 96 100 99 79 71 77 75 72 76 85 106 120 134 152 170 190
30 28 40 30 20 28 25 59 44 27 9 19 16 50 54 47 61 71 81 93 115 138 156 162 160 152 140 137 132 121 117 122 112 100 94 97 102 99 102 118 142 165 195 220
30 35 35 47 13 21 36 4 3 -4 -11 3 -18 -31 -38 -63 -77 -102 -69 68 95 102 115 125 124 105 107 123 124 115 102 88 83 75 92 103 101 107 113 126 152 180 196 208
36 37 45 66 68 75 45 13 12 5 -9 -14 -13 -24 -35 -35 -31 -32 42 73 69 57 61 60 67 75 93 95 90 90 93 99 95 87 81 84 94 104 118 137 150 173 204 211
5 29 26 30 19 23 18 15 4 -0 -11 15 22 11 -4 -14 -4 28 86 72 18 10 32 39 62 74 79 90 118 136 127 98 92 92 84 83 90 110 126 140 162 197 209 217
3 -8 12 5 23 38 -10 3 13 -4 -21 13 8 -0 3 -1 -79 5 72 40 40 48 55 53 23 28 21 54 70 78 95 129 136 102 107 97 83 97 136 154 160 188 197 217
2 -4 14 6 15 -8 -1 17 31 -26 -5 13 17 19 6 -31 12 41 45 32 23 20 23 47 50 28 3 18 23 47 74 71 94 92 101 107 104 109 118 167 205 220 240 225
9 22 22 16 30 28 47 33 -20 19 65 59 56 45 20 27 19 17 6 -11 -13 -15 3 18 43 25 29 49 71 77 78 108 103 72 57 80 89 109 147 199 266 241 251 239
26 23 18 30 26 16 31 10 73 79 54 43 29 25 18 4 -29 -24 -54 -50 -38 -12 10 32 56 61 73 54 86 93 74 74 85 71 49 47 67 88 133 215 277 295 267 255
19 36 37 35 44 49 60 81 96 88 83 72 40 15 -1 -24 -35 -27 -6 22 25 30 26 46 72 69 71 72 73 83 58 69 71 28 61 30 47 87 134 205 252 296 310 275
42 79 75 58 38 71 74 94 117 111 96 68 48 30 7 16 24 55 47 35 43 48 61 77 68 67 56 66 80 95 84 92 73 4 43 9 62 108 144 184 234 243 231 262
163 141 160 94 78 109 82 122 162 123 85 77 67 60 55 55 48 48 39 54 59 66 73 69 52 71 65 61 78 89 90 83 53 -8 -15 38 87 138 154 207 239 220 221 232

GFSCGP_con_3kmhel_108.txt.gz
Helicity
59 127 151 79 71 41 4 2 -11 -2 13 53 61 59 10 23 94 92 63 70 68 86 24 31 91 86 118 67 33 59 60 82 123 96 239 237 193 169 156 154 136 117 112 106
51 110 127 49 -7 25 44 -13 -29 36 35 -10 -54 -51 88 42 24 41 27 41 47 16 3 36 124 126 75 95 82 70 142 92 66 67 102 175 179 161 158 142 129 122 115 107
94 113 29 51 44 21 26 55 22 -10 -52 12 80 -17 34 27 23 45 32 48 58 -19 1 33 106 76 4 12 116 68 133 145 173 162 161 146 135 163 153 144 142 126 113 103
66 49 54 13 43 45 48 -36 21 -6 -85 -84 -75 -98 33 34 54 21 27 26 20 -17 4 103 122 28 -23 -28 8 102 164 319 325 164 197 178 176 129 128 148 126 120 102 105
78 76 64 62 55 36 38 61 37 -83 -126 4 -3 -39 -58 73 1 15 44 48 31 -22 55 38 30 -46 -2 52 87 78 206 199 192 107 175 132 219 173 177 123 165 91 126 108
133 99 87 75 64 41 -24 -28 -61 -33 -24 26 10 -31 30 50 90 106 135 27 25 27 43 1 -29 -41 -33 -90 23 342 196 151 191 43 31 57 205 126 122 176 76 78 106 132
75 69 51 57 19 1 -24 83 100 32 22 46 -8 28 99 94 84 64 101 82 39 65 -55 -12 -57 -110 -142 -122 -144 2 -97 72 -44 31 116 76 82 87 16 132 153 97 112 131
14 55 -1 -44 47 67 118 195 82 26 30 78 70 190 152 148 130 88 67 91 100 56 59 -56 -64 -80 -61 -37 -27 -43 -43 -33 -13 -64 -74 -62 -14 74 118 45 93 136 106 70
46 97 66 137 202 156 79 105 136 121 59 126 137 238 170 139 171 185 76 116 163 177 -25 1 15 15 -2 -7 -21 -37 -27 -2 2 57 73 17 9 5 13 9 -16 -8 49 172
37 90 91 125 127 107 190 150 166 153 158 131 183 250 232 156 213 262 103 111 39 40 -3 25 41 31 33 34 38 40 36 23 16 36 34 16 -15 17 28 81 102 120 160 173
66 83 102 115 52 35 54 61 112 153 149 70 83 139 123 58 90 88 153 101 72 51 46 57 36 56 84 75 79 80 79 69 69 90 105 68 49 54 51 60 91 114 171 183
20 53 53 73 36 36 83 67 78 35 77 29 16 5 13 53 63 44 55 83 104 87 60 40 31 41 45 55 52 46 49 57 65 79 91 104 123 117 108 120 78 106 125 149
53 45 74 78 52 39 54 81 62 74 53 46 13 -15 -31 -1 25 10 2 4 16 21 62 63 51 42 28 29 26 39 46 48 48 48 51 62 71 89 97 103 113 132 136 148
49 26 56 38 53 60 73 89 114 25 -25 22 12 -16 6 26 7 22 25 21 23 34 43 45 55 51 51 41 33 33 40 34 50 69 79 82 74 68 73 94 116 116 118 132
28 29 32 11 5 19 -2 40 113 40 -17 5 19 29 -7 15 8 23 -15 -1 28 42 33 10 14 32 48 61 64 63 69 59 51 65 71 73 71 80 96 94 90 95 113 130
52 21 22 15 10 -5 -15 9 -17 79 30 38 33 16 -18 -16 -34 -41 -50 -62 -71 -64 -24 16 44 33 40 40 55 58 70 64 65 78 84 99 106 108 105 103 121 131 137 139
19 19 12 39 23 23 53 5 6 13 22 35 76 49 33 12 -4 -18 -34 -45 -66 -74 -97 -35 -32 -5 9 20 31 35 39 38 35 50 64 83 99 109 119 153 158 161 176 197
37 25 36 59 47 84 57 -5 11 63 56 46 102 83 69 56 30 36 58 51 27 11 4 20 21 8 3 5 22 5 -9 -12 -1 -9 -0 23 35 95 118 115 145 180 197 208
12 31 32 53 65 27 35 34 44 43 34 52 84 84 74 45 55 213 273 187 151 125 90 81 50 29 35 67 34 -11 -47 -57 -63 -57 -30 -9 -13 -11 52 126 133 132 178 226
24 26 27 18 46 51 -3 41 41 15 2 77 93 78 46 28 26 109 111 115 189 174 178 163 119 106 111 102 85 85 60 48 12 -23 -56 -55 -6 74 55 98 126 171 201 164
27 29 49 42 51 28 57 71 53 15 21 93 94 103 77 46 55 34 43 85 99 108 111 122 127 100 73 103 88 40 49 47 66 58 32 -0 -12 -26 4 76 127 162 208 239
33 37 48 36 47 34 118 71 22 53 96 115 103 100 76 60 48 55 46 52 52 33 54 61 17 -7 30 47 33 35 39 44 35 43 58 70 73 65 25 2 12 116 152 247
20 38 32 39 39 58 102 82 119 106 103 107 112 115 89 51 49 46 24 25 31 39 45 34 7 -0 15 58 77 62 45 1 6 31 56 51 77 117 107 69 91 73 113 175
43 84 67 36 53 101 95 138 126 129 142 164 138 113 94 64 59 54 50 48 63 60 44 38 28 45 70 92 77 58 24 31 41 47 52 56 67 116 102 89 108 138 137 148
89 121 69 59 51 100 89 140 170 176 209 190 149 110 89 84 68 86 77 80 84 73 67 77 90 97 105 108 81 45 27 34 46 53 49 66 65 79 110 113 95 73 116 149
251 176 184 80 50 116 87 117 206 210 177 145 129 104 96 91 89 93 106 114 104 95 105 126 139 131 128 108 81 52 40 61 69 59 42 52 36 71 34 48 61 57 111 92

GFSCGP_con_3kmhel_111.txt.gz
Helicity
67 87 79 76 97 79 35 16 -12 20 24 37 22 33 26 96 102 19 -97 -16 110 92 85 38 12 60 89 80 73 58 25 59 322 332 280 263 182 218 259 235 205 179 147 132
37 47 58 101 91 56 60 -42 4 54 47 -6 -7 1 69 72 28 -29 -25 43 41 87 52 20 6 69 107 112 73 65 63 70 129 390 285 192 108 221 208 202 157 137 148 135
89 80 50 44 70 89 78 108 91 141 36 24 -30 -114 -98 -65 37 21 31 34 40 47 45 14 30 75 107 97 89 60 43 99 152 242 295 133 96 131 159 161 172 150 133 134
87 72 60 39 86 114 117 81 122 59 7 26 -33 6 -12 -79 -35 100 57 40 33 52 45 58 35 47 33 -33 12 9 96 99 126 199 226 196 225 118 117 151 149 137 144 139
111 92 93 72 50 49 94 73 95 90 -9 -78 -53 79 -21 -26 -12 -36 -28 15 7 46 69 64 5 -6 2 16 54 62 55 104 174 151 187 239 227 202 235 150 188 181 147 127
130 39 53 84 44 39 12 -43 -45 -113 -48 105 19 42 14 -68 -2 -19 9 26 13 8 41 8 2 100 19 36 59 66 182 202 303 210 163 179 257 266 295 190 218 239 130 127
39 30 2 -2 25 19 0 -12 133 182 95 -3 47 60 5 46 7 17 16 36 8 50 47 3 48 -5 -69 -32 117 222 117 174 199 146 165 171 205 72 107 133 124 183 80 100
53 53 38 2 186 98 158 106 42 57 39 37 75 42 52 99 -20 -4 -32 43 80 144 115 62 24 26 24 -45 -20 -52 43 117 20 37 1 -8 108 92 178 126 95 85 91 126
41 66 48 107 137 164 102 186 101 34 77 132 144 119 97 113 -3 1 23 94 142 68 4 38 1 -22 -13 -32 -34 5 -17 -50 -59 -40 -73 72 23 -11 -2 44 64 68 69 100
39 100 122 97 140 107 149 160 164 78 93 127 192 177 94 204 173 126 126 207 181 43 43 32 20 24 14 7 -4 17 10 -5 6 0 0 -24 -18 -14 -16 -22 -10 8 53 74
63 102 107 40 61 127 83 172 159 157 191 144 146 191 115 165 170 153 160 146 29 40 -2 5 22 26 12 19 39 33 32 39 38 28 38 54 37 48 41 40 50 36 45 111
17 43 87 85 88 101 132 175 89 79 120 100 71 101 107 223 172 41 53 51 17 17 26 26 24 30 38 46 53 58 57 59 59 58 54 57 52 63 51 45 47 76 83 94
14 22 53 81 57 60 91 150 85 71 46 71 43 90 97 72 57 19 -6 -22 18 51 42 46 54 67 64 59 76 94 83 89 79 82 94 91 88 78 76 79 78 79 75 83
18 10 33 65 88 107 108 137 55 78 24 52 44 21 31 42 26 -6 -1 11 24 35 39 27 33 25 19 25 45 58 67 67 75 85 87 91 94 95 92 90 74 68 81 93
20 26 31 41 58 43 49 79 44 -8 20 48 21 39 34 34 27 15 3 -8 -10 -12 -17 -49 -51 -78 -73 -26 34 50 61 72 79 90 115 125 134 133 123 120 110 103 98 89
14 43 27 51 36 44 32 36 54 42 31 20 65 69 28 31 21 6 -5 -12 -23 -32 -42 -66 -83 -79 -68 1 4 37 33 31 41 60 72 86 116 128 137 148 154 152 146 150
13 31 44 110 44 54 90 84 81 66 53 61 52 53 41 37 31 33 26 6 -5 -12 -49 -90 -68 -59 -42 -71 -85 -48 -22 -19 -14 8 49 80 113 129 145 164 163 165 175 163
25 20 29 64 35 71 57 23 33 61 38 18 27 31 29 17 2 -15 4 25 -15 -43 -82 -94 -89 -91 -78 -76 -65 -64 -74 -81 -88 -88 -90 -85 -73 -43 15 87 127 140 159 185
-6 14 22 34 46 34 32 48 62 60 29 41 59 47 23 -3 -31 9 4 -37 -91 -130 -132 -110 -88 -59 -40 -51 -68 -83 -69 -62 -76 -81 -133 -145 -151 -154 -109 -95 -59 23 99 170
19 22 40 38 57 78 37 51 46 31 39 64 77 94 103 83 59 52 48 -24 -8 35 34 20 14 9 2 6 -13 -15 -6 -2 -15 -46 -29 5 5 5 -14 -50 -17 22 113 126
31 36 52 45 38 17 40 60 64 67 61 104 105 110 124 120 130 137 128 118 122 127 92 83 78 54 41 57 81 90 105 121 65 30 1 33 52 60 44 34 7 -38 -23 86
67 72 68 65 64 22 92 90 78 63 72 120 117 114 111 104 98 116 142 131 148 164 143 132 102 74 81 109 110 90 100 92 77 58 53 59 60 73 53 47 52 39 -2 -24
60 81 73 92 65 68 76 62 70 94 108 116 140 118 121 111 112 117 107 129 130 91 82 90 72 67 67 84 120 84 75 90 92 84 62 73 90 96 79 63 61 89 68 56
59 101 88 52 40 106 126 131 129 114 115 134 133 144 130 109 110 98 94 90 71 59 63 77 72 66 71 102 117 96 96 101 89 69 60 63 84 83 71 86 52 98 107 119
93 137 97 71 32 68 69 138 157 144 160 184 163 134 110 102 96 93 81 65 58 58 70 75 75 84 101 122 133 126 135 110 104 64 54 63 82 70 83 91 86 77 41 85
296 243 210 113 63 80 57 82 149 203 190 170 164 132 111 105 86 87 70 64 68 62 72 82 95 120 122 142 149 159 132 112 91 73 81 81 59 76 86 35 -16 41 20 -22

GFSCGP_con_3kmhel_114.txt.gz
Helicity
56 84 132 83 64 96 92 44 34 34 107 74 23 25 30 44 56 146 121 122 140 173 197 164 123 100 78 39 59 96 84 82 103 28 159 177 165 198 251 304 165 139 135 144
49 32 54 -1 23 41 58 83 88 105 11 30 53 56 130 64 107 126 120 101 159 179 192 130 82 9 -0 64 72 118 91 73 71 94 73 149 208 206 298 380 243 205 193 186
19 30 22 10 31 69 98 147 146 163 55 110 92 2 -45 -17 41 3 -0 15 50 92 73 69 21 -40 -24 56 80 119 91 62 49 30 147 285 316 321 347 395 225 212 213 198
84 50 70 56 67 59 52 26 83 111 91 -65 -55 -39 -9 -14 -10 -6 9 -12 9 9 52 46 33 23 71 74 84 92 81 58 69 132 232 373 405 221 327 183 149 216 212 197
64 31 40 12 10 -16 54 -31 -0 30 38 4 25 48 45 9 25 3 -9 1 23 40 10 32 44 65 56 52 41 65 82 83 93 112 101 262 192 178 134 107 142 190 181 170
33 -2 26 22 -10 21 54 -5 20 16 3 129 97 59 7 -35 -25 -1 -19 5 9 38 19 4 17 47 40 -37 23 24 67 95 72 118 144 187 167 124 190 196 163 159 121 123
30 12 20 55 105 127 188 115 180 152 67 109 4 70 56 9 131 -5 -20 -0 4 -37 -18 -24 69 28 137 202 251 57 88 88 109 109 188 217 146 126 163 193 173 187 180 142
15 34 45 103 164 138 139 114 60 62 80 35 49 49 44 87 5 -53 -48 -64 -10 104 152 142 114 76 37 11 184 250 239 105 399 145 118 121 164 189 151 167 155 143 129 108
24 34 75 194 195 208 109 84 43 30 78 63 110 62 100 102 42 -20 -66 -10 134 138 201 137 91 70 64 86 56 -10 132 95 -19 -29 -9 57 77 53 104 92 103 203 159 113
81 79 107 100 137 171 197 204 64 47 106 96 153 120 91 217 108 52 84 59 53 79 90 68 78 97 66 59 42 42 49 49 33 19 -14 10 46 42 85 22 24 67 23 104
63 74 87 119 147 166 96 176 67 54 86 55 128 171 216 177 150 98 57 34 48 38 38 72 64 82 82 92 106 97 75 69 69 54 38 45 41 37 30 33 21 25 38 59
51 95 141 143 107 135 155 149 140 91 161 119 100 167 212 298 333 215 85 4 40 66 51 28 27 64 83 87 90 98 116 123 113 84 29 68 54 58 50 51 58 41 38 64
36 69 89 50 40 77 98 131 115 103 56 96 110 103 153 180 132 103 68 66 63 56 48 44 41 32 40 48 56 59 48 53 64 72 83 96 109 117 123 115 100 92 81 80
31 49 75 90 101 109 95 122 85 82 59 48 30 -5 57 68 59 55 52 36 21 18 18 10 5 -7 -24 -25 -20 -21 -17 -25 -44 -92 -56 -17 20 48 71 97 106 104 112 110
17 44 44 71 98 95 98 101 69 62 74 86 12 41 48 66 61 47 29 16 9 -1 -24 -44 -68 -62 -46 -42 -40 -41 -50 -72 -82 -68 -29 -0 25 50 63 93 121 139 143 128
18 90 73 127 96 70 88 85 78 78 91 62 53 76 59 61 58 50 33 11 -0 -19 -32 -74 -104 -88 -89 -101 -76 -67 -54 -28 -16 6 38 41 37 53 69 84 87 95 120 147
43 79 79 97 61 57 48 68 57 43 31 52 51 46 66 54 48 34 30 5 -26 -34 -57 -99 -93 -127 -101 -87 -97 -86 -100 -75 -56 -73 -53 -13 17 55 85 99 100 100 111 95
38 38 49 80 48 65 54 35 40 41 41 39 23 78 83 47 26 5 -1 -3 -12 -29 -53 -85 -104 -90 -73 -91 -71 -54 -47 -51 -75 -74 -66 -62 -32 -45 -59 -67 -41 25 81 99
12 38 44 61 68 33 38 41 39 42 25 74 72 48 39 37 27 34 16 -6 -19 -19 -53 -68 -73 -53 -30 -30 -47 -64 -72 -58 -35 -17 -0 -20 -55 -45 -54 -89 -107 -131 -142 -53
10 21 44 46 55 76 51 35 41 18 -8 100 114 99 77 58 58 29 -0 5 2 -6 -70 -78 -37 -23 -33 -47 -60 -48 -33 -21 -11 22 48 47 58 60 27 1 -35 -52 -51 -57
57 50 70 70 71 33 39 98 88 75 45 91 116 74 82 51 40 23 8 -13 -33 -22 21 44 40 15 14 12 3 41 70 88 75 84 65 59 59 63 73 71 58 36 19 21
78 83 79 92 88 40 104 149 113 59 31 89 88 93 102 82 78 74 74 69 75 75 67 55 31 28 51 75 106 106 122 130 121 125 118 114 113 110 93 60 57 74 79 55
59 91 78 104 76 47 52 75 70 60 83 84 110 104 140 164 134 115 100 109 114 115 106 104 101 100 109 117 107 104 119 122 107 103 104 108 112 107 104 112 96 82 71 78
49 92 118 84 49 62 105 42 58 83 82 99 113 155 168 146 143 128 131 121 107 97 85 94 99 103 111 120 119 121 137 127 129 122 127 131 134 114 102 102 92 88 86 73
109 141 150 141 50 31 53 84 101 120 122 151 158 160 164 176 150 138 129 118 109 105 108 112 101 102 111 124 144 166 164 157 146 147 146 130 126 107 101 101 111 118 95 80
290 170 199 151 109 121 55 52 137 158 152 160 209 196 170 150 126 119 100 105 102 88 98 97 108 112 122 144 156 158 153 157 152 154 144 119 98 101 104 109 125 73 -2 13

GFSCGP_con_3kmhel_117.txt.gz
Helicity
53 91 62 63 68 63 50 45 22 41 86 49 27 17 83 99 75 88 108 101 97 100 93 99 98 67 92 94 108 88 100 120 144 121 135 126 160 182 176 210 102 163 237 250
38 35 7 12 16 43 48 2 11 26 40 86 86 144 127 -12 -25 -10 55 122 128 107 102 123 165 133 132 101 54 60 85 115 126 158 148 130 149 137 259 229 165 192 345 287
-21 -2 22 -4 11 -6 18 34 38 72 3 1 -22 16 5 -20 -15 -10 -13 54 86 84 99 99 159 192 146 59 -5 -15 36 66 98 120 112 102 104 246 242 164 187 308 219 226
-6 29 32 14 10 -9 -19 -48 -23 24 -16 36 -8 8 -13 -23 4 23 15 15 34 44 67 63 100 109 112 70 13 44 80 66 91 97 84 51 123 280 247 210 237 248 209 261
43 29 25 47 -22 -17 -22 -26 5 85 93 101 60 94 -16 -38 8 27 70 68 43 21 38 35 55 78 79 69 80 97 88 83 101 79 70 90 116 266 255 261 212 273 299 213
86 52 25 80 47 118 144 70 84 112 109 114 60 178 65 -25 -2 35 23 43 26 35 31 38 63 63 122 115 91 91 55 59 89 83 97 127 117 493 465 354 313 294 256 255
26 42 52 102 84 16 90 102 59 93 83 117 29 117 101 73 125 40 -9 -66 -103 -83 -75 -16 64 134 88 104 117 157 54 73 131 92 99 127 162 247 195 177 195 261 241 267
38 -14 58 167 128 55 20 20 -7 152 151 146 62 67 56 43 112 2 -50 -51 -75 -118 -20 42 122 111 91 138 209 338 109 37 83 112 75 73 83 87 45 45 106 182 253 219
50 20 100 188 166 128 60 39 26 65 123 119 121 93 80 44 64 52 -33 37 15 41 189 147 83 143 107 95 112 382 185 275 302 112 121 60 15 100 125 -2 7 62 148 72
106 75 94 93 78 173 147 88 41 50 93 96 116 101 70 159 144 167 107 150 235 151 180 150 85 62 57 66 83 123 73 53 101 97 49 84 59 56 19 48 43 66 60 55
76 101 85 66 108 91 85 73 116 99 95 97 135 126 81 117 168 132 160 166 117 110 125 125 92 90 76 77 75 89 106 108 102 79 53 41 183 145 108 54 47 -4 12 55
66 83 112 103 83 49 74 113 111 107 66 60 58 82 130 84 120 149 84 71 62 70 72 55 65 81 65 57 53 37 33 41 45 64 47 74 42 38 17 29 11 -34 20 41
49 53 79 55 68 54 50 103 68 65 83 25 42 102 84 109 105 71 94 69 46 47 40 50 37 11 12 16 -1 -3 -18 -16 3 3 -4 -11 -4 28 42 43 72 96 83 69
32 44 75 144 136 101 112 102 66 45 61 66 36 25 35 63 90 84 54 38 34 19 10 -2 -7 0 -2 -16 -8 -20 -37 -47 -65 -100 -127 -124 -69 -13 23 33 43 50 70 71
14 66 67 97 119 106 127 113 47 65 71 68 21 18 35 60 65 63 52 38 24 15 2 -22 -23 -13 -17 -12 -21 -18 -42 -59 -75 -96 -56 -16 -17 5 12 19 31 47 56 61
14 70 53 93 81 68 86 75 47 33 54 55 49 42 62 57 60 61 49 27 18 0 -13 -30 -46 -29 -39 -48 -63 -58 -60 -105 -25 -27 -7 12 22 36 40 44 54 49 55 73
50 56 47 88 41 42 58 74 77 38 48 59 67 47 74 65 54 44 33 19 17 -1 -26 -49 -43 -34 -48 -52 -57 -72 -78 -62 -34 -41 -47 -45 -49 -38 -29 -16 16 54 61 67
33 38 49 69 12 49 56 25 32 50 37 64 30 38 81 46 27 15 11 32 25 11 -7 -33 -41 -39 -50 -56 -64 -58 -61 -48 -49 -32 -44 -57 -61 -66 -63 -67 -68 -57 -64 -8
16 41 53 54 67 53 41 69 77 69 30 113 87 30 65 58 22 17 40 29 28 0 -18 -36 -42 -50 -43 -33 -31 -31 -22 -14 -2 -2 -1 -1 12 13 1 3 -41 -61 -66 -78
42 44 77 84 81 60 50 48 60 42 26 20 133 112 101 71 18 -5 22 25 9 -1 -12 -25 -6 0 -8 -15 -18 -13 0 21 35 47 45 48 44 49 78 84 87 52 8 -25
44 54 107 120 98 46 49 70 81 66 35 30 73 101 151 108 61 43 48 18 5 -4 0 28 30 18 10 10 12 32 49 79 78 82 82 91 109 138 146 137 128 97 75 62
87 91 74 85 82 32 63 106 107 53 43 44 85 93 117 102 99 79 62 57 58 67 67 56 48 55 63 69 63 71 100 111 100 102 106 116 112 134 149 148 134 127 115 94
64 99 105 128 95 48 31 49 19 60 40 54 88 105 129 130 95 88 70 59 52 53 56 57 52 47 70 73 112 121 133 144 117 119 97 101 96 95 109 111 110 115 92 91
83 137 146 121 67 74 91 71 82 66 43 55 79 111 129 118 110 92 86 70 63 70 79 81 82 80 83 108 127 133 129 138 130 126 111 107 106 111 132 131 102 97 102 101
198 221 188 151 127 97 76 97 73 126 96 71 106 141 150 161 136 131 124 112 106 118 122 120 96 86 85 96 112 120 132 137 139 140 132 123 137 137 132 115 110 98 116 121
308 215 219 185 83 87 63 46 69 142 143 148 174 189 182 187 183 171 142 128 130 121 118 109 92 93 89 103 119 127 141 147 149 128 136 149 153 155 137 132 124 70 59 42

GFSCGP_con_3kmhel_120.txt.gz
Helicity
52 101 79 54 53 88 86 39 21 57 41 68 19 64 69 54 34 32 39 48 79 86 111 115 81 131 166 131 121 139 110 111 112 119 107 108 110 95 99 128 131 136 183 211
27 40 -2 3 16 24 33 11 3 4 42 66 32 34 99 17 -3 15 -14 -8 47 77 113 130 111 52 162 166 114 114 97 129 133 129 138 133 126 118 108 112 124 162 181 231
-37 -42 7 -1 -30 -3 34 62 58 80 33 39 10 -8 9 9 11 38 27 -50 -60 13 96 112 92 68 65 203 148 114 85 77 112 108 123 130 128 135 131 95 124 195 164 230
-25 -28 5 50 48 98 59 51 55 37 8 19 54 34 83 59 17 15 22 -20 -56 -56 4 55 71 61 64 139 166 106 52 50 82 106 121 133 101 79 67 64 133 215 172 285
21 30 27 -1 1 117 75 99 115 83 85 60 88 140 70 -51 -33 55 106 43 -4 -25 -20 -17 16 39 78 140 218 204 164 131 90 142 130 127 97 53 -11 119 188 254 243 188
92 9 61 44 46 142 110 73 80 16 13 70 72 128 141 22 89 133 59 -9 24 17 17 40 82 110 126 130 158 187 198 107 100 129 114 88 62 16 -23 182 261 206 207 186
15 63 91 119 52 64 49 51 64 119 127 152 89 126 107 -9 53 113 -6 -9 -38 -25 14 104 105 108 104 126 138 138 71 99 118 103 100 83 69 110 129 400 273 346 193 404
16 3 75 134 86 55 41 65 149 204 189 168 49 57 65 -42 -4 79 108 53 24 65 33 -22 17 146 112 119 246 357 171 89 144 172 103 100 71 79 165 15 47 122 102 129
71 100 82 153 165 133 75 71 70 106 104 94 78 82 83 36 69 78 127 120 32 98 111 114 84 104 172 94 292 245 450 415 309 183 217 75 21 64 96 40 29 24 54 67
78 52 62 58 74 70 90 70 101 106 145 158 130 140 111 102 155 146 128 161 141 39 119 127 116 93 180 100 199 115 185 446 209 182 215 280 193 165 69 58 104 74 98 36
82 59 58 37 83 100 89 58 103 104 124 122 114 104 79 119 155 146 145 157 168 142 98 98 41 48 9 25 49 69 68 78 112 96 38 120 209 270 152 124 118 111 18 32
80 91 101 61 54 62 98 57 43 35 65 77 62 19 83 88 99 72 99 118 111 82 75 76 71 61 52 52 61 72 76 89 92 52 20 34 42 41 76 -5 -46 -65 -95 -18
53 71 100 75 46 55 62 101 49 83 86 74 36 62 17 56 61 57 110 107 94 79 67 60 33 21 16 22 24 26 29 41 37 32 7 -12 -13 -16 -0 21 32 49 61 50
49 82 122 180 184 124 99 77 26 54 51 64 70 55 44 51 38 67 79 53 46 45 35 28 18 12 -3 -5 -9 -14 -20 -10 -6 -14 -6 6 27 24 23 40 42 38 35 25
53 105 124 136 147 122 139 117 47 57 72 68 38 67 35 65 99 106 98 75 70 41 13 2 8 8 -2 -9 -16 -26 -36 -34 -43 -59 -16 2 17 26 30 35 50 60 69 76
27 86 66 91 72 93 120 128 100 80 58 52 50 49 63 50 55 65 76 66 43 16 12 7 -5 -13 -16 -20 -4 -0 -13 -13 4 20 23 20 19 34 36 42 42 31 34 36
18 20 16 67 34 47 53 69 121 84 67 61 92 59 29 59 73 71 57 48 36 28 16 -5 -25 -36 -47 -52 -40 -41 -56 -46 -37 -39 -57 -59 -61 -67 -57 -70 -78 -72 -65 -44
44 25 44 66 9 26 41 19 32 70 53 99 47 34 26 35 29 32 39 45 44 34 21 8 19 20 16 6 -14 -42 -51 -48 -40 -48 -60 -70 -86 -101 -118 -141 -143 -135 -146 -143
68 62 55 56 67 74 22 47 69 63 28 85 129 54 21 63 65 5 63 74 68 60 55 50 38 7 -16 -30 -37 -52 -36 -30 -35 -31 -22 -24 -26 -28 -30 -35 -23 4 6 28
74 72 89 76 63 56 49 32 48 52 13 19 96 103 136 146 55 15 71 83 60 57 54 30 -3 -23 -31 -32 -34 -20 -14 -6 3 11 16 10 10 21 42 73 100 89 98 134
76 97 141 134 96 46 61 61 82 65 39 40 51 99 178 118 77 66 87 64 66 46 22 16 1 -13 -10 1 -1 11 2 19 31 39 51 54 57 77 100 117 133 148 154 157
124 121 100 124 113 39 84 109 85 53 39 35 31 77 133 107 108 98 67 58 50 39 41 36 29 29 35 31 34 35 35 35 42 39 46 46 57 89 111 115 113 123 147 139
93 112 137 147 134 89 88 81 60 101 61 35 49 69 105 135 122 126 101 88 82 77 70 69 66 60 60 47 38 49 41 41 40 46 66 63 64 81 89 90 96 122 114 124
106 161 190 149 62 104 160 109 114 119 104 99 67 89 138 133 130 123 121 111 106 95 84 72 66 75 69 58 64 68 61 66 72 71 77 79 82 80 83 104 118 126 112 113
164 201 201 180 56 82 94 153 159 97 122 153 141 117 109 144 133 141 132 123 112 102 86 72 76 69 64 64 67 68 84 92 76 88 84 82 88 88 93 102 123 111 91 71
342 263 281 226 167 148 70 67 58 70 82 127 171 190 179 184 166 165 136 124 113 98 89 95 97 89 85 87 80 82 103 112 92 84 85 89 96 102 107 123 119 62 31 19

GFSCGP_con_3kmhel_123.txt.gz
Helicity
66 107 81 54 66 89 87 83 67 67 55 43 38 55 126 84 22 25 11 -4 -4 -1 26 78 115 126 101 115 147 180 176 179 166 173 163 116 99 102 98 94 72 67 74 76
-34 -19 -49 -20 -6 -1 13 4 9 28 31 31 29 46 40 18 50 60 39 21 3 -19 -33 55 110 111 97 79 110 160 177 174 147 157 164 149 98 82 82 73 60 61 51 98
-31 -35 18 7 5 7 10 39 55 72 63 60 -2 2 29 24 45 44 48 23 19 -16 -15 -2 71 90 93 65 56 120 151 167 152 118 143 138 120 99 93 80 79 88 98 111
-3 0 10 6 39 68 24 58 74 65 40 18 -9 30 -12 -10 23 30 61 70 42 -3 -8 -11 2 46 77 49 30 111 141 166 137 93 108 140 140 106 97 80 85 98 105 147
-8 12 33 33 50 109 54 71 41 58 43 15 -17 65 49 -31 -46 52 160 59 26 3 11 29 33 35 70 132 137 172 201 180 107 26 40 110 109 106 76 57 35 50 106 117
70 68 61 86 73 118 108 52 69 68 46 62 37 51 49 -73 -1 58 102 29 -16 15 28 147 79 103 130 131 157 191 194 144 86 51 76 77 42 53 50 17 0 18 73 135
53 76 78 119 115 65 96 89 62 81 67 59 55 68 74 -33 -55 -6 82 11 79 114 83 25 57 201 155 71 110 140 136 107 91 61 27 36 77 63 16 -3 15 104 116 159
34 63 111 145 127 112 105 93 80 142 174 136 97 108 79 14 27 43 111 88 72 157 111 65 -4 209 154 84 265 328 282 215 223 206 111 73 73 68 85 95 80 20 0 40
29 65 53 110 80 80 101 140 132 139 159 176 189 138 111 41 89 72 156 161 146 161 -56 97 119 243 169 84 277 434 563 394 316 305 290 340 279 255 188 152 147 104 115 50
62 65 75 50 60 75 91 75 105 103 100 94 108 103 109 149 163 95 97 116 106 155 80 170 231 248 230 168 249 295 510 384 277 269 308 280 260 215 193 139 146 165 156 160
72 78 73 53 87 92 99 53 77 111 98 75 75 33 60 102 99 86 87 149 118 76 70 91 72 45 41 -34 30 224 298 176 172 212 126 233 211 209 179 161 96 92 53 58
87 103 147 96 62 65 84 96 85 75 79 114 101 78 120 78 70 59 76 74 76 66 58 25 37 53 36 45 16 38 89 63 58 40 54 46 21 25 -2 -5 -5 -5 -4 31
76 109 130 95 75 59 80 82 61 79 77 94 101 104 57 47 73 56 78 85 107 86 55 57 49 59 49 48 69 49 46 29 11 -1 -18 4 28 34 26 14 12 1 18 33
90 141 183 202 156 111 114 93 78 66 108 101 115 69 68 62 54 61 75 86 97 87 65 53 45 36 25 11 8 29 32 41 39 25 20 27 42 27 7 13 29 56 72 81
99 120 144 166 201 167 151 110 110 126 105 131 105 105 90 106 75 51 43 47 60 58 46 35 18 11 11 12 9 -2 -18 -17 -4 11 22 29 24 27 39 49 67 81 88 84
72 95 101 136 63 104 125 122 97 89 82 93 66 64 87 46 65 55 64 67 71 63 49 23 11 1 -5 -12 -18 -17 -19 -7 -7 -1 -7 -19 -16 -12 -2 5 25 42 54 79
60 51 31 68 51 56 58 68 106 99 106 117 138 81 46 57 67 65 66 77 76 62 48 39 29 19 19 10 8 15 8 -1 -3 -10 -20 -24 -31 -41 -50 -61 -53 -43 -41 -54
82 48 73 87 14 49 61 40 62 98 70 136 70 70 77 53 44 35 57 84 84 79 73 75 64 48 34 23 13 0 -11 -17 -29 -44 -60 -69 -69 -68 -59 -60 -67 -73 -81 -71
123 103 88 65 70 69 50 45 52 66 31 72 134 95 79 72 80 31 75 88 81 91 84 74 65 50 33 10 -9 -20 -25 -24 -40 -41 -27 -20 -23 -20 -4 13 13 13 36 53
99 59 111 132 102 72 60 58 45 63 30 51 80 71 156 162 79 48 82 137 99 98 94 75 59 52 19 -13 -20 -18 -28 -21 -6 0 5 15 14 21 26 26 40 40 56 72
125 124 175 141 108 53 80 89 84 82 60 62 60 62 163 166 114 80 106 107 106 99 88 89 76 37 2 -9 -6 -11 -2 10 0 4 14 26 25 26 49 49 51 56 77 101
152 159 136 170 144 46 103 123 80 56 36 17 22 44 102 115 114 118 104 116 115 108 108 98 70 33 21 20 33 27 24 19 8 23 41 51 55 61 71 65 63 76 94 110
130 148 170 182 149 100 68 95 64 84 73 93 84 54 64 109 124 154 133 130 111 101 98 96 79 65 60 63 55 46 45 36 47 62 70 70 67 76 90 78 79 88 98 95
119 174 208 159 79 94 84 104 115 123 153 111 109 127 151 138 139 152 159 155 149 136 126 123 119 104 91 75 67 55 44 48 58 55 57 55 71 85 80 72 74 74 74 89
98 191 184 204 154 88 105 123 118 120 94 94 100 128 132 155 162 193 204 201 182 164 150 149 136 125 102 91 82 72 78 81 75 58 55 68 66 75 58 56 77 64 65 59
349 299 209 200 124 122 76 67 72 54 83 113 118 124 150 199 178 226 209 200 195 176 177 162 140 134 112 95 88 65 47 48 39 37 36 45 63 68 62 66 74 42 28 15

GFSCGP_con_3kmhel_126.txt.gz
Helicity
69 76 85 77 70 66 63 45 36 33 32 3 25 5 47 64 115 93 78 102 92 62 44 37 7 -8 73 128 104 153 196 171 184 179 175 168 143 108 106 78 60 70 77 70
-35 1 -5 9 14 11 14 -8 -2 23 73 23 19 32 7 83 88 65 45 51 63 76 70 41 22 19 46 105 118 94 152 185 189 180 176 181 167 139 108 90 85 74 68 64
-25 -5 13 -0 -9 -8 -11 4 21 32 31 24 28 22 75 60 -31 10 51 56 27 51 51 44 53 44 46 98 90 90 94 160 167 142 148 179 172 161 137 96 76 74 60 58
2 19 10 2 -16 7 7 21 -1 -2 -27 17 -39 27 63 35 31 -25 -55 -2 25 52 87 88 92 95 77 88 62 50 81 127 171 164 168 161 161 146 124 93 78 68 54 41
2 12 9 -25 -33 16 -18 -10 27 31 43 28 -24 -14 22 -40 -90 -15 -24 35 -20 -50 -42 120 188 154 137 127 109 118 63 72 137 164 162 163 145 124 119 101 88 49 51 39
34 44 36 38 60 74 68 36 13 23 39 12 14 28 56 -59 -61 -48 -35 -9 35 82 135 188 71 115 114 98 107 105 121 79 114 148 146 146 100 49 73 69 41 34 36 44
54 56 51 71 53 51 66 82 35 81 88 87 112 130 150 31 3 25 -19 26 42 113 115 124 28 159 93 29 98 108 136 100 114 122 95 44 21 27 24 29 22 21 62 64
31 49 56 74 68 90 95 88 80 72 96 106 140 135 160 87 43 40 32 31 47 -77 7 28 85 264 103 58 122 178 202 198 236 207 139 101 96 78 131 99 146 164 183 97
30 42 26 70 79 96 87 83 70 58 90 74 116 169 186 100 85 69 45 42 55 37 116 187 192 151 65 63 232 293 262 193 214 209 182 210 170 173 189 242 209 164 140 146
41 54 34 27 77 95 78 52 86 75 28 38 106 112 134 128 106 74 52 73 60 129 148 150 170 235 226 218 235 319 300 240 241 295 287 262 252 275 258 306 242 173 136 141
51 65 63 54 107 101 92 88 89 75 78 76 68 133 157 120 115 103 115 91 68 83 117 112 101 90 163 305 326 215 240 152 130 271 217 258 244 197 162 133 157 125 65 80
47 89 124 82 68 49 60 82 66 65 88 94 118 139 177 135 106 103 149 109 109 80 91 91 98 133 87 226 93 59 61 59 78 97 57 102 128 79 82 59 34 42 25 33
86 115 113 105 93 82 104 115 84 67 78 118 113 145 145 143 127 133 146 143 107 128 102 90 72 70 69 79 56 48 35 35 28 24 14 10 18 30 14 1 -4 -11 7 12
91 128 165 158 98 106 140 122 131 126 106 113 161 99 142 147 131 123 119 122 123 103 119 124 106 75 62 45 30 25 25 25 24 10 5 17 20 19 18 19 28 30 35 39
91 111 116 151 161 120 134 111 128 171 147 122 69 102 58 68 110 105 81 82 82 83 100 102 99 93 63 45 28 19 10 9 6 2 12 20 19 22 20 32 33 32 46 58
99 98 81 129 62 87 131 98 102 130 125 151 131 116 63 63 77 96 98 90 72 63 82 80 71 64 55 35 19 5 -6 -9 -10 11 16 16 21 27 30 30 43 60 60 66
139 118 76 106 62 62 77 73 120 128 147 159 167 99 86 100 97 87 80 82 70 59 64 69 61 46 31 25 22 16 14 11 11 14 17 18 16 17 22 20 16 11 15 19
153 153 126 129 41 77 77 79 92 105 76 147 82 95 86 72 69 61 73 71 65 67 78 83 76 72 65 56 45 29 23 21 11 5 -3 -9 -16 -17 -15 -16 -15 -19 -29 -36
106 112 106 92 106 87 46 72 76 78 49 68 87 67 72 81 43 30 84 86 65 64 69 72 78 80 71 57 54 34 21 12 2 -5 -13 -15 -10 -4 8 16 15 8 11 33
111 82 115 118 90 74 93 91 73 76 66 78 69 45 53 129 90 76 80 110 112 111 116 113 101 85 68 70 59 32 16 8 1 -2 -4 2 12 20 34 41 44 47 55 60
133 122 133 125 122 52 94 99 84 86 118 81 31 29 75 125 112 131 104 115 126 138 144 134 122 97 94 103 68 26 15 9 10 -0 3 11 17 21 38 41 55 64 65 62
102 104 118 129 122 57 113 142 78 108 96 36 35 45 58 76 81 91 116 133 152 159 152 137 126 113 111 99 71 37 24 36 23 15 17 19 26 39 44 53 67 74 91 94
38 81 106 113 108 125 64 59 94 124 82 60 40 73 102 119 115 136 147 154 144 146 146 135 119 123 115 99 76 56 60 65 51 35 28 34 41 49 58 64 86 98 104 99
24 25 72 31 11 4 8 21 41 39 77 52 63 40 69 79 80 113 146 164 177 173 159 151 140 130 115 110 102 77 80 71 55 47 51 59 63 72 74 79 95 101 106 100
38 106 130 58 107 42 21 51 10 -19 -25 -17 -27 -13 -8 4 25 57 110 167 199 202 197 180 157 144 127 132 114 98 87 83 49 43 53 54 52 52 56 66 78 91 88 73
391 351 224 81 -34 -28 -21 8 37 -26 -47 -36 -10 19 39 56 81 73 98 109 155 204 221 199 163 151 142 132 117 109 94 81 81 82 90 85 69 67 63 68 78 83 80 57

GFSCGP_con_3kmhel_129.txt.gz
Helicity
62 72 76 70 64 73 79 63 72 34 58 55 26 20 29 66 107 141 163 155 107 88 71 82 82 57 53 39 22 48 111 138 148 209 242 224 153 174 144 108 104 75 58 57
-4 44 16 17 13 4 5 -7 10 35 44 48 34 27 50 109 114 133 138 103 87 79 122 153 105 63 39 30 31 33 92 124 150 194 185 174 215 165 131 94 90 73 76 74
-6 17 16 7 1 -10 -5 23 45 50 35 47 39 5 68 71 89 146 112 97 86 100 95 146 144 137 98 72 61 52 90 108 131 133 190 197 193 190 215 161 122 98 60 59
24 31 11 8 -1 11 39 75 53 37 14 58 -21 18 -27 79 24 89 -4 105 142 97 119 122 109 128 138 208 249 140 96 100 117 134 171 161 186 133 130 141 136 99 82 76
28 20 15 7 28 -40 -41 -47 -30 -1 2 -10 28 30 -5 139 13 33 37 72 87 97 117 103 124 159 141 126 138 148 174 59 85 82 171 165 147 161 166 135 119 95 81 75
5 0 15 6 13 12 6 -6 -6 32 32 52 93 131 92 121 63 25 43 20 23 -5 75 77 81 118 202 67 110 125 144 156 66 54 95 166 143 126 126 115 112 134 111 96
30 30 4 9 4 14 12 29 34 55 60 66 180 137 179 145 91 85 35 -23 -5 -64 -13 -12 -51 -33 106 86 85 98 142 78 91 61 89 138 136 109 120 108 121 104 129 106
15 21 21 65 26 46 45 23 10 33 39 30 175 139 146 154 152 138 124 58 32 53 64 81 77 51 -2 64 30 83 129 132 177 129 137 190 199 144 217 216 172 147 141 101
8 16 4 53 46 52 45 32 32 74 77 77 120 195 162 169 138 106 111 104 99 84 112 77 91 50 70 118 113 110 89 100 131 175 232 241 201 219 230 221 198 147 157 168
15 37 26 61 47 70 59 26 43 73 62 87 139 155 222 255 197 119 150 136 109 84 99 80 106 135 175 139 142 162 157 129 130 180 216 240 226 194 164 194 182 175 141 157
18 42 41 43 73 65 69 50 58 50 70 98 111 154 207 243 244 191 152 95 108 91 104 81 164 248 152 150 151 115 86 81 108 167 170 189 204 184 185 167 142 176 123 124
36 66 95 86 79 68 69 81 72 90 98 119 135 121 202 210 202 192 133 143 94 98 91 106 127 110 102 82 58 23 46 52 78 70 78 76 108 44 76 23 83 39 53 73
29 62 62 80 62 74 101 118 114 100 77 130 120 120 92 156 172 164 166 148 128 101 90 71 95 92 67 59 38 29 30 39 21 35 44 41 124 42 21 2 9 11 13 0
44 80 112 117 64 59 98 122 122 136 139 106 194 117 91 111 120 145 176 158 143 133 95 94 71 65 50 42 39 34 27 14 15 11 11 19 24 17 5 11 19 32 37 41
86 92 97 118 134 97 111 106 133 247 264 164 103 93 79 62 79 126 130 148 164 143 125 88 88 90 72 47 35 30 26 19 9 8 6 -5 -16 5 17 29 34 33 33 37
117 110 65 105 83 85 135 132 135 150 150 243 161 104 81 36 70 83 112 128 122 114 106 102 90 75 65 55 42 31 21 12 9 3 4 10 16 25 35 40 44 45 45 52
144 110 48 100 42 52 68 92 121 138 133 146 172 92 54 49 64 73 70 85 91 87 86 95 86 67 59 54 40 31 25 20 19 19 20 23 29 38 48 46 47 48 41 31
164 124 116 128 35 66 81 83 64 131 89 116 96 71 56 40 38 58 73 79 88 95 105 105 106 109 106 91 72 65 54 39 32 29 26 26 27 29 28 20 14 6 -3 -6
101 108 98 81 65 77 29 85 85 104 64 85 67 49 30 28 67 33 74 75 74 87 97 98 98 97 105 87 80 65 54 45 33 28 22 15 7 0 -2 5 6 9 8 10
96 78 130 138 77 62 98 96 90 55 62 117 98 71 53 73 47 66 114 77 84 102 122 129 126 121 108 103 95 81 69 55 40 37 28 18 12 6 7 19 17 20 13 13
1 26 82 47 80 37 110 150 65 77 105 122 96 22 46 58 66 75 88 98 103 130 146 153 155 138 124 138 118 100 89 69 62 54 35 24 22 15 17 19 22 21 21 29
33 17 29 10 43 -40 137 98 -32 71 111 104 50 18 21 23 40 59 78 101 119 141 156 161 162 142 145 147 125 104 85 75 72 56 45 32 29 32 37 36 30 30 29 34
101 117 93 83 20 51 22 -57 7 5 21 59 35 16 -11 12 18 21 84 113 105 119 151 168 156 146 149 136 122 108 85 89 73 61 50 48 46 45 49 42 41 37 38 43
179 98 222 177 97 66 60 60 28 41 87 66 28 6 -6 17 7 10 63 115 145 161 164 163 159 156 152 143 134 116 111 111 89 75 71 70 67 88 67 77 75 65 59 57
194 297 238 188 171 -3 25 37 13 4 59 41 110 88 78 92 77 73 81 101 148 194 223 224 195 177 156 149 132 125 126 122 109 101 89 79 81 88 92 85 92 89 91 108
370 414 328 273 174 69 5 39 104 127 116 83 68 50 46 72 67 67 85 104 141 185 244 276 257 239 189 178 153 138 130 132 122 103 83 81 85 84 74 89 92 84 72 65

GFSCGP_con_3kmhel_132.txt.gz
Helicity
74 99 90 87 81 68 90 78 69 44 102 63 46 44 53 62 96 140 251 278 142 108 79 112 162 268 339 169 144 105 86 65 74 139 154 176 186 201 187 232 207 140 113 119
49 83 34 17 18 20 20 16 30 36 82 35 35 25 97 114 131 226 204 108 98 63 58 104 146 160 206 196 286 147 76 71 75 125 134 168 191 184 152 161 183 171 140 135
30 30 17 6 -11 -13 -8 30 54 34 2 64 46 31 88 87 47 221 103 47 48 89 105 121 103 70 103 127 150 178 191 128 91 95 128 133 163 161 146 163 170 136 113 107
18 24 2 -6 -26 27 -2 72 44 1 -14 50 -15 60 79 159 155 142 48 63 84 72 81 64 55 79 95 84 97 103 127 143 147 89 118 132 141 188 173 169 213 185 113 108
-1 10 10 -0 34 14 17 -28 -15 4 32 26 49 70 63 161 160 91 51 53 -8 12 -38 14 -2 45 71 82 76 58 90 65 87 77 89 110 124 155 150 124 124 205 132 126
16 34 -0 -4 -5 6 3 6 9 46 35 18 57 102 84 134 170 134 106 49 3 13 24 56 70 70 33 62 83 125 147 77 63 55 59 73 91 115 130 148 133 134 95 93
5 17 -7 13 17 47 9 -21 -5 3 9 44 135 122 95 199 172 179 139 73 76 104 95 90 49 41 -9 4 28 170 75 66 56 60 67 76 65 84 109 118 142 152 178 132
3 19 32 76 13 19 8 -10 -0 32 39 61 151 133 124 156 179 160 176 173 135 133 134 75 112 64 50 76 26 53 33 1 15 43 110 107 98 139 196 207 202 203 150 136
3 7 50 80 47 35 28 6 34 44 66 69 114 148 227 179 175 199 250 222 200 221 158 108 174 95 96 77 73 57 23 -7 21 94 93 105 97 137 160 192 167 176 161 146
13 34 25 91 40 51 51 41 38 50 40 77 103 183 210 225 183 197 234 229 245 211 183 180 171 99 75 61 59 65 55 10 6 17 63 77 100 98 118 157 169 149 126 152
26 50 43 47 55 65 60 41 57 64 94 108 122 68 118 153 144 160 176 171 212 174 155 127 145 138 125 134 105 88 87 21 34 48 63 64 104 109 95 110 126 121 109 98
37 47 77 88 38 70 70 85 96 148 136 141 148 147 131 150 148 166 140 141 177 180 138 116 136 107 92 89 65 44 30 22 22 37 69 61 80 100 67 55 77 82 9 4
45 50 40 49 54 49 85 100 118 124 110 178 163 129 116 89 150 167 175 119 158 134 113 94 90 96 88 52 45 36 38 41 59 32 16 13 -12 -2 -28 -75 -58 -44 -8 -10
43 89 138 137 77 6 75 77 160 181 198 159 303 189 87 88 109 126 209 213 145 140 112 93 78 83 84 67 57 32 21 18 23 1 -3 -4 -9 2 6 14 26 35 27 41
75 105 92 106 114 83 114 114 133 264 350 215 180 114 86 5 -4 34 141 215 206 167 129 120 104 100 92 82 75 57 36 29 29 20 13 4 -4 -5 24 41 53 65 65 61
107 106 29 74 132 125 139 143 162 192 178 283 271 149 149 110 40 29 115 175 191 173 168 150 145 122 102 92 81 72 58 46 32 23 19 18 18 24 34 39 40 46 47 50
156 114 1 95 -16 21 60 91 158 154 173 214 215 211 46 23 46 61 70 108 149 164 149 169 172 126 94 118 106 87 84 65 54 41 33 32 29 28 32 36 39 42 46 52
212 180 133 111 -7 47 63 119 84 138 109 168 164 105 63 21 37 86 148 134 130 171 172 192 202 170 163 170 130 123 100 81 70 53 44 47 44 39 35 40 44 46 49 48
135 157 138 46 18 55 37 52 75 109 63 112 128 64 60 70 67 47 54 112 83 95 161 203 215 205 195 167 138 129 106 87 77 62 64 62 55 49 47 50 58 53 58 48
32 86 73 68 32 7 94 82 100 139 3 85 103 92 130 133 56 75 66 85 80 97 177 249 243 233 235 169 176 131 99 98 81 83 80 66 61 60 54 53 55 54 52 39
147 101 75 87 84 -24 -61 173 88 -25 -57 46 129 132 103 71 48 62 83 76 89 133 211 256 252 220 167 162 160 115 97 93 104 118 86 69 62 54 50 59 67 67 61 59
140 143 178 170 203 77 189 190 37 -85 140 123 137 123 109 98 76 41 -6 5 46 121 199 209 225 201 179 209 190 138 124 119 139 105 80 62 51 54 51 54 52 56 60 69
196 199 211 243 187 170 209 142 96 152 102 140 164 143 113 67 36 43 48 74 82 94 145 179 180 181 193 222 189 147 117 142 142 115 86 67 67 64 71 69 68 82 89 92
182 168 302 249 297 199 132 183 112 132 162 149 138 110 98 77 59 57 59 65 113 121 153 193 209 199 220 240 205 158 162 185 160 114 88 93 96 84 83 87 92 113 116 110
331 308 352 325 300 159 92 44 36 104 167 171 177 180 140 118 96 89 82 78 108 156 195 245 251 235 226 242 218 194 186 195 154 122 115 116 111 115 109 102 98 105 103 113
550 510 439 362 368 185 94 91 87 78 105 118 163 153 147 137 138 120 131 125 117 121 207 260 260 258 242 256 221 196 198 182 157 152 145 134 146 124 106 96 94 76 102 103